<?xml version="1.0" encoding="UTF-8" standalone="no" ?>
<gpx xmlns="http://www.topografix.com/GPX/1/1" xmlns:xsi="http://www.w3.org/2001/XMLSchema-instance" xsi:schemaLocation="http://www.topografix.com/GPX/1/1 http://www.topografix.com/GPX/1/1/gpx.xsd" version="1.1" creator="VisuGPX - https://www.visugpx.com">
  <metadata>
    <name>Les Confins (circuit de fonds en combes)</name>
  </metadata>
  <trk>
    <name><![CDATA[2022-02-10 16:17:20-Course TT]]></name>
    <extensions>
      <line xmlns="http://www.topografix.com/GPX/gpx_style/0/2">
        <color>0000FF</color>
        <width>4</width>
      </line>
    </extensions>
    <trkseg>
      <trkpt lat="45.92248" lon="6.48431">
        <ele>1436.83</ele>
        <time>2022-02-10T10:49:55Z</time>
      </trkpt>
      <trkpt lat="45.92248" lon="6.48431">
        <ele>1471.92</ele>
        <time>2022-02-10T10:49:56Z</time>
      </trkpt>
      <trkpt lat="45.92247" lon="6.48432">
        <ele>1437.31</ele>
        <time>2022-02-10T10:49:57Z</time>
      </trkpt>
      <trkpt lat="45.92246" lon="6.48432">
        <ele>1437.31</ele>
        <time>2022-02-10T10:49:58Z</time>
      </trkpt>
      <trkpt lat="45.92245" lon="6.48432">
        <ele>1437.31</ele>
        <time>2022-02-10T10:49:59Z</time>
      </trkpt>
      <trkpt lat="45.92244" lon="6.48433">
        <ele>1437.31</ele>
        <time>2022-02-10T10:50:00Z</time>
      </trkpt>
      <trkpt lat="45.92243" lon="6.48433">
        <ele>1437.79</ele>
        <time>2022-02-10T10:50:01Z</time>
      </trkpt>
      <trkpt lat="45.92242" lon="6.48435">
        <ele>1437.79</ele>
        <time>2022-02-10T10:50:03Z</time>
      </trkpt>
      <trkpt lat="45.92224" lon="6.4845">
        <ele>1437.79</ele>
        <time>2022-02-10T10:50:16Z</time>
      </trkpt>
      <trkpt lat="45.92212" lon="6.48465">
        <ele>1437.79</ele>
        <time>2022-02-10T10:50:27Z</time>
      </trkpt>
      <trkpt lat="45.92211" lon="6.48466">
        <ele>1438.27</ele>
        <time>2022-02-10T10:50:28Z</time>
      </trkpt>
      <trkpt lat="45.9221" lon="6.48468">
        <ele>1438.75</ele>
        <time>2022-02-10T10:50:29Z</time>
      </trkpt>
      <trkpt lat="45.92197" lon="6.48486">
        <ele>1439.71</ele>
        <time>2022-02-10T10:50:45Z</time>
      </trkpt>
      <trkpt lat="45.92193" lon="6.48493">
        <ele>1440.67</ele>
        <time>2022-02-10T10:50:51Z</time>
      </trkpt>
      <trkpt lat="45.92192" lon="6.48494">
        <ele>1441.15</ele>
        <time>2022-02-10T10:50:52Z</time>
      </trkpt>
      <trkpt lat="45.92191" lon="6.48495">
        <ele>1441.15</ele>
        <time>2022-02-10T10:50:53Z</time>
      </trkpt>
      <trkpt lat="45.92191" lon="6.48496">
        <ele>1441.15</ele>
        <time>2022-02-10T10:50:54Z</time>
      </trkpt>
      <trkpt lat="45.9219" lon="6.48497">
        <ele>1441.63</ele>
        <time>2022-02-10T10:50:55Z</time>
      </trkpt>
      <trkpt lat="45.92189" lon="6.48497">
        <ele>1441.63</ele>
        <time>2022-02-10T10:50:56Z</time>
      </trkpt>
      <trkpt lat="45.92187" lon="6.48501">
        <ele>1442.11</ele>
        <time>2022-02-10T10:50:59Z</time>
      </trkpt>
      <trkpt lat="45.92186" lon="6.48502">
        <ele>1442.11</ele>
        <time>2022-02-10T10:51:00Z</time>
      </trkpt>
      <trkpt lat="45.92185" lon="6.48503">
        <ele>1442.6</ele>
        <time>2022-02-10T10:51:01Z</time>
      </trkpt>
      <trkpt lat="45.92184" lon="6.48504">
        <ele>1442.6</ele>
        <time>2022-02-10T10:51:02Z</time>
      </trkpt>
      <trkpt lat="45.92183" lon="6.48505">
        <ele>1442.6</ele>
        <time>2022-02-10T10:51:03Z</time>
      </trkpt>
      <trkpt lat="45.92181" lon="6.48509">
        <ele>1443.56</ele>
        <time>2022-02-10T10:51:07Z</time>
      </trkpt>
      <trkpt lat="45.9218" lon="6.48511">
        <ele>1443.56</ele>
        <time>2022-02-10T10:51:08Z</time>
      </trkpt>
      <trkpt lat="45.92179" lon="6.48512">
        <ele>1444.04</ele>
        <time>2022-02-10T10:51:09Z</time>
      </trkpt>
      <trkpt lat="45.92178" lon="6.48514">
        <ele>1444.04</ele>
        <time>2022-02-10T10:51:10Z</time>
      </trkpt>
      <trkpt lat="45.92178" lon="6.48515">
        <ele>1444.04</ele>
        <time>2022-02-10T10:51:11Z</time>
      </trkpt>
      <trkpt lat="45.92177" lon="6.48516">
        <ele>1444.04</ele>
        <time>2022-02-10T10:51:12Z</time>
      </trkpt>
      <trkpt lat="45.92176" lon="6.48518">
        <ele>1444.04</ele>
        <time>2022-02-10T10:51:13Z</time>
      </trkpt>
      <trkpt lat="45.92176" lon="6.48519">
        <ele>1444.04</ele>
        <time>2022-02-10T10:51:14Z</time>
      </trkpt>
      <trkpt lat="45.92175" lon="6.4852">
        <ele>1444.04</ele>
        <time>2022-02-10T10:51:15Z</time>
      </trkpt>
      <trkpt lat="45.92171" lon="6.48528">
        <ele>1445</ele>
        <time>2022-02-10T10:51:22Z</time>
      </trkpt>
      <trkpt lat="45.92171" lon="6.48531">
        <ele>1445.96</ele>
        <time>2022-02-10T10:51:25Z</time>
      </trkpt>
      <trkpt lat="45.9217" lon="6.48533">
        <ele>1445.96</ele>
        <time>2022-02-10T10:51:26Z</time>
      </trkpt>
      <trkpt lat="45.92162" lon="6.48557">
        <ele>1448.84</ele>
        <time>2022-02-10T10:51:46Z</time>
      </trkpt>
      <trkpt lat="45.92155" lon="6.48577">
        <ele>1449.81</ele>
        <time>2022-02-10T10:52:00Z</time>
      </trkpt>
      <trkpt lat="45.92154" lon="6.48578">
        <ele>1449.81</ele>
        <time>2022-02-10T10:52:01Z</time>
      </trkpt>
      <trkpt lat="45.92154" lon="6.4858">
        <ele>1450.29</ele>
        <time>2022-02-10T10:52:02Z</time>
      </trkpt>
      <trkpt lat="45.92148" lon="6.48596">
        <ele>1450.77</ele>
        <time>2022-02-10T10:52:12Z</time>
      </trkpt>
      <trkpt lat="45.92147" lon="6.48597">
        <ele>1450.77</ele>
        <time>2022-02-10T10:52:13Z</time>
      </trkpt>
      <trkpt lat="45.92137" lon="6.48622">
        <ele>1451.25</ele>
        <time>2022-02-10T10:52:28Z</time>
      </trkpt>
      <trkpt lat="45.9213" lon="6.48647">
        <ele>1452.21</ele>
        <time>2022-02-10T10:52:42Z</time>
      </trkpt>
      <trkpt lat="45.92129" lon="6.48653">
        <ele>1452.21</ele>
        <time>2022-02-10T10:52:45Z</time>
      </trkpt>
      <trkpt lat="45.92137" lon="6.48677">
        <ele>1454.13</ele>
        <time>2022-02-10T10:53:00Z</time>
      </trkpt>
      <trkpt lat="45.92145" lon="6.48693">
        <ele>1456.53</ele>
        <time>2022-02-10T10:53:13Z</time>
      </trkpt>
      <trkpt lat="45.92146" lon="6.48694">
        <ele>1456.53</ele>
        <time>2022-02-10T10:53:14Z</time>
      </trkpt>
      <trkpt lat="45.92146" lon="6.48695">
        <ele>1456.53</ele>
        <time>2022-02-10T10:53:15Z</time>
      </trkpt>
      <trkpt lat="45.92147" lon="6.48697">
        <ele>1457.02</ele>
        <time>2022-02-10T10:53:16Z</time>
      </trkpt>
      <trkpt lat="45.92148" lon="6.48699">
        <ele>1457.02</ele>
        <time>2022-02-10T10:53:17Z</time>
      </trkpt>
      <trkpt lat="45.92159" lon="6.48724">
        <ele>1455.57</ele>
        <time>2022-02-10T10:53:28Z</time>
      </trkpt>
      <trkpt lat="45.92167" lon="6.48749">
        <ele>1454.61</ele>
        <time>2022-02-10T10:53:36Z</time>
      </trkpt>
      <trkpt lat="45.92175" lon="6.48776">
        <ele>1452.69</ele>
        <time>2022-02-10T10:53:43Z</time>
      </trkpt>
      <trkpt lat="45.92181" lon="6.48804">
        <ele>1451.25</ele>
        <time>2022-02-10T10:53:51Z</time>
      </trkpt>
      <trkpt lat="45.92175" lon="6.48835">
        <ele>1449.32</ele>
        <time>2022-02-10T10:53:59Z</time>
      </trkpt>
      <trkpt lat="45.92167" lon="6.48856">
        <ele>1446.44</ele>
        <time>2022-02-10T10:54:04Z</time>
      </trkpt>
      <trkpt lat="45.92169" lon="6.48877">
        <ele>1445</ele>
        <time>2022-02-10T10:54:10Z</time>
      </trkpt>
      <trkpt lat="45.9217" lon="6.48904">
        <ele>1446.44</ele>
        <time>2022-02-10T10:54:25Z</time>
      </trkpt>
      <trkpt lat="45.9217" lon="6.48931">
        <ele>1448.36</ele>
        <time>2022-02-10T10:54:42Z</time>
      </trkpt>
      <trkpt lat="45.9217" lon="6.48941">
        <ele>1449.32</ele>
        <time>2022-02-10T10:54:48Z</time>
      </trkpt>
      <trkpt lat="45.9217" lon="6.48942">
        <ele>1449.32</ele>
        <time>2022-02-10T10:54:49Z</time>
      </trkpt>
      <trkpt lat="45.9217" lon="6.48944">
        <ele>1449.81</ele>
        <time>2022-02-10T10:54:50Z</time>
      </trkpt>
      <trkpt lat="45.92172" lon="6.48973">
        <ele>1452.69</ele>
        <time>2022-02-10T10:55:09Z</time>
      </trkpt>
      <trkpt lat="45.92172" lon="6.48974">
        <ele>1452.69</ele>
        <time>2022-02-10T10:55:10Z</time>
      </trkpt>
      <trkpt lat="45.92172" lon="6.48975">
        <ele>1453.17</ele>
        <time>2022-02-10T10:55:11Z</time>
      </trkpt>
      <trkpt lat="45.92172" lon="6.48977">
        <ele>1453.17</ele>
        <time>2022-02-10T10:55:12Z</time>
      </trkpt>
      <trkpt lat="45.92172" lon="6.48979">
        <ele>1453.17</ele>
        <time>2022-02-10T10:55:13Z</time>
      </trkpt>
      <trkpt lat="45.92172" lon="6.48981">
        <ele>1453.17</ele>
        <time>2022-02-10T10:55:14Z</time>
      </trkpt>
      <trkpt lat="45.92172" lon="6.48982">
        <ele>1453.65</ele>
        <time>2022-02-10T10:55:15Z</time>
      </trkpt>
      <trkpt lat="45.92172" lon="6.48985">
        <ele>1453.65</ele>
        <time>2022-02-10T10:55:17Z</time>
      </trkpt>
      <trkpt lat="45.92172" lon="6.48986">
        <ele>1454.13</ele>
        <time>2022-02-10T10:55:18Z</time>
      </trkpt>
      <trkpt lat="45.92174" lon="6.48994">
        <ele>1454.61</ele>
        <time>2022-02-10T10:55:24Z</time>
      </trkpt>
      <trkpt lat="45.92174" lon="6.48995">
        <ele>1455.09</ele>
        <time>2022-02-10T10:55:25Z</time>
      </trkpt>
      <trkpt lat="45.92174" lon="6.48997">
        <ele>1455.09</ele>
        <time>2022-02-10T10:55:26Z</time>
      </trkpt>
      <trkpt lat="45.92175" lon="6.49">
        <ele>1455.57</ele>
        <time>2022-02-10T10:55:28Z</time>
      </trkpt>
      <trkpt lat="45.92174" lon="6.49001">
        <ele>1455.57</ele>
        <time>2022-02-10T10:55:29Z</time>
      </trkpt>
      <trkpt lat="45.92175" lon="6.49003">
        <ele>1455.57</ele>
        <time>2022-02-10T10:55:30Z</time>
      </trkpt>
      <trkpt lat="45.92175" lon="6.49004">
        <ele>1456.05</ele>
        <time>2022-02-10T10:55:31Z</time>
      </trkpt>
      <trkpt lat="45.92175" lon="6.49005">
        <ele>1456.05</ele>
        <time>2022-02-10T10:55:32Z</time>
      </trkpt>
      <trkpt lat="45.92175" lon="6.49007">
        <ele>1456.05</ele>
        <time>2022-02-10T10:55:33Z</time>
      </trkpt>
      <trkpt lat="45.92175" lon="6.49008">
        <ele>1456.53</ele>
        <time>2022-02-10T10:55:34Z</time>
      </trkpt>
      <trkpt lat="45.92175" lon="6.49018">
        <ele>1457.98</ele>
        <time>2022-02-10T10:55:42Z</time>
      </trkpt>
      <trkpt lat="45.92175" lon="6.49019">
        <ele>1458.46</ele>
        <time>2022-02-10T10:55:43Z</time>
      </trkpt>
      <trkpt lat="45.92176" lon="6.49021">
        <ele>1458.46</ele>
        <time>2022-02-10T10:55:44Z</time>
      </trkpt>
      <trkpt lat="45.92177" lon="6.49044">
        <ele>1461.82</ele>
        <time>2022-02-10T10:56:02Z</time>
      </trkpt>
      <trkpt lat="45.9218" lon="6.49067">
        <ele>1465.19</ele>
        <time>2022-02-10T10:56:21Z</time>
      </trkpt>
      <trkpt lat="45.92181" lon="6.49077">
        <ele>1467.11</ele>
        <time>2022-02-10T10:56:30Z</time>
      </trkpt>
      <trkpt lat="45.92182" lon="6.49078">
        <ele>1467.11</ele>
        <time>2022-02-10T10:56:31Z</time>
      </trkpt>
      <trkpt lat="45.92183" lon="6.49086">
        <ele>1468.07</ele>
        <time>2022-02-10T10:56:37Z</time>
      </trkpt>
      <trkpt lat="45.92184" lon="6.49095">
        <ele>1469.51</ele>
        <time>2022-02-10T10:56:45Z</time>
      </trkpt>
      <trkpt lat="45.92185" lon="6.49096">
        <ele>1469.99</ele>
        <time>2022-02-10T10:56:46Z</time>
      </trkpt>
      <trkpt lat="45.92189" lon="6.49112">
        <ele>1472.88</ele>
        <time>2022-02-10T10:57:01Z</time>
      </trkpt>
      <trkpt lat="45.9219" lon="6.4913">
        <ele>1475.76</ele>
        <time>2022-02-10T10:57:17Z</time>
      </trkpt>
      <trkpt lat="45.92191" lon="6.49146">
        <ele>1479.13</ele>
        <time>2022-02-10T10:57:33Z</time>
      </trkpt>
      <trkpt lat="45.92191" lon="6.49163">
        <ele>1482.01</ele>
        <time>2022-02-10T10:57:49Z</time>
      </trkpt>
      <trkpt lat="45.92193" lon="6.49176">
        <ele>1485.37</ele>
        <time>2022-02-10T10:58:03Z</time>
      </trkpt>
      <trkpt lat="45.92194" lon="6.49181">
        <ele>1486.34</ele>
        <time>2022-02-10T10:58:08Z</time>
      </trkpt>
      <trkpt lat="45.92194" lon="6.49189">
        <ele>1487.78</ele>
        <time>2022-02-10T10:58:16Z</time>
      </trkpt>
      <trkpt lat="45.92196" lon="6.49199">
        <ele>1491.14</ele>
        <time>2022-02-10T10:58:29Z</time>
      </trkpt>
      <trkpt lat="45.92196" lon="6.49217">
        <ele>1494.03</ele>
        <time>2022-02-10T10:58:47Z</time>
      </trkpt>
      <trkpt lat="45.92196" lon="6.4922">
        <ele>1494.51</ele>
        <time>2022-02-10T10:58:50Z</time>
      </trkpt>
      <trkpt lat="45.92196" lon="6.49236">
        <ele>1497.39</ele>
        <time>2022-02-10T10:59:07Z</time>
      </trkpt>
      <trkpt lat="45.92198" lon="6.49249">
        <ele>1500.76</ele>
        <time>2022-02-10T10:59:22Z</time>
      </trkpt>
      <trkpt lat="45.92198" lon="6.49264">
        <ele>1503.64</ele>
        <time>2022-02-10T10:59:39Z</time>
      </trkpt>
      <trkpt lat="45.92197" lon="6.49279">
        <ele>1507</ele>
        <time>2022-02-10T10:59:55Z</time>
      </trkpt>
      <trkpt lat="45.92195" lon="6.49293">
        <ele>1509.89</ele>
        <time>2022-02-10T11:00:10Z</time>
      </trkpt>
      <trkpt lat="45.92196" lon="6.49304">
        <ele>1512.77</ele>
        <time>2022-02-10T11:00:22Z</time>
      </trkpt>
      <trkpt lat="45.92197" lon="6.49319">
        <ele>1516.14</ele>
        <time>2022-02-10T11:00:40Z</time>
      </trkpt>
      <trkpt lat="45.92197" lon="6.49323">
        <ele>1516.62</ele>
        <time>2022-02-10T11:00:44Z</time>
      </trkpt>
      <trkpt lat="45.92198" lon="6.49326">
        <ele>1517.1</ele>
        <time>2022-02-10T11:00:46Z</time>
      </trkpt>
      <trkpt lat="45.92198" lon="6.49327">
        <ele>1517.1</ele>
        <time>2022-02-10T11:00:47Z</time>
      </trkpt>
      <trkpt lat="45.92199" lon="6.49338">
        <ele>1519.98</ele>
        <time>2022-02-10T11:00:59Z</time>
      </trkpt>
      <trkpt lat="45.92201" lon="6.49348">
        <ele>1521.9</ele>
        <time>2022-02-10T11:01:09Z</time>
      </trkpt>
      <trkpt lat="45.92203" lon="6.49362">
        <ele>1524.79</ele>
        <time>2022-02-10T11:01:25Z</time>
      </trkpt>
      <trkpt lat="45.92207" lon="6.49374">
        <ele>1527.19</ele>
        <time>2022-02-10T11:01:38Z</time>
      </trkpt>
      <trkpt lat="45.92213" lon="6.49391">
        <ele>1530.08</ele>
        <time>2022-02-10T11:01:56Z</time>
      </trkpt>
      <trkpt lat="45.92217" lon="6.49406">
        <ele>1533.44</ele>
        <time>2022-02-10T11:02:12Z</time>
      </trkpt>
      <trkpt lat="45.92219" lon="6.49424">
        <ele>1536.32</ele>
        <time>2022-02-10T11:02:29Z</time>
      </trkpt>
      <trkpt lat="45.9222" lon="6.49433">
        <ele>1536.8</ele>
        <time>2022-02-10T11:02:35Z</time>
      </trkpt>
      <trkpt lat="45.9222" lon="6.49436">
        <ele>1537.29</ele>
        <time>2022-02-10T11:02:38Z</time>
      </trkpt>
      <trkpt lat="45.92226" lon="6.49449">
        <ele>1540.65</ele>
        <time>2022-02-10T11:02:55Z</time>
      </trkpt>
      <trkpt lat="45.92234" lon="6.49454">
        <ele>1543.53</ele>
        <time>2022-02-10T11:03:08Z</time>
      </trkpt>
      <trkpt lat="45.92242" lon="6.4946">
        <ele>1546.42</ele>
        <time>2022-02-10T11:03:22Z</time>
      </trkpt>
      <trkpt lat="45.92248" lon="6.49471">
        <ele>1549.78</ele>
        <time>2022-02-10T11:03:38Z</time>
      </trkpt>
      <trkpt lat="45.9224" lon="6.49482">
        <ele>1552.19</ele>
        <time>2022-02-10T11:03:55Z</time>
      </trkpt>
      <trkpt lat="45.92228" lon="6.49494">
        <ele>1555.55</ele>
        <time>2022-02-10T11:04:14Z</time>
      </trkpt>
      <trkpt lat="45.92227" lon="6.49501">
        <ele>1558.43</ele>
        <time>2022-02-10T11:04:24Z</time>
      </trkpt>
      <trkpt lat="45.92237" lon="6.49508">
        <ele>1561.8</ele>
        <time>2022-02-10T11:04:39Z</time>
      </trkpt>
      <trkpt lat="45.92247" lon="6.49514">
        <ele>1565.16</ele>
        <time>2022-02-10T11:04:53Z</time>
      </trkpt>
      <trkpt lat="45.92248" lon="6.49515">
        <ele>1565.16</ele>
        <time>2022-02-10T11:04:54Z</time>
      </trkpt>
      <trkpt lat="45.92249" lon="6.49515">
        <ele>1565.16</ele>
        <time>2022-02-10T11:04:55Z</time>
      </trkpt>
      <trkpt lat="45.9225" lon="6.49516">
        <ele>1565.16</ele>
        <time>2022-02-10T11:04:56Z</time>
      </trkpt>
      <trkpt lat="45.92258" lon="6.49524">
        <ele>1568.53</ele>
        <time>2022-02-10T11:05:10Z</time>
      </trkpt>
      <trkpt lat="45.92267" lon="6.49529">
        <ele>1571.89</ele>
        <time>2022-02-10T11:05:24Z</time>
      </trkpt>
      <trkpt lat="45.9227" lon="6.49538">
        <ele>1574.78</ele>
        <time>2022-02-10T11:05:39Z</time>
      </trkpt>
      <trkpt lat="45.92269" lon="6.49541">
        <ele>1575.26</ele>
        <time>2022-02-10T11:05:42Z</time>
      </trkpt>
      <trkpt lat="45.92261" lon="6.49553">
        <ele>1578.14</ele>
        <time>2022-02-10T11:05:59Z</time>
      </trkpt>
      <trkpt lat="45.92257" lon="6.49562">
        <ele>1581.51</ele>
        <time>2022-02-10T11:06:11Z</time>
      </trkpt>
      <trkpt lat="45.9225" lon="6.4957">
        <ele>1584.39</ele>
        <time>2022-02-10T11:06:27Z</time>
      </trkpt>
      <trkpt lat="45.92249" lon="6.49579">
        <ele>1587.27</ele>
        <time>2022-02-10T11:06:43Z</time>
      </trkpt>
      <trkpt lat="45.92257" lon="6.49586">
        <ele>1590.16</ele>
        <time>2022-02-10T11:06:59Z</time>
      </trkpt>
      <trkpt lat="45.92266" lon="6.49596">
        <ele>1593.04</ele>
        <time>2022-02-10T11:07:14Z</time>
      </trkpt>
      <trkpt lat="45.92257" lon="6.49598">
        <ele>1594</ele>
        <time>2022-02-10T11:07:28Z</time>
      </trkpt>
      <trkpt lat="45.92246" lon="6.49606">
        <ele>1597.37</ele>
        <time>2022-02-10T11:07:45Z</time>
      </trkpt>
      <trkpt lat="45.92231" lon="6.49608">
        <ele>1600.25</ele>
        <time>2022-02-10T11:08:06Z</time>
      </trkpt>
      <trkpt lat="45.92231" lon="6.49613">
        <ele>1603.62</ele>
        <time>2022-02-10T11:08:21Z</time>
      </trkpt>
      <trkpt lat="45.92234" lon="6.49617">
        <ele>1604.58</ele>
        <time>2022-02-10T11:08:27Z</time>
      </trkpt>
      <trkpt lat="45.92241" lon="6.49626">
        <ele>1607.46</ele>
        <time>2022-02-10T11:08:41Z</time>
      </trkpt>
      <trkpt lat="45.92249" lon="6.49637">
        <ele>1610.83</ele>
        <time>2022-02-10T11:09:00Z</time>
      </trkpt>
      <trkpt lat="45.92253" lon="6.49645">
        <ele>1612.27</ele>
        <time>2022-02-10T11:09:10Z</time>
      </trkpt>
      <trkpt lat="45.9226" lon="6.49656">
        <ele>1615.63</ele>
        <time>2022-02-10T11:09:27Z</time>
      </trkpt>
      <trkpt lat="45.92256" lon="6.49663">
        <ele>1618.52</ele>
        <time>2022-02-10T11:09:48Z</time>
      </trkpt>
      <trkpt lat="45.92253" lon="6.49665">
        <ele>1619.48</ele>
        <time>2022-02-10T11:09:53Z</time>
      </trkpt>
      <trkpt lat="45.92241" lon="6.49667">
        <ele>1622.36</ele>
        <time>2022-02-10T11:10:12Z</time>
      </trkpt>
      <trkpt lat="45.92231" lon="6.49672">
        <ele>1625.73</ele>
        <time>2022-02-10T11:10:27Z</time>
      </trkpt>
      <trkpt lat="45.92221" lon="6.49677">
        <ele>1628.61</ele>
        <time>2022-02-10T11:10:44Z</time>
      </trkpt>
      <trkpt lat="45.92218" lon="6.49679">
        <ele>1629.57</ele>
        <time>2022-02-10T11:10:49Z</time>
      </trkpt>
      <trkpt lat="45.92217" lon="6.4968">
        <ele>1629.57</ele>
        <time>2022-02-10T11:10:50Z</time>
      </trkpt>
      <trkpt lat="45.92217" lon="6.4968">
        <ele>1629.57</ele>
        <time>2022-02-10T11:10:51Z</time>
      </trkpt>
      <trkpt lat="45.92203" lon="6.49679">
        <ele>1632.94</ele>
        <time>2022-02-10T11:11:11Z</time>
      </trkpt>
      <trkpt lat="45.92195" lon="6.49676">
        <ele>1635.82</ele>
        <time>2022-02-10T11:11:24Z</time>
      </trkpt>
      <trkpt lat="45.92188" lon="6.49677">
        <ele>1639.19</ele>
        <time>2022-02-10T11:11:40Z</time>
      </trkpt>
      <trkpt lat="45.92188" lon="6.49677">
        <ele>1639.19</ele>
        <time>2022-02-10T11:11:41Z</time>
      </trkpt>
      <trkpt lat="45.92189" lon="6.49683">
        <ele>1640.63</ele>
        <time>2022-02-10T11:11:46Z</time>
      </trkpt>
      <trkpt lat="45.92193" lon="6.49694">
        <ele>1643.51</ele>
        <time>2022-02-10T11:12:02Z</time>
      </trkpt>
      <trkpt lat="45.92197" lon="6.49704">
        <ele>1645.91</ele>
        <time>2022-02-10T11:12:15Z</time>
      </trkpt>
      <trkpt lat="45.92186" lon="6.49712">
        <ele>1648.8</ele>
        <time>2022-02-10T11:12:35Z</time>
      </trkpt>
      <trkpt lat="45.92183" lon="6.49713">
        <ele>1650.24</ele>
        <time>2022-02-10T11:12:39Z</time>
      </trkpt>
      <trkpt lat="45.92169" lon="6.49712">
        <ele>1653.12</ele>
        <time>2022-02-10T11:12:57Z</time>
      </trkpt>
      <trkpt lat="45.92165" lon="6.49712">
        <ele>1654.09</ele>
        <time>2022-02-10T11:13:03Z</time>
      </trkpt>
      <trkpt lat="45.92158" lon="6.4971">
        <ele>1656.01</ele>
        <time>2022-02-10T11:13:14Z</time>
      </trkpt>
      <trkpt lat="45.92146" lon="6.49709">
        <ele>1658.41</ele>
        <time>2022-02-10T11:13:28Z</time>
      </trkpt>
      <trkpt lat="45.92145" lon="6.49709">
        <ele>1658.89</ele>
        <time>2022-02-10T11:13:30Z</time>
      </trkpt>
      <trkpt lat="45.92138" lon="6.49715">
        <ele>1662.26</ele>
        <time>2022-02-10T11:13:47Z</time>
      </trkpt>
      <trkpt lat="45.92141" lon="6.49723">
        <ele>1664.18</ele>
        <time>2022-02-10T11:13:55Z</time>
      </trkpt>
      <trkpt lat="45.92146" lon="6.49738">
        <ele>1667.06</ele>
        <time>2022-02-10T11:14:11Z</time>
      </trkpt>
      <trkpt lat="45.92151" lon="6.49755">
        <ele>1670.43</ele>
        <time>2022-02-10T11:14:27Z</time>
      </trkpt>
      <trkpt lat="45.92144" lon="6.4976">
        <ele>1673.31</ele>
        <time>2022-02-10T11:14:43Z</time>
      </trkpt>
      <trkpt lat="45.9214" lon="6.49762">
        <ele>1675.23</ele>
        <time>2022-02-10T11:14:52Z</time>
      </trkpt>
      <trkpt lat="45.9214" lon="6.49777">
        <ele>1678.12</ele>
        <time>2022-02-10T11:15:08Z</time>
      </trkpt>
      <trkpt lat="45.9214" lon="6.49794">
        <ele>1681</ele>
        <time>2022-02-10T11:15:25Z</time>
      </trkpt>
      <trkpt lat="45.92141" lon="6.49807">
        <ele>1684.37</ele>
        <time>2022-02-10T11:15:42Z</time>
      </trkpt>
      <trkpt lat="45.92135" lon="6.49819">
        <ele>1687.25</ele>
        <time>2022-02-10T11:16:00Z</time>
      </trkpt>
      <trkpt lat="45.9213" lon="6.49822">
        <ele>1689.17</ele>
        <time>2022-02-10T11:16:10Z</time>
      </trkpt>
      <trkpt lat="45.92122" lon="6.49832">
        <ele>1692.06</ele>
        <time>2022-02-10T11:16:27Z</time>
      </trkpt>
      <trkpt lat="45.92115" lon="6.49839">
        <ele>1695.42</ele>
        <time>2022-02-10T11:16:42Z</time>
      </trkpt>
      <trkpt lat="45.92104" lon="6.49833">
        <ele>1698.79</ele>
        <time>2022-02-10T11:16:59Z</time>
      </trkpt>
      <trkpt lat="45.92096" lon="6.4983">
        <ele>1701.67</ele>
        <time>2022-02-10T11:17:15Z</time>
      </trkpt>
      <trkpt lat="45.92086" lon="6.49827">
        <ele>1705.04</ele>
        <time>2022-02-10T11:17:34Z</time>
      </trkpt>
      <trkpt lat="45.92076" lon="6.49827">
        <ele>1707.92</ele>
        <time>2022-02-10T11:17:52Z</time>
      </trkpt>
      <trkpt lat="45.92066" lon="6.49822">
        <ele>1711.28</ele>
        <time>2022-02-10T11:18:09Z</time>
      </trkpt>
      <trkpt lat="45.92062" lon="6.4982">
        <ele>1712.25</ele>
        <time>2022-02-10T11:18:15Z</time>
      </trkpt>
      <trkpt lat="45.92054" lon="6.49817">
        <ele>1715.61</ele>
        <time>2022-02-10T11:18:30Z</time>
      </trkpt>
      <trkpt lat="45.92048" lon="6.49821">
        <ele>1718.49</ele>
        <time>2022-02-10T11:18:45Z</time>
      </trkpt>
      <trkpt lat="45.92045" lon="6.49833">
        <ele>1720.42</ele>
        <time>2022-02-10T11:18:54Z</time>
      </trkpt>
      <trkpt lat="45.92043" lon="6.49842">
        <ele>1722.82</ele>
        <time>2022-02-10T11:19:03Z</time>
      </trkpt>
      <trkpt lat="45.92044" lon="6.49843">
        <ele>1722.82</ele>
        <time>2022-02-10T11:19:04Z</time>
      </trkpt>
      <trkpt lat="45.92044" lon="6.49845">
        <ele>1722.82</ele>
        <time>2022-02-10T11:19:05Z</time>
      </trkpt>
      <trkpt lat="45.92044" lon="6.49846">
        <ele>1723.3</ele>
        <time>2022-02-10T11:19:06Z</time>
      </trkpt>
      <trkpt lat="45.92044" lon="6.49848">
        <ele>1723.3</ele>
        <time>2022-02-10T11:19:07Z</time>
      </trkpt>
      <trkpt lat="45.92045" lon="6.49849">
        <ele>1723.78</ele>
        <time>2022-02-10T11:19:08Z</time>
      </trkpt>
      <trkpt lat="45.92048" lon="6.49873">
        <ele>1726.67</ele>
        <time>2022-02-10T11:19:27Z</time>
      </trkpt>
      <trkpt lat="45.92048" lon="6.49887">
        <ele>1730.03</ele>
        <time>2022-02-10T11:19:44Z</time>
      </trkpt>
      <trkpt lat="45.92048" lon="6.49901">
        <ele>1732.91</ele>
        <time>2022-02-10T11:20:02Z</time>
      </trkpt>
      <trkpt lat="45.92048" lon="6.49912">
        <ele>1734.36</ele>
        <time>2022-02-10T11:20:12Z</time>
      </trkpt>
      <trkpt lat="45.92036" lon="6.49905">
        <ele>1737.24</ele>
        <time>2022-02-10T11:20:30Z</time>
      </trkpt>
      <trkpt lat="45.92025" lon="6.49896">
        <ele>1740.12</ele>
        <time>2022-02-10T11:20:46Z</time>
      </trkpt>
      <trkpt lat="45.92023" lon="6.49901">
        <ele>1743.01</ele>
        <time>2022-02-10T11:20:58Z</time>
      </trkpt>
      <trkpt lat="45.92025" lon="6.49915">
        <ele>1745.41</ele>
        <time>2022-02-10T11:21:13Z</time>
      </trkpt>
      <trkpt lat="45.92026" lon="6.49922">
        <ele>1746.37</ele>
        <time>2022-02-10T11:21:19Z</time>
      </trkpt>
      <trkpt lat="45.92025" lon="6.49925">
        <ele>1746.85</ele>
        <time>2022-02-10T11:21:21Z</time>
      </trkpt>
      <trkpt lat="45.92021" lon="6.49923">
        <ele>1747.81</ele>
        <time>2022-02-10T11:21:27Z</time>
      </trkpt>
      <trkpt lat="45.92011" lon="6.49914">
        <ele>1750.7</ele>
        <time>2022-02-10T11:21:46Z</time>
      </trkpt>
      <trkpt lat="45.92003" lon="6.49905">
        <ele>1753.58</ele>
        <time>2022-02-10T11:22:01Z</time>
      </trkpt>
      <trkpt lat="45.91997" lon="6.49901">
        <ele>1755.5</ele>
        <time>2022-02-10T11:22:11Z</time>
      </trkpt>
      <trkpt lat="45.91986" lon="6.49894">
        <ele>1758.39</ele>
        <time>2022-02-10T11:22:27Z</time>
      </trkpt>
      <trkpt lat="45.91979" lon="6.49886">
        <ele>1760.79</ele>
        <time>2022-02-10T11:22:41Z</time>
      </trkpt>
      <trkpt lat="45.91978" lon="6.49885">
        <ele>1761.27</ele>
        <time>2022-02-10T11:22:42Z</time>
      </trkpt>
      <trkpt lat="45.91977" lon="6.49885">
        <ele>1761.27</ele>
        <time>2022-02-10T11:22:43Z</time>
      </trkpt>
      <trkpt lat="45.91967" lon="6.49884">
        <ele>1764.64</ele>
        <time>2022-02-10T11:23:00Z</time>
      </trkpt>
      <trkpt lat="45.91963" lon="6.49894">
        <ele>1767.52</ele>
        <time>2022-02-10T11:23:14Z</time>
      </trkpt>
      <trkpt lat="45.91963" lon="6.49911">
        <ele>1770.41</ele>
        <time>2022-02-10T11:23:30Z</time>
      </trkpt>
      <trkpt lat="45.91963" lon="6.49915">
        <ele>1771.37</ele>
        <time>2022-02-10T11:23:34Z</time>
      </trkpt>
      <trkpt lat="45.91963" lon="6.49923">
        <ele>1773.29</ele>
        <time>2022-02-10T11:23:42Z</time>
      </trkpt>
      <trkpt lat="45.91967" lon="6.49932">
        <ele>1776.17</ele>
        <time>2022-02-10T11:23:58Z</time>
      </trkpt>
      <trkpt lat="45.91967" lon="6.49944">
        <ele>1779.54</ele>
        <time>2022-02-10T11:24:12Z</time>
      </trkpt>
      <trkpt lat="45.91961" lon="6.49948">
        <ele>1782.42</ele>
        <time>2022-02-10T11:24:33Z</time>
      </trkpt>
      <trkpt lat="45.91959" lon="6.49948">
        <ele>1782.9</ele>
        <time>2022-02-10T11:24:35Z</time>
      </trkpt>
      <trkpt lat="45.91951" lon="6.49946">
        <ele>1785.79</ele>
        <time>2022-02-10T11:24:50Z</time>
      </trkpt>
      <trkpt lat="45.91952" lon="6.49954">
        <ele>1787.23</ele>
        <time>2022-02-10T11:25:00Z</time>
      </trkpt>
      <trkpt lat="45.91952" lon="6.49955">
        <ele>1787.71</ele>
        <time>2022-02-10T11:25:01Z</time>
      </trkpt>
      <trkpt lat="45.91952" lon="6.49957">
        <ele>1787.71</ele>
        <time>2022-02-10T11:25:02Z</time>
      </trkpt>
      <trkpt lat="45.91956" lon="6.49972">
        <ele>1791.07</ele>
        <time>2022-02-10T11:25:18Z</time>
      </trkpt>
      <trkpt lat="45.91957" lon="6.49978">
        <ele>1792.03</ele>
        <time>2022-02-10T11:25:23Z</time>
      </trkpt>
      <trkpt lat="45.91952" lon="6.49986">
        <ele>1794.92</ele>
        <time>2022-02-10T11:25:46Z</time>
      </trkpt>
      <trkpt lat="45.9194" lon="6.49979">
        <ele>1797.8</ele>
        <time>2022-02-10T11:26:02Z</time>
      </trkpt>
      <trkpt lat="45.91938" lon="6.49978">
        <ele>1797.8</ele>
        <time>2022-02-10T11:26:03Z</time>
      </trkpt>
      <trkpt lat="45.91931" lon="6.49969">
        <ele>1801.17</ele>
        <time>2022-02-10T11:26:18Z</time>
      </trkpt>
      <trkpt lat="45.91926" lon="6.49963">
        <ele>1802.61</ele>
        <time>2022-02-10T11:26:27Z</time>
      </trkpt>
      <trkpt lat="45.91924" lon="6.49958">
        <ele>1805.97</ele>
        <time>2022-02-10T11:26:39Z</time>
      </trkpt>
      <trkpt lat="45.91922" lon="6.49974">
        <ele>1808.38</ele>
        <time>2022-02-10T11:26:52Z</time>
      </trkpt>
      <trkpt lat="45.91921" lon="6.49982">
        <ele>1809.82</ele>
        <time>2022-02-10T11:27:00Z</time>
      </trkpt>
      <trkpt lat="45.91921" lon="6.49984">
        <ele>1810.3</ele>
        <time>2022-02-10T11:27:02Z</time>
      </trkpt>
      <trkpt lat="45.91911" lon="6.49979">
        <ele>1813.18</ele>
        <time>2022-02-10T11:27:20Z</time>
      </trkpt>
      <trkpt lat="45.91913" lon="6.49992">
        <ele>1816.55</ele>
        <time>2022-02-10T11:27:35Z</time>
      </trkpt>
      <trkpt lat="45.91915" lon="6.49996">
        <ele>1817.99</ele>
        <time>2022-02-10T11:27:40Z</time>
      </trkpt>
      <trkpt lat="45.91916" lon="6.49999">
        <ele>1818.47</ele>
        <time>2022-02-10T11:27:43Z</time>
      </trkpt>
      <trkpt lat="45.91918" lon="6.50012">
        <ele>1821.84</ele>
        <time>2022-02-10T11:27:58Z</time>
      </trkpt>
      <trkpt lat="45.91908" lon="6.50012">
        <ele>1824.72</ele>
        <time>2022-02-10T11:28:20Z</time>
      </trkpt>
      <trkpt lat="45.91898" lon="6.50013">
        <ele>1827.6</ele>
        <time>2022-02-10T11:28:34Z</time>
      </trkpt>
      <trkpt lat="45.91892" lon="6.50009">
        <ele>1829.05</ele>
        <time>2022-02-10T11:28:43Z</time>
      </trkpt>
      <trkpt lat="45.91883" lon="6.50009">
        <ele>1832.41</ele>
        <time>2022-02-10T11:28:58Z</time>
      </trkpt>
      <trkpt lat="45.9188" lon="6.50017">
        <ele>1834.81</ele>
        <time>2022-02-10T11:29:09Z</time>
      </trkpt>
      <trkpt lat="45.91878" lon="6.50018">
        <ele>1835.29</ele>
        <time>2022-02-10T11:29:11Z</time>
      </trkpt>
      <trkpt lat="45.91877" lon="6.50018">
        <ele>1835.77</ele>
        <time>2022-02-10T11:29:12Z</time>
      </trkpt>
      <trkpt lat="45.91877" lon="6.50019">
        <ele>1835.77</ele>
        <time>2022-02-10T11:29:13Z</time>
      </trkpt>
      <trkpt lat="45.91881" lon="6.50031">
        <ele>1838.66</ele>
        <time>2022-02-10T11:29:29Z</time>
      </trkpt>
      <trkpt lat="45.91887" lon="6.50041">
        <ele>1841.06</ele>
        <time>2022-02-10T11:29:39Z</time>
      </trkpt>
      <trkpt lat="45.91889" lon="6.50049">
        <ele>1842.98</ele>
        <time>2022-02-10T11:29:49Z</time>
      </trkpt>
      <trkpt lat="45.9189" lon="6.50052">
        <ele>1843.47</ele>
        <time>2022-02-10T11:29:51Z</time>
      </trkpt>
      <trkpt lat="45.91892" lon="6.50057">
        <ele>1844.91</ele>
        <time>2022-02-10T11:29:58Z</time>
      </trkpt>
      <trkpt lat="45.91895" lon="6.50069">
        <ele>1847.79</ele>
        <time>2022-02-10T11:30:15Z</time>
      </trkpt>
      <trkpt lat="45.91899" lon="6.50077">
        <ele>1850.19</ele>
        <time>2022-02-10T11:30:26Z</time>
      </trkpt>
      <trkpt lat="45.91905" lon="6.50091">
        <ele>1853.08</ele>
        <time>2022-02-10T11:30:44Z</time>
      </trkpt>
      <trkpt lat="45.91894" lon="6.50095">
        <ele>1855.96</ele>
        <time>2022-02-10T11:31:10Z</time>
      </trkpt>
      <trkpt lat="45.91882" lon="6.50088">
        <ele>1859.33</ele>
        <time>2022-02-10T11:31:27Z</time>
      </trkpt>
      <trkpt lat="45.91872" lon="6.50089">
        <ele>1862.21</ele>
        <time>2022-02-10T11:31:44Z</time>
      </trkpt>
      <trkpt lat="45.91863" lon="6.50089">
        <ele>1865.58</ele>
        <time>2022-02-10T11:32:02Z</time>
      </trkpt>
      <trkpt lat="45.91854" lon="6.50084">
        <ele>1868.46</ele>
        <time>2022-02-10T11:32:18Z</time>
      </trkpt>
      <trkpt lat="45.91853" lon="6.50089">
        <ele>1871.82</ele>
        <time>2022-02-10T11:32:36Z</time>
      </trkpt>
      <trkpt lat="45.91857" lon="6.501">
        <ele>1874.71</ele>
        <time>2022-02-10T11:32:54Z</time>
      </trkpt>
      <trkpt lat="45.91862" lon="6.50113">
        <ele>1878.07</ele>
        <time>2022-02-10T11:33:11Z</time>
      </trkpt>
      <trkpt lat="45.91864" lon="6.5012">
        <ele>1879.51</ele>
        <time>2022-02-10T11:33:19Z</time>
      </trkpt>
      <trkpt lat="45.91858" lon="6.5013">
        <ele>1882.4</ele>
        <time>2022-02-10T11:33:41Z</time>
      </trkpt>
      <trkpt lat="45.91855" lon="6.50131">
        <ele>1885.76</ele>
        <time>2022-02-10T11:33:54Z</time>
      </trkpt>
      <trkpt lat="45.91861" lon="6.50142">
        <ele>1888.65</ele>
        <time>2022-02-10T11:34:11Z</time>
      </trkpt>
      <trkpt lat="45.91861" lon="6.50147">
        <ele>1889.61</ele>
        <time>2022-02-10T11:34:16Z</time>
      </trkpt>
      <trkpt lat="45.91849" lon="6.50153">
        <ele>1892.49</ele>
        <time>2022-02-10T11:34:39Z</time>
      </trkpt>
      <trkpt lat="45.91841" lon="6.50151">
        <ele>1895.38</ele>
        <time>2022-02-10T11:34:53Z</time>
      </trkpt>
      <trkpt lat="45.91842" lon="6.50155">
        <ele>1896.82</ele>
        <time>2022-02-10T11:35:02Z</time>
      </trkpt>
      <trkpt lat="45.91844" lon="6.50159">
        <ele>1897.78</ele>
        <time>2022-02-10T11:35:06Z</time>
      </trkpt>
      <trkpt lat="45.91845" lon="6.50159">
        <ele>1897.78</ele>
        <time>2022-02-10T11:35:07Z</time>
      </trkpt>
      <trkpt lat="45.91846" lon="6.5016">
        <ele>1897.78</ele>
        <time>2022-02-10T11:35:08Z</time>
      </trkpt>
      <trkpt lat="45.91846" lon="6.5016">
        <ele>1898.26</ele>
        <time>2022-02-10T11:35:09Z</time>
      </trkpt>
      <trkpt lat="45.91851" lon="6.50167">
        <ele>1900.18</ele>
        <time>2022-02-10T11:35:19Z</time>
      </trkpt>
      <trkpt lat="45.91851" lon="6.5017">
        <ele>1901.14</ele>
        <time>2022-02-10T11:35:24Z</time>
      </trkpt>
      <trkpt lat="45.91841" lon="6.50174">
        <ele>1904.03</ele>
        <time>2022-02-10T11:35:46Z</time>
      </trkpt>
      <trkpt lat="45.91829" lon="6.5017">
        <ele>1907.39</ele>
        <time>2022-02-10T11:36:04Z</time>
      </trkpt>
      <trkpt lat="45.91829" lon="6.50169">
        <ele>1907.87</ele>
        <time>2022-02-10T11:36:06Z</time>
      </trkpt>
      <trkpt lat="45.91829" lon="6.5018">
        <ele>1911.24</ele>
        <time>2022-02-10T11:36:23Z</time>
      </trkpt>
      <trkpt lat="45.91832" lon="6.5019">
        <ele>1914.12</ele>
        <time>2022-02-10T11:36:39Z</time>
      </trkpt>
      <trkpt lat="45.91837" lon="6.50202">
        <ele>1917.01</ele>
        <time>2022-02-10T11:36:55Z</time>
      </trkpt>
      <trkpt lat="45.91842" lon="6.50211">
        <ele>1920.37</ele>
        <time>2022-02-10T11:37:11Z</time>
      </trkpt>
      <trkpt lat="45.91846" lon="6.50218">
        <ele>1923.25</ele>
        <time>2022-02-10T11:37:26Z</time>
      </trkpt>
      <trkpt lat="45.91833" lon="6.50218">
        <ele>1926.62</ele>
        <time>2022-02-10T11:37:51Z</time>
      </trkpt>
      <trkpt lat="45.91819" lon="6.50215">
        <ele>1929.5</ele>
        <time>2022-02-10T11:38:08Z</time>
      </trkpt>
      <trkpt lat="45.91808" lon="6.50212">
        <ele>1932.39</ele>
        <time>2022-02-10T11:38:25Z</time>
      </trkpt>
      <trkpt lat="45.91799" lon="6.50209">
        <ele>1935.75</ele>
        <time>2022-02-10T11:38:41Z</time>
      </trkpt>
      <trkpt lat="45.91792" lon="6.50208">
        <ele>1938.64</ele>
        <time>2022-02-10T11:38:56Z</time>
      </trkpt>
      <trkpt lat="45.91791" lon="6.50216">
        <ele>1942</ele>
        <time>2022-02-10T11:39:11Z</time>
      </trkpt>
      <trkpt lat="45.91796" lon="6.50231">
        <ele>1944.88</ele>
        <time>2022-02-10T11:39:29Z</time>
      </trkpt>
      <trkpt lat="45.91796" lon="6.50232">
        <ele>1944.88</ele>
        <time>2022-02-10T11:39:30Z</time>
      </trkpt>
      <trkpt lat="45.91794" lon="6.50232">
        <ele>1944.88</ele>
        <time>2022-02-10T11:39:32Z</time>
      </trkpt>
      <trkpt lat="45.91786" lon="6.50233">
        <ele>1948.25</ele>
        <time>2022-02-10T11:39:51Z</time>
      </trkpt>
      <trkpt lat="45.91789" lon="6.5024">
        <ele>1950.65</ele>
        <time>2022-02-10T11:40:02Z</time>
      </trkpt>
      <trkpt lat="45.91792" lon="6.50245">
        <ele>1951.61</ele>
        <time>2022-02-10T11:40:09Z</time>
      </trkpt>
      <trkpt lat="45.91799" lon="6.50254">
        <ele>1954.98</ele>
        <time>2022-02-10T11:40:25Z</time>
      </trkpt>
      <trkpt lat="45.91803" lon="6.50263">
        <ele>1957.86</ele>
        <time>2022-02-10T11:40:43Z</time>
      </trkpt>
      <trkpt lat="45.91792" lon="6.50269">
        <ele>1961.23</ele>
        <time>2022-02-10T11:41:04Z</time>
      </trkpt>
      <trkpt lat="45.91783" lon="6.50273">
        <ele>1963.63</ele>
        <time>2022-02-10T11:41:19Z</time>
      </trkpt>
      <trkpt lat="45.91777" lon="6.50276">
        <ele>1966.99</ele>
        <time>2022-02-10T11:41:35Z</time>
      </trkpt>
      <trkpt lat="45.91784" lon="6.50286">
        <ele>1969.88</ele>
        <time>2022-02-10T11:41:51Z</time>
      </trkpt>
      <trkpt lat="45.91791" lon="6.50292">
        <ele>1972.76</ele>
        <time>2022-02-10T11:42:06Z</time>
      </trkpt>
      <trkpt lat="45.91796" lon="6.50298">
        <ele>1974.2</ele>
        <time>2022-02-10T11:42:15Z</time>
      </trkpt>
      <trkpt lat="45.91783" lon="6.50302">
        <ele>1977.57</ele>
        <time>2022-02-10T11:42:38Z</time>
      </trkpt>
      <trkpt lat="45.91775" lon="6.50304">
        <ele>1979.49</ele>
        <time>2022-02-10T11:42:51Z</time>
      </trkpt>
      <trkpt lat="45.91776" lon="6.5031">
        <ele>1982.86</ele>
        <time>2022-02-10T11:43:05Z</time>
      </trkpt>
      <trkpt lat="45.91778" lon="6.50312">
        <ele>1983.34</ele>
        <time>2022-02-10T11:43:07Z</time>
      </trkpt>
      <trkpt lat="45.91779" lon="6.50313">
        <ele>1983.34</ele>
        <time>2022-02-10T11:43:09Z</time>
      </trkpt>
      <trkpt lat="45.91786" lon="6.50317">
        <ele>1986.7</ele>
        <time>2022-02-10T11:43:27Z</time>
      </trkpt>
      <trkpt lat="45.91787" lon="6.50321">
        <ele>1987.18</ele>
        <time>2022-02-10T11:43:30Z</time>
      </trkpt>
      <trkpt lat="45.91779" lon="6.50332">
        <ele>1990.07</ele>
        <time>2022-02-10T11:43:49Z</time>
      </trkpt>
      <trkpt lat="45.91771" lon="6.50338">
        <ele>1993.43</ele>
        <time>2022-02-10T11:44:06Z</time>
      </trkpt>
      <trkpt lat="45.91768" lon="6.50338">
        <ele>1996.32</ele>
        <time>2022-02-10T11:44:22Z</time>
      </trkpt>
      <trkpt lat="45.91777" lon="6.50342">
        <ele>1999.68</ele>
        <time>2022-02-10T11:44:40Z</time>
      </trkpt>
      <trkpt lat="45.91786" lon="6.50346">
        <ele>2002.56</ele>
        <time>2022-02-10T11:44:57Z</time>
      </trkpt>
      <trkpt lat="45.91796" lon="6.50352">
        <ele>2005.93</ele>
        <time>2022-02-10T11:45:17Z</time>
      </trkpt>
      <trkpt lat="45.91791" lon="6.50354">
        <ele>2006.41</ele>
        <time>2022-02-10T11:45:25Z</time>
      </trkpt>
      <trkpt lat="45.9179" lon="6.50355">
        <ele>2006.41</ele>
        <time>2022-02-10T11:45:26Z</time>
      </trkpt>
      <trkpt lat="45.91776" lon="6.50364">
        <ele>2009.77</ele>
        <time>2022-02-10T11:45:49Z</time>
      </trkpt>
      <trkpt lat="45.91767" lon="6.50368">
        <ele>2012.66</ele>
        <time>2022-02-10T11:46:05Z</time>
      </trkpt>
      <trkpt lat="45.91774" lon="6.50376">
        <ele>2016.02</ele>
        <time>2022-02-10T11:46:24Z</time>
      </trkpt>
      <trkpt lat="45.91782" lon="6.50381">
        <ele>2018.91</ele>
        <time>2022-02-10T11:46:39Z</time>
      </trkpt>
      <trkpt lat="45.91779" lon="6.50392">
        <ele>2021.79</ele>
        <time>2022-02-10T11:46:59Z</time>
      </trkpt>
      <trkpt lat="45.91769" lon="6.50398">
        <ele>2025.15</ele>
        <time>2022-02-10T11:47:17Z</time>
      </trkpt>
      <trkpt lat="45.91769" lon="6.50401">
        <ele>2028.04</ele>
        <time>2022-02-10T11:47:33Z</time>
      </trkpt>
      <trkpt lat="45.91777" lon="6.50408">
        <ele>2031.4</ele>
        <time>2022-02-10T11:47:48Z</time>
      </trkpt>
      <trkpt lat="45.91776" lon="6.5042">
        <ele>2034.29</ele>
        <time>2022-02-10T11:48:08Z</time>
      </trkpt>
      <trkpt lat="45.91767" lon="6.50427">
        <ele>2037.17</ele>
        <time>2022-02-10T11:48:25Z</time>
      </trkpt>
      <trkpt lat="45.91758" lon="6.50431">
        <ele>2040.54</ele>
        <time>2022-02-10T11:48:41Z</time>
      </trkpt>
      <trkpt lat="45.9176" lon="6.50437">
        <ele>2043.42</ele>
        <time>2022-02-10T11:48:59Z</time>
      </trkpt>
      <trkpt lat="45.91766" lon="6.50447">
        <ele>2046.78</ele>
        <time>2022-02-10T11:49:15Z</time>
      </trkpt>
      <trkpt lat="45.91772" lon="6.50455">
        <ele>2049.67</ele>
        <time>2022-02-10T11:49:31Z</time>
      </trkpt>
      <trkpt lat="45.91772" lon="6.50454">
        <ele>2050.15</ele>
        <time>2022-02-10T11:49:32Z</time>
      </trkpt>
      <trkpt lat="45.91761" lon="6.50464">
        <ele>2053.03</ele>
        <time>2022-02-10T11:49:54Z</time>
      </trkpt>
      <trkpt lat="45.9175" lon="6.50465">
        <ele>2056.4</ele>
        <time>2022-02-10T11:50:15Z</time>
      </trkpt>
      <trkpt lat="45.91754" lon="6.50476">
        <ele>2059.28</ele>
        <time>2022-02-10T11:50:30Z</time>
      </trkpt>
      <trkpt lat="45.91751" lon="6.50482">
        <ele>2060.72</ele>
        <time>2022-02-10T11:50:41Z</time>
      </trkpt>
      <trkpt lat="45.9175" lon="6.50482">
        <ele>2060.72</ele>
        <time>2022-02-10T11:50:42Z</time>
      </trkpt>
      <trkpt lat="45.91741" lon="6.50477">
        <ele>2064.09</ele>
        <time>2022-02-10T11:51:01Z</time>
      </trkpt>
      <trkpt lat="45.91732" lon="6.50482">
        <ele>2066.97</ele>
        <time>2022-02-10T11:51:20Z</time>
      </trkpt>
      <trkpt lat="45.91727" lon="6.50493">
        <ele>2069.86</ele>
        <time>2022-02-10T11:51:37Z</time>
      </trkpt>
      <trkpt lat="45.91734" lon="6.50502">
        <ele>2073.22</ele>
        <time>2022-02-10T11:51:55Z</time>
      </trkpt>
      <trkpt lat="45.91735" lon="6.50503">
        <ele>2073.22</ele>
        <time>2022-02-10T11:51:57Z</time>
      </trkpt>
      <trkpt lat="45.91738" lon="6.50505">
        <ele>2074.18</ele>
        <time>2022-02-10T11:52:01Z</time>
      </trkpt>
      <trkpt lat="45.91751" lon="6.50516">
        <ele>2077.07</ele>
        <time>2022-02-10T11:52:25Z</time>
      </trkpt>
      <trkpt lat="45.91763" lon="6.50525">
        <ele>2080.43</ele>
        <time>2022-02-10T11:52:44Z</time>
      </trkpt>
      <trkpt lat="45.91774" lon="6.50523">
        <ele>2083.31</ele>
        <time>2022-02-10T11:53:00Z</time>
      </trkpt>
      <trkpt lat="45.91783" lon="6.50522">
        <ele>2085.24</ele>
        <time>2022-02-10T11:53:11Z</time>
      </trkpt>
      <trkpt lat="45.91797" lon="6.50525">
        <ele>2088.12</ele>
        <time>2022-02-10T11:53:31Z</time>
      </trkpt>
      <trkpt lat="45.918" lon="6.50527">
        <ele>2091.49</ele>
        <time>2022-02-10T11:53:50Z</time>
      </trkpt>
      <trkpt lat="45.9179" lon="6.50536">
        <ele>2094.37</ele>
        <time>2022-02-10T11:54:09Z</time>
      </trkpt>
      <trkpt lat="45.91783" lon="6.50543">
        <ele>2097.73</ele>
        <time>2022-02-10T11:54:24Z</time>
      </trkpt>
      <trkpt lat="45.9178" lon="6.50548">
        <ele>2100.62</ele>
        <time>2022-02-10T11:54:41Z</time>
      </trkpt>
      <trkpt lat="45.91795" lon="6.5055">
        <ele>2103.98</ele>
        <time>2022-02-10T11:55:02Z</time>
      </trkpt>
      <trkpt lat="45.9179" lon="6.50565">
        <ele>2106.87</ele>
        <time>2022-02-10T11:55:19Z</time>
      </trkpt>
      <trkpt lat="45.91782" lon="6.50573">
        <ele>2108.79</ele>
        <time>2022-02-10T11:55:32Z</time>
      </trkpt>
      <trkpt lat="45.91781" lon="6.50573">
        <ele>2112.15</ele>
        <time>2022-02-10T11:55:51Z</time>
      </trkpt>
      <trkpt lat="45.91785" lon="6.50578">
        <ele>2114.08</ele>
        <time>2022-02-10T11:56:05Z</time>
      </trkpt>
      <trkpt lat="45.91793" lon="6.50582">
        <ele>2116.96</ele>
        <time>2022-02-10T11:56:23Z</time>
      </trkpt>
      <trkpt lat="45.9179" lon="6.50588">
        <ele>2118.4</ele>
        <time>2022-02-10T11:56:31Z</time>
      </trkpt>
      <trkpt lat="45.91789" lon="6.5059">
        <ele>2118.4</ele>
        <time>2022-02-10T11:56:33Z</time>
      </trkpt>
      <trkpt lat="45.91784" lon="6.50596">
        <ele>2121.77</ele>
        <time>2022-02-10T11:56:49Z</time>
      </trkpt>
      <trkpt lat="45.9179" lon="6.50597">
        <ele>2124.65</ele>
        <time>2022-02-10T11:57:08Z</time>
      </trkpt>
      <trkpt lat="45.91787" lon="6.50603">
        <ele>2126.09</ele>
        <time>2022-02-10T11:57:16Z</time>
      </trkpt>
      <trkpt lat="45.91782" lon="6.5061">
        <ele>2128.98</ele>
        <time>2022-02-10T11:57:35Z</time>
      </trkpt>
      <trkpt lat="45.91791" lon="6.5061">
        <ele>2132.34</ele>
        <time>2022-02-10T11:57:52Z</time>
      </trkpt>
      <trkpt lat="45.91793" lon="6.50612">
        <ele>2132.82</ele>
        <time>2022-02-10T11:57:54Z</time>
      </trkpt>
      <trkpt lat="45.91787" lon="6.50624">
        <ele>2135.71</ele>
        <time>2022-02-10T11:58:13Z</time>
      </trkpt>
      <trkpt lat="45.91783" lon="6.50636">
        <ele>2139.07</ele>
        <time>2022-02-10T11:58:29Z</time>
      </trkpt>
      <trkpt lat="45.91781" lon="6.50637">
        <ele>2139.55</ele>
        <time>2022-02-10T11:58:31Z</time>
      </trkpt>
      <trkpt lat="45.91771" lon="6.50646">
        <ele>2142.44</ele>
        <time>2022-02-10T11:58:49Z</time>
      </trkpt>
      <trkpt lat="45.91771" lon="6.50647">
        <ele>2143.4</ele>
        <time>2022-02-10T11:58:54Z</time>
      </trkpt>
      <trkpt lat="45.91782" lon="6.50644">
        <ele>2146.76</ele>
        <time>2022-02-10T11:59:17Z</time>
      </trkpt>
      <trkpt lat="45.9179" lon="6.50646">
        <ele>2149.65</ele>
        <time>2022-02-10T11:59:39Z</time>
      </trkpt>
      <trkpt lat="45.91788" lon="6.5065">
        <ele>2153.01</ele>
        <time>2022-02-10T11:59:57Z</time>
      </trkpt>
      <trkpt lat="45.91798" lon="6.50652">
        <ele>2155.89</ele>
        <time>2022-02-10T12:00:18Z</time>
      </trkpt>
      <trkpt lat="45.91791" lon="6.5066">
        <ele>2158.78</ele>
        <time>2022-02-10T12:00:36Z</time>
      </trkpt>
      <trkpt lat="45.918" lon="6.50662">
        <ele>2161.66</ele>
        <time>2022-02-10T12:00:53Z</time>
      </trkpt>
      <trkpt lat="45.91794" lon="6.50673">
        <ele>2164.06</ele>
        <time>2022-02-10T12:01:09Z</time>
      </trkpt>
      <trkpt lat="45.91793" lon="6.50674">
        <ele>2164.06</ele>
        <time>2022-02-10T12:01:11Z</time>
      </trkpt>
      <trkpt lat="45.91792" lon="6.50676">
        <ele>2164.55</ele>
        <time>2022-02-10T12:01:13Z</time>
      </trkpt>
      <trkpt lat="45.91794" lon="6.50677">
        <ele>2167.91</ele>
        <time>2022-02-10T12:01:28Z</time>
      </trkpt>
      <trkpt lat="45.91801" lon="6.50678">
        <ele>2170.31</ele>
        <time>2022-02-10T12:01:40Z</time>
      </trkpt>
      <trkpt lat="45.91798" lon="6.50684">
        <ele>2170.79</ele>
        <time>2022-02-10T12:01:49Z</time>
      </trkpt>
      <trkpt lat="45.91796" lon="6.50688">
        <ele>2174.16</ele>
        <time>2022-02-10T12:02:04Z</time>
      </trkpt>
      <trkpt lat="45.91807" lon="6.50689">
        <ele>2177.04</ele>
        <time>2022-02-10T12:02:20Z</time>
      </trkpt>
      <trkpt lat="45.91808" lon="6.50691">
        <ele>2177.52</ele>
        <time>2022-02-10T12:02:21Z</time>
      </trkpt>
      <trkpt lat="45.91797" lon="6.50703">
        <ele>2180.41</ele>
        <time>2022-02-10T12:02:44Z</time>
      </trkpt>
      <trkpt lat="45.91798" lon="6.50706">
        <ele>2183.77</ele>
        <time>2022-02-10T12:03:00Z</time>
      </trkpt>
      <trkpt lat="45.91804" lon="6.50708">
        <ele>2184.73</ele>
        <time>2022-02-10T12:03:06Z</time>
      </trkpt>
      <trkpt lat="45.91804" lon="6.5071">
        <ele>2185.21</ele>
        <time>2022-02-10T12:03:09Z</time>
      </trkpt>
      <trkpt lat="45.91804" lon="6.50711">
        <ele>2185.21</ele>
        <time>2022-02-10T12:03:10Z</time>
      </trkpt>
      <trkpt lat="45.91795" lon="6.50722">
        <ele>2188.1</ele>
        <time>2022-02-10T12:03:29Z</time>
      </trkpt>
      <trkpt lat="45.91801" lon="6.50724">
        <ele>2191.46</ele>
        <time>2022-02-10T12:03:46Z</time>
      </trkpt>
      <trkpt lat="45.91797" lon="6.50732">
        <ele>2194.83</ele>
        <time>2022-02-10T12:04:04Z</time>
      </trkpt>
      <trkpt lat="45.91791" lon="6.50741">
        <ele>2197.71</ele>
        <time>2022-02-10T12:04:24Z</time>
      </trkpt>
      <trkpt lat="45.91801" lon="6.50744">
        <ele>2200.59</ele>
        <time>2022-02-10T12:04:42Z</time>
      </trkpt>
      <trkpt lat="45.91792" lon="6.50757">
        <ele>2203.96</ele>
        <time>2022-02-10T12:05:01Z</time>
      </trkpt>
      <trkpt lat="45.91795" lon="6.50755">
        <ele>2206.84</ele>
        <time>2022-02-10T12:05:16Z</time>
      </trkpt>
      <trkpt lat="45.9179" lon="6.50765">
        <ele>2209.73</ele>
        <time>2022-02-10T12:05:37Z</time>
      </trkpt>
      <trkpt lat="45.9179" lon="6.50766">
        <ele>2209.73</ele>
        <time>2022-02-10T12:05:38Z</time>
      </trkpt>
      <trkpt lat="45.91789" lon="6.50767">
        <ele>2210.21</ele>
        <time>2022-02-10T12:05:39Z</time>
      </trkpt>
      <trkpt lat="45.91788" lon="6.50767">
        <ele>2210.21</ele>
        <time>2022-02-10T12:05:40Z</time>
      </trkpt>
      <trkpt lat="45.91793" lon="6.50768">
        <ele>2213.09</ele>
        <time>2022-02-10T12:05:53Z</time>
      </trkpt>
      <trkpt lat="45.91795" lon="6.5077">
        <ele>2213.57</ele>
        <time>2022-02-10T12:05:55Z</time>
      </trkpt>
      <trkpt lat="45.91792" lon="6.50775">
        <ele>2215.5</ele>
        <time>2022-02-10T12:06:10Z</time>
      </trkpt>
      <trkpt lat="45.91798" lon="6.50775">
        <ele>2217.42</ele>
        <time>2022-02-10T12:06:18Z</time>
      </trkpt>
      <trkpt lat="45.91792" lon="6.50785">
        <ele>2219.82</ele>
        <time>2022-02-10T12:06:34Z</time>
      </trkpt>
      <trkpt lat="45.91791" lon="6.50786">
        <ele>2219.82</ele>
        <time>2022-02-10T12:06:35Z</time>
      </trkpt>
      <trkpt lat="45.91784" lon="6.50796">
        <ele>2223.19</ele>
        <time>2022-02-10T12:06:50Z</time>
      </trkpt>
      <trkpt lat="45.91792" lon="6.50793">
        <ele>2226.07</ele>
        <time>2022-02-10T12:07:08Z</time>
      </trkpt>
      <trkpt lat="45.91794" lon="6.50794">
        <ele>2226.07</ele>
        <time>2022-02-10T12:07:09Z</time>
      </trkpt>
      <trkpt lat="45.91784" lon="6.50804">
        <ele>2229.43</ele>
        <time>2022-02-10T12:07:32Z</time>
      </trkpt>
      <trkpt lat="45.91789" lon="6.50807">
        <ele>2232.32</ele>
        <time>2022-02-10T12:07:48Z</time>
      </trkpt>
      <trkpt lat="45.91791" lon="6.50809">
        <ele>2232.8</ele>
        <time>2022-02-10T12:07:51Z</time>
      </trkpt>
      <trkpt lat="45.91783" lon="6.50818">
        <ele>2236.16</ele>
        <time>2022-02-10T12:08:12Z</time>
      </trkpt>
      <trkpt lat="45.91792" lon="6.50818">
        <ele>2239.05</ele>
        <time>2022-02-10T12:08:27Z</time>
      </trkpt>
      <trkpt lat="45.91784" lon="6.50828">
        <ele>2242.41</ele>
        <time>2022-02-10T12:08:48Z</time>
      </trkpt>
      <trkpt lat="45.9179" lon="6.5083">
        <ele>2245.3</ele>
        <time>2022-02-10T12:09:02Z</time>
      </trkpt>
      <trkpt lat="45.9179" lon="6.50837">
        <ele>2248.18</ele>
        <time>2022-02-10T12:09:21Z</time>
      </trkpt>
      <trkpt lat="45.91783" lon="6.50844">
        <ele>2251.54</ele>
        <time>2022-02-10T12:09:37Z</time>
      </trkpt>
      <trkpt lat="45.91791" lon="6.50846">
        <ele>2254.43</ele>
        <time>2022-02-10T12:09:56Z</time>
      </trkpt>
      <trkpt lat="45.91801" lon="6.50847">
        <ele>2257.79</ele>
        <time>2022-02-10T12:10:12Z</time>
      </trkpt>
      <trkpt lat="45.91795" lon="6.50858">
        <ele>2260.68</ele>
        <time>2022-02-10T12:10:34Z</time>
      </trkpt>
      <trkpt lat="45.91788" lon="6.50868">
        <ele>2263.56</ele>
        <time>2022-02-10T12:10:50Z</time>
      </trkpt>
      <trkpt lat="45.91791" lon="6.5087">
        <ele>2266.93</ele>
        <time>2022-02-10T12:11:05Z</time>
      </trkpt>
      <trkpt lat="45.918" lon="6.50875">
        <ele>2270.29</ele>
        <time>2022-02-10T12:11:22Z</time>
      </trkpt>
      <trkpt lat="45.91805" lon="6.50876">
        <ele>2271.73</ele>
        <time>2022-02-10T12:11:29Z</time>
      </trkpt>
      <trkpt lat="45.91813" lon="6.50874">
        <ele>2274.62</ele>
        <time>2022-02-10T12:11:42Z</time>
      </trkpt>
      <trkpt lat="45.9182" lon="6.50873">
        <ele>2276.54</ele>
        <time>2022-02-10T12:11:53Z</time>
      </trkpt>
      <trkpt lat="45.91815" lon="6.50888">
        <ele>2279.9</ele>
        <time>2022-02-10T12:12:13Z</time>
      </trkpt>
      <trkpt lat="45.91814" lon="6.50895">
        <ele>2282.79</ele>
        <time>2022-02-10T12:12:26Z</time>
      </trkpt>
      <trkpt lat="45.9181" lon="6.50904">
        <ele>2286.15</ele>
        <time>2022-02-10T12:12:43Z</time>
      </trkpt>
      <trkpt lat="45.91804" lon="6.50912">
        <ele>2289.04</ele>
        <time>2022-02-10T12:12:56Z</time>
      </trkpt>
      <trkpt lat="45.91799" lon="6.50923">
        <ele>2292.4</ele>
        <time>2022-02-10T12:13:09Z</time>
      </trkpt>
      <trkpt lat="45.91794" lon="6.50925">
        <ele>2293.84</ele>
        <time>2022-02-10T12:13:15Z</time>
      </trkpt>
      <trkpt lat="45.91787" lon="6.50931">
        <ele>2296.73</ele>
        <time>2022-02-10T12:13:28Z</time>
      </trkpt>
      <trkpt lat="45.91785" lon="6.50934">
        <ele>2299.61</ele>
        <time>2022-02-10T12:13:43Z</time>
      </trkpt>
      <trkpt lat="45.91791" lon="6.50939">
        <ele>2302.98</ele>
        <time>2022-02-10T12:13:56Z</time>
      </trkpt>
      <trkpt lat="45.91789" lon="6.50942">
        <ele>2304.42</ele>
        <time>2022-02-10T12:14:07Z</time>
      </trkpt>
      <trkpt lat="45.91795" lon="6.50943">
        <ele>2306.34</ele>
        <time>2022-02-10T12:14:16Z</time>
      </trkpt>
      <trkpt lat="45.91803" lon="6.50944">
        <ele>2309.22</ele>
        <time>2022-02-10T12:14:28Z</time>
      </trkpt>
      <trkpt lat="45.91801" lon="6.5095">
        <ele>2311.63</ele>
        <time>2022-02-10T12:14:35Z</time>
      </trkpt>
      <trkpt lat="45.918" lon="6.50951">
        <ele>2311.63</ele>
        <time>2022-02-10T12:14:36Z</time>
      </trkpt>
      <trkpt lat="45.91791" lon="6.50963">
        <ele>2314.99</ele>
        <time>2022-02-10T12:14:53Z</time>
      </trkpt>
      <trkpt lat="45.91796" lon="6.50963">
        <ele>2316.91</ele>
        <time>2022-02-10T12:15:06Z</time>
      </trkpt>
      <trkpt lat="45.918" lon="6.50965">
        <ele>2317.88</ele>
        <time>2022-02-10T12:15:33Z</time>
      </trkpt>
      <trkpt lat="45.91799" lon="6.50966">
        <ele>2318.36</ele>
        <time>2022-02-10T12:15:34Z</time>
      </trkpt>
      <trkpt lat="45.91799" lon="6.50963">
        <ele>2318.36</ele>
        <time>2022-02-10T12:17:58Z</time>
      </trkpt>
      <trkpt lat="45.91801" lon="6.50963">
        <ele>2318.84</ele>
        <time>2022-02-10T12:19:22Z</time>
      </trkpt>
      <trkpt lat="45.91799" lon="6.50968">
        <ele>2318.36</ele>
        <time>2022-02-10T12:20:15Z</time>
      </trkpt>
      <trkpt lat="45.91801" lon="6.50962">
        <ele>2318.84</ele>
        <time>2022-02-10T12:20:31Z</time>
      </trkpt>
      <trkpt lat="45.918" lon="6.50965">
        <ele>2317.88</ele>
        <time>2022-02-10T12:21:48Z</time>
      </trkpt>
      <trkpt lat="45.918" lon="6.50965">
        <ele>2318.84</ele>
        <time>2022-02-10T12:22:03Z</time>
      </trkpt>
      <trkpt lat="45.918" lon="6.50964">
        <ele>2318.84</ele>
        <time>2022-02-10T12:22:40Z</time>
      </trkpt>
      <trkpt lat="45.91798" lon="6.50965">
        <ele>2318.84</ele>
        <time>2022-02-10T12:23:36Z</time>
      </trkpt>
      <trkpt lat="45.91799" lon="6.50963">
        <ele>2319.32</ele>
        <time>2022-02-10T12:23:42Z</time>
      </trkpt>
      <trkpt lat="45.918" lon="6.50961">
        <ele>2319.32</ele>
        <time>2022-02-10T12:23:48Z</time>
      </trkpt>
      <trkpt lat="45.91801" lon="6.50962">
        <ele>2319.32</ele>
        <time>2022-02-10T12:23:59Z</time>
      </trkpt>
      <trkpt lat="45.91804" lon="6.50967">
        <ele>2319.32</ele>
        <time>2022-02-10T12:24:13Z</time>
      </trkpt>
      <trkpt lat="45.91805" lon="6.50968">
        <ele>2318.84</ele>
        <time>2022-02-10T12:24:14Z</time>
      </trkpt>
      <trkpt lat="45.91807" lon="6.50968">
        <ele>2318.36</ele>
        <time>2022-02-10T12:24:15Z</time>
      </trkpt>
      <trkpt lat="45.91809" lon="6.50968">
        <ele>2317.88</ele>
        <time>2022-02-10T12:24:16Z</time>
      </trkpt>
      <trkpt lat="45.91811" lon="6.50968">
        <ele>2317.4</ele>
        <time>2022-02-10T12:24:17Z</time>
      </trkpt>
      <trkpt lat="45.91814" lon="6.50967">
        <ele>2316.43</ele>
        <time>2022-02-10T12:24:18Z</time>
      </trkpt>
      <trkpt lat="45.91816" lon="6.50964">
        <ele>2315.95</ele>
        <time>2022-02-10T12:24:19Z</time>
      </trkpt>
      <trkpt lat="45.91817" lon="6.50959">
        <ele>2314.03</ele>
        <time>2022-02-10T12:24:20Z</time>
      </trkpt>
      <trkpt lat="45.91819" lon="6.50954">
        <ele>2312.59</ele>
        <time>2022-02-10T12:24:21Z</time>
      </trkpt>
      <trkpt lat="45.91825" lon="6.50949">
        <ele>2311.15</ele>
        <time>2022-02-10T12:24:22Z</time>
      </trkpt>
      <trkpt lat="45.91829" lon="6.5095">
        <ele>2309.22</ele>
        <time>2022-02-10T12:24:23Z</time>
      </trkpt>
      <trkpt lat="45.91833" lon="6.50954">
        <ele>2307.3</ele>
        <time>2022-02-10T12:24:24Z</time>
      </trkpt>
      <trkpt lat="45.91837" lon="6.50956">
        <ele>2305.86</ele>
        <time>2022-02-10T12:24:25Z</time>
      </trkpt>
      <trkpt lat="45.91839" lon="6.50952">
        <ele>2304.9</ele>
        <time>2022-02-10T12:24:26Z</time>
      </trkpt>
      <trkpt lat="45.91843" lon="6.50947">
        <ele>2302.49</ele>
        <time>2022-02-10T12:24:27Z</time>
      </trkpt>
      <trkpt lat="45.91847" lon="6.50946">
        <ele>2301.53</ele>
        <time>2022-02-10T12:24:28Z</time>
      </trkpt>
      <trkpt lat="45.91851" lon="6.50946">
        <ele>2299.13</ele>
        <time>2022-02-10T12:24:29Z</time>
      </trkpt>
      <trkpt lat="45.9186" lon="6.50945">
        <ele>2294.8</ele>
        <time>2022-02-10T12:24:31Z</time>
      </trkpt>
      <trkpt lat="45.91865" lon="6.5094">
        <ele>2292.4</ele>
        <time>2022-02-10T12:24:32Z</time>
      </trkpt>
      <trkpt lat="45.91869" lon="6.50938">
        <ele>2289.52</ele>
        <time>2022-02-10T12:24:33Z</time>
      </trkpt>
      <trkpt lat="45.91874" lon="6.50938">
        <ele>2287.59</ele>
        <time>2022-02-10T12:24:34Z</time>
      </trkpt>
      <trkpt lat="45.91879" lon="6.50936">
        <ele>2285.19</ele>
        <time>2022-02-10T12:24:35Z</time>
      </trkpt>
      <trkpt lat="45.91884" lon="6.5093">
        <ele>2282.79</ele>
        <time>2022-02-10T12:24:36Z</time>
      </trkpt>
      <trkpt lat="45.91888" lon="6.50929">
        <ele>2280.38</ele>
        <time>2022-02-10T12:24:37Z</time>
      </trkpt>
      <trkpt lat="45.91893" lon="6.5093">
        <ele>2277.5</ele>
        <time>2022-02-10T12:24:38Z</time>
      </trkpt>
      <trkpt lat="45.919" lon="6.50928">
        <ele>2275.58</ele>
        <time>2022-02-10T12:24:39Z</time>
      </trkpt>
      <trkpt lat="45.91906" lon="6.50924">
        <ele>2273.17</ele>
        <time>2022-02-10T12:24:40Z</time>
      </trkpt>
      <trkpt lat="45.91911" lon="6.50924">
        <ele>2270.29</ele>
        <time>2022-02-10T12:24:41Z</time>
      </trkpt>
      <trkpt lat="45.91921" lon="6.50921">
        <ele>2265</ele>
        <time>2022-02-10T12:24:43Z</time>
      </trkpt>
      <trkpt lat="45.91926" lon="6.50917">
        <ele>2262.6</ele>
        <time>2022-02-10T12:24:44Z</time>
      </trkpt>
      <trkpt lat="45.9193" lon="6.50916">
        <ele>2260.2</ele>
        <time>2022-02-10T12:24:45Z</time>
      </trkpt>
      <trkpt lat="45.91935" lon="6.50916">
        <ele>2256.83</ele>
        <time>2022-02-10T12:24:46Z</time>
      </trkpt>
      <trkpt lat="45.91939" lon="6.50912">
        <ele>2255.39</ele>
        <time>2022-02-10T12:24:47Z</time>
      </trkpt>
      <trkpt lat="45.91945" lon="6.50908">
        <ele>2252.99</ele>
        <time>2022-02-10T12:24:48Z</time>
      </trkpt>
      <trkpt lat="45.9195" lon="6.50908">
        <ele>2249.62</ele>
        <time>2022-02-10T12:24:49Z</time>
      </trkpt>
      <trkpt lat="45.91953" lon="6.5091">
        <ele>2247.22</ele>
        <time>2022-02-10T12:24:50Z</time>
      </trkpt>
      <trkpt lat="45.91958" lon="6.50906">
        <ele>2244.82</ele>
        <time>2022-02-10T12:24:51Z</time>
      </trkpt>
      <trkpt lat="45.91958" lon="6.50902">
        <ele>2242.89</ele>
        <time>2022-02-10T12:24:52Z</time>
      </trkpt>
      <trkpt lat="45.9196" lon="6.509">
        <ele>2240.49</ele>
        <time>2022-02-10T12:24:53Z</time>
      </trkpt>
      <trkpt lat="45.91961" lon="6.509">
        <ele>2238.57</ele>
        <time>2022-02-10T12:24:54Z</time>
      </trkpt>
      <trkpt lat="45.91962" lon="6.509">
        <ele>2237.61</ele>
        <time>2022-02-10T12:24:55Z</time>
      </trkpt>
      <trkpt lat="45.91964" lon="6.50897">
        <ele>2236.16</ele>
        <time>2022-02-10T12:24:56Z</time>
      </trkpt>
      <trkpt lat="45.91965" lon="6.50893">
        <ele>2235.2</ele>
        <time>2022-02-10T12:24:57Z</time>
      </trkpt>
      <trkpt lat="45.91969" lon="6.50888">
        <ele>2233.76</ele>
        <time>2022-02-10T12:24:58Z</time>
      </trkpt>
      <trkpt lat="45.91971" lon="6.50888">
        <ele>2231.84</ele>
        <time>2022-02-10T12:24:59Z</time>
      </trkpt>
      <trkpt lat="45.91973" lon="6.5089">
        <ele>2230.4</ele>
        <time>2022-02-10T12:25:00Z</time>
      </trkpt>
      <trkpt lat="45.91976" lon="6.50887">
        <ele>2228.95</ele>
        <time>2022-02-10T12:25:01Z</time>
      </trkpt>
      <trkpt lat="45.91977" lon="6.50885">
        <ele>2227.99</ele>
        <time>2022-02-10T12:25:02Z</time>
      </trkpt>
      <trkpt lat="45.91982" lon="6.50876">
        <ele>2225.59</ele>
        <time>2022-02-10T12:25:03Z</time>
      </trkpt>
      <trkpt lat="45.91984" lon="6.50875">
        <ele>2224.15</ele>
        <time>2022-02-10T12:25:04Z</time>
      </trkpt>
      <trkpt lat="45.91985" lon="6.50875">
        <ele>2222.22</ele>
        <time>2022-02-10T12:25:05Z</time>
      </trkpt>
      <trkpt lat="45.91986" lon="6.50877">
        <ele>2220.78</ele>
        <time>2022-02-10T12:25:06Z</time>
      </trkpt>
      <trkpt lat="45.91988" lon="6.50877">
        <ele>2219.82</ele>
        <time>2022-02-10T12:25:07Z</time>
      </trkpt>
      <trkpt lat="45.9199" lon="6.50876">
        <ele>2218.38</ele>
        <time>2022-02-10T12:25:08Z</time>
      </trkpt>
      <trkpt lat="45.91991" lon="6.50876">
        <ele>2216.94</ele>
        <time>2022-02-10T12:25:09Z</time>
      </trkpt>
      <trkpt lat="45.91994" lon="6.50876">
        <ele>2215.5</ele>
        <time>2022-02-10T12:25:10Z</time>
      </trkpt>
      <trkpt lat="45.91995" lon="6.50875">
        <ele>2214.05</ele>
        <time>2022-02-10T12:25:11Z</time>
      </trkpt>
      <trkpt lat="45.91995" lon="6.50874">
        <ele>2212.61</ele>
        <time>2022-02-10T12:25:12Z</time>
      </trkpt>
      <trkpt lat="45.91995" lon="6.50873">
        <ele>2211.65</ele>
        <time>2022-02-10T12:25:13Z</time>
      </trkpt>
      <trkpt lat="45.91996" lon="6.5087">
        <ele>2210.69</ele>
        <time>2022-02-10T12:25:14Z</time>
      </trkpt>
      <trkpt lat="45.91999" lon="6.50866">
        <ele>2210.21</ele>
        <time>2022-02-10T12:25:15Z</time>
      </trkpt>
      <trkpt lat="45.92001" lon="6.50865">
        <ele>2208.77</ele>
        <time>2022-02-10T12:25:16Z</time>
      </trkpt>
      <trkpt lat="45.92007" lon="6.50857">
        <ele>2204.92</ele>
        <time>2022-02-10T12:25:19Z</time>
      </trkpt>
      <trkpt lat="45.92007" lon="6.50848">
        <ele>2202.04</ele>
        <time>2022-02-10T12:25:24Z</time>
      </trkpt>
      <trkpt lat="45.92004" lon="6.50841">
        <ele>2201.08</ele>
        <time>2022-02-10T12:25:31Z</time>
      </trkpt>
      <trkpt lat="45.92003" lon="6.50844">
        <ele>2200.59</ele>
        <time>2022-02-10T12:25:34Z</time>
      </trkpt>
      <trkpt lat="45.92005" lon="6.50844">
        <ele>2200.59</ele>
        <time>2022-02-10T12:25:35Z</time>
      </trkpt>
      <trkpt lat="45.92004" lon="6.5085">
        <ele>2199.63</ele>
        <time>2022-02-10T12:25:36Z</time>
      </trkpt>
      <trkpt lat="45.92006" lon="6.50849">
        <ele>2198.19</ele>
        <time>2022-02-10T12:25:37Z</time>
      </trkpt>
      <trkpt lat="45.92007" lon="6.50848">
        <ele>2196.75</ele>
        <time>2022-02-10T12:25:38Z</time>
      </trkpt>
      <trkpt lat="45.92016" lon="6.50838">
        <ele>2193.87</ele>
        <time>2022-02-10T12:25:42Z</time>
      </trkpt>
      <trkpt lat="45.92017" lon="6.50839">
        <ele>2192.42</ele>
        <time>2022-02-10T12:25:43Z</time>
      </trkpt>
      <trkpt lat="45.92017" lon="6.50841">
        <ele>2190.98</ele>
        <time>2022-02-10T12:25:44Z</time>
      </trkpt>
      <trkpt lat="45.92017" lon="6.50842">
        <ele>2190.5</ele>
        <time>2022-02-10T12:25:45Z</time>
      </trkpt>
      <trkpt lat="45.92018" lon="6.50843">
        <ele>2190.02</ele>
        <time>2022-02-10T12:25:46Z</time>
      </trkpt>
      <trkpt lat="45.92012" lon="6.50847">
        <ele>2187.62</ele>
        <time>2022-02-10T12:26:00Z</time>
      </trkpt>
      <trkpt lat="45.92014" lon="6.50846">
        <ele>2187.62</ele>
        <time>2022-02-10T12:26:06Z</time>
      </trkpt>
      <trkpt lat="45.92015" lon="6.50847">
        <ele>2187.62</ele>
        <time>2022-02-10T12:26:07Z</time>
      </trkpt>
      <trkpt lat="45.92016" lon="6.50848">
        <ele>2187.62</ele>
        <time>2022-02-10T12:26:08Z</time>
      </trkpt>
      <trkpt lat="45.92016" lon="6.50849">
        <ele>2186.66</ele>
        <time>2022-02-10T12:26:09Z</time>
      </trkpt>
      <trkpt lat="45.92017" lon="6.50854">
        <ele>2185.21</ele>
        <time>2022-02-10T12:26:12Z</time>
      </trkpt>
      <trkpt lat="45.92019" lon="6.50855">
        <ele>2184.25</ele>
        <time>2022-02-10T12:26:13Z</time>
      </trkpt>
      <trkpt lat="45.92019" lon="6.50856">
        <ele>2183.77</ele>
        <time>2022-02-10T12:26:14Z</time>
      </trkpt>
      <trkpt lat="45.9202" lon="6.50861">
        <ele>2181.37</ele>
        <time>2022-02-10T12:26:17Z</time>
      </trkpt>
      <trkpt lat="45.9202" lon="6.50863">
        <ele>2180.41</ele>
        <time>2022-02-10T12:26:18Z</time>
      </trkpt>
      <trkpt lat="45.92022" lon="6.50866">
        <ele>2179.93</ele>
        <time>2022-02-10T12:26:19Z</time>
      </trkpt>
      <trkpt lat="45.92024" lon="6.50868">
        <ele>2178.48</ele>
        <time>2022-02-10T12:26:20Z</time>
      </trkpt>
      <trkpt lat="45.92026" lon="6.50872">
        <ele>2176.56</ele>
        <time>2022-02-10T12:26:21Z</time>
      </trkpt>
      <trkpt lat="45.92026" lon="6.50876">
        <ele>2174.64</ele>
        <time>2022-02-10T12:26:22Z</time>
      </trkpt>
      <trkpt lat="45.92025" lon="6.50879">
        <ele>2173.2</ele>
        <time>2022-02-10T12:26:23Z</time>
      </trkpt>
      <trkpt lat="45.92023" lon="6.50882">
        <ele>2171.76</ele>
        <time>2022-02-10T12:26:24Z</time>
      </trkpt>
      <trkpt lat="45.92022" lon="6.50884">
        <ele>2170.79</ele>
        <time>2022-02-10T12:26:25Z</time>
      </trkpt>
      <trkpt lat="45.92019" lon="6.50889">
        <ele>2170.31</ele>
        <time>2022-02-10T12:26:26Z</time>
      </trkpt>
      <trkpt lat="45.92017" lon="6.50892">
        <ele>2169.83</ele>
        <time>2022-02-10T12:26:27Z</time>
      </trkpt>
      <trkpt lat="45.92011" lon="6.50911">
        <ele>2166.95</ele>
        <time>2022-02-10T12:26:32Z</time>
      </trkpt>
      <trkpt lat="45.92011" lon="6.50917">
        <ele>2166.47</ele>
        <time>2022-02-10T12:26:33Z</time>
      </trkpt>
      <trkpt lat="45.92015" lon="6.50918">
        <ele>2165.51</ele>
        <time>2022-02-10T12:26:34Z</time>
      </trkpt>
      <trkpt lat="45.9202" lon="6.50921">
        <ele>2164.06</ele>
        <time>2022-02-10T12:26:35Z</time>
      </trkpt>
      <trkpt lat="45.92022" lon="6.50928">
        <ele>2161.66</ele>
        <time>2022-02-10T12:26:36Z</time>
      </trkpt>
      <trkpt lat="45.92023" lon="6.50935">
        <ele>2159.26</ele>
        <time>2022-02-10T12:26:37Z</time>
      </trkpt>
      <trkpt lat="45.92026" lon="6.50941">
        <ele>2157.82</ele>
        <time>2022-02-10T12:26:38Z</time>
      </trkpt>
      <trkpt lat="45.92029" lon="6.50943">
        <ele>2156.37</ele>
        <time>2022-02-10T12:26:39Z</time>
      </trkpt>
      <trkpt lat="45.92033" lon="6.50944">
        <ele>2153.49</ele>
        <time>2022-02-10T12:26:40Z</time>
      </trkpt>
      <trkpt lat="45.92037" lon="6.50947">
        <ele>2152.05</ele>
        <time>2022-02-10T12:26:41Z</time>
      </trkpt>
      <trkpt lat="45.92042" lon="6.5095">
        <ele>2149.16</ele>
        <time>2022-02-10T12:26:42Z</time>
      </trkpt>
      <trkpt lat="45.92047" lon="6.5095">
        <ele>2146.76</ele>
        <time>2022-02-10T12:26:43Z</time>
      </trkpt>
      <trkpt lat="45.92052" lon="6.50948">
        <ele>2144.84</ele>
        <time>2022-02-10T12:26:44Z</time>
      </trkpt>
      <trkpt lat="45.92056" lon="6.50949">
        <ele>2142.44</ele>
        <time>2022-02-10T12:26:45Z</time>
      </trkpt>
      <trkpt lat="45.92061" lon="6.50951">
        <ele>2140.51</ele>
        <time>2022-02-10T12:26:46Z</time>
      </trkpt>
      <trkpt lat="45.92065" lon="6.5095">
        <ele>2138.59</ele>
        <time>2022-02-10T12:26:47Z</time>
      </trkpt>
      <trkpt lat="45.92069" lon="6.50947">
        <ele>2136.67</ele>
        <time>2022-02-10T12:26:48Z</time>
      </trkpt>
      <trkpt lat="45.92073" lon="6.50947">
        <ele>2135.71</ele>
        <time>2022-02-10T12:26:49Z</time>
      </trkpt>
      <trkpt lat="45.92077" lon="6.50949">
        <ele>2133.78</ele>
        <time>2022-02-10T12:26:50Z</time>
      </trkpt>
      <trkpt lat="45.92081" lon="6.50951">
        <ele>2131.86</ele>
        <time>2022-02-10T12:26:51Z</time>
      </trkpt>
      <trkpt lat="45.92086" lon="6.50952">
        <ele>2130.42</ele>
        <time>2022-02-10T12:26:52Z</time>
      </trkpt>
      <trkpt lat="45.92092" lon="6.50955">
        <ele>2127.53</ele>
        <time>2022-02-10T12:26:53Z</time>
      </trkpt>
      <trkpt lat="45.92094" lon="6.5096">
        <ele>2124.65</ele>
        <time>2022-02-10T12:26:54Z</time>
      </trkpt>
      <trkpt lat="45.92096" lon="6.50965">
        <ele>2122.25</ele>
        <time>2022-02-10T12:26:55Z</time>
      </trkpt>
      <trkpt lat="45.92099" lon="6.50968">
        <ele>2120.81</ele>
        <time>2022-02-10T12:26:56Z</time>
      </trkpt>
      <trkpt lat="45.92104" lon="6.50972">
        <ele>2118.4</ele>
        <time>2022-02-10T12:26:57Z</time>
      </trkpt>
      <trkpt lat="45.92109" lon="6.50976">
        <ele>2115.52</ele>
        <time>2022-02-10T12:26:58Z</time>
      </trkpt>
      <trkpt lat="45.92115" lon="6.50976">
        <ele>2113.12</ele>
        <time>2022-02-10T12:26:59Z</time>
      </trkpt>
      <trkpt lat="45.92119" lon="6.50978">
        <ele>2110.23</ele>
        <time>2022-02-10T12:27:00Z</time>
      </trkpt>
      <trkpt lat="45.92121" lon="6.50981">
        <ele>2107.35</ele>
        <time>2022-02-10T12:27:01Z</time>
      </trkpt>
      <trkpt lat="45.92123" lon="6.50986">
        <ele>2104.94</ele>
        <time>2022-02-10T12:27:02Z</time>
      </trkpt>
      <trkpt lat="45.92125" lon="6.5099">
        <ele>2103.5</ele>
        <time>2022-02-10T12:27:03Z</time>
      </trkpt>
      <trkpt lat="45.92129" lon="6.50988">
        <ele>2101.58</ele>
        <time>2022-02-10T12:27:04Z</time>
      </trkpt>
      <trkpt lat="45.92131" lon="6.50986">
        <ele>2100.14</ele>
        <time>2022-02-10T12:27:05Z</time>
      </trkpt>
      <trkpt lat="45.92133" lon="6.50985">
        <ele>2098.7</ele>
        <time>2022-02-10T12:27:06Z</time>
      </trkpt>
      <trkpt lat="45.92137" lon="6.50984">
        <ele>2098.21</ele>
        <time>2022-02-10T12:27:07Z</time>
      </trkpt>
      <trkpt lat="45.9214" lon="6.50988">
        <ele>2096.77</ele>
        <time>2022-02-10T12:27:08Z</time>
      </trkpt>
      <trkpt lat="45.92142" lon="6.50993">
        <ele>2094.85</ele>
        <time>2022-02-10T12:27:09Z</time>
      </trkpt>
      <trkpt lat="45.92141" lon="6.50999">
        <ele>2093.41</ele>
        <time>2022-02-10T12:27:10Z</time>
      </trkpt>
      <trkpt lat="45.92142" lon="6.51006">
        <ele>2092.45</ele>
        <time>2022-02-10T12:27:11Z</time>
      </trkpt>
      <trkpt lat="45.92144" lon="6.51011">
        <ele>2091</ele>
        <time>2022-02-10T12:27:12Z</time>
      </trkpt>
      <trkpt lat="45.92146" lon="6.51014">
        <ele>2089.56</ele>
        <time>2022-02-10T12:27:14Z</time>
      </trkpt>
      <trkpt lat="45.92151" lon="6.51014">
        <ele>2088.6</ele>
        <time>2022-02-10T12:27:15Z</time>
      </trkpt>
      <trkpt lat="45.92153" lon="6.51016">
        <ele>2086.68</ele>
        <time>2022-02-10T12:27:16Z</time>
      </trkpt>
      <trkpt lat="45.92155" lon="6.51019">
        <ele>2085.72</ele>
        <time>2022-02-10T12:27:17Z</time>
      </trkpt>
      <trkpt lat="45.92156" lon="6.51022">
        <ele>2085.24</ele>
        <time>2022-02-10T12:27:18Z</time>
      </trkpt>
      <trkpt lat="45.92158" lon="6.51025">
        <ele>2085.24</ele>
        <time>2022-02-10T12:27:19Z</time>
      </trkpt>
      <trkpt lat="45.92161" lon="6.51029">
        <ele>2084.76</ele>
        <time>2022-02-10T12:27:20Z</time>
      </trkpt>
      <trkpt lat="45.92165" lon="6.51033">
        <ele>2083.79</ele>
        <time>2022-02-10T12:27:21Z</time>
      </trkpt>
      <trkpt lat="45.92173" lon="6.51045">
        <ele>2081.39</ele>
        <time>2022-02-10T12:27:23Z</time>
      </trkpt>
      <trkpt lat="45.92176" lon="6.51051">
        <ele>2080.91</ele>
        <time>2022-02-10T12:27:24Z</time>
      </trkpt>
      <trkpt lat="45.92179" lon="6.51057">
        <ele>2080.43</ele>
        <time>2022-02-10T12:27:25Z</time>
      </trkpt>
      <trkpt lat="45.92184" lon="6.51067">
        <ele>2078.99</ele>
        <time>2022-02-10T12:27:27Z</time>
      </trkpt>
      <trkpt lat="45.92187" lon="6.51072">
        <ele>2078.51</ele>
        <time>2022-02-10T12:27:28Z</time>
      </trkpt>
      <trkpt lat="45.92203" lon="6.5109">
        <ele>2076.59</ele>
        <time>2022-02-10T12:27:32Z</time>
      </trkpt>
      <trkpt lat="45.922" lon="6.51093">
        <ele>2075.62</ele>
        <time>2022-02-10T12:27:33Z</time>
      </trkpt>
      <trkpt lat="45.92203" lon="6.51092">
        <ele>2074.66</ele>
        <time>2022-02-10T12:27:34Z</time>
      </trkpt>
      <trkpt lat="45.92201" lon="6.51087">
        <ele>2069.86</ele>
        <time>2022-02-10T12:27:36Z</time>
      </trkpt>
      <trkpt lat="45.92198" lon="6.51088">
        <ele>2067.45</ele>
        <time>2022-02-10T12:27:37Z</time>
      </trkpt>
      <trkpt lat="45.92196" lon="6.51089">
        <ele>2066.49</ele>
        <time>2022-02-10T12:27:38Z</time>
      </trkpt>
      <trkpt lat="45.92206" lon="6.51091">
        <ele>2064.57</ele>
        <time>2022-02-10T12:27:42Z</time>
      </trkpt>
      <trkpt lat="45.92211" lon="6.51083">
        <ele>2063.61</ele>
        <time>2022-02-10T12:27:50Z</time>
      </trkpt>
      <trkpt lat="45.92228" lon="6.51089">
        <ele>2062.17</ele>
        <time>2022-02-10T12:27:59Z</time>
      </trkpt>
      <trkpt lat="45.92229" lon="6.51092">
        <ele>2061.2</ele>
        <time>2022-02-10T12:28:00Z</time>
      </trkpt>
      <trkpt lat="45.9223" lon="6.51094">
        <ele>2061.2</ele>
        <time>2022-02-10T12:28:01Z</time>
      </trkpt>
      <trkpt lat="45.92228" lon="6.51095">
        <ele>2060.24</ele>
        <time>2022-02-10T12:28:23Z</time>
      </trkpt>
      <trkpt lat="45.92233" lon="6.51096">
        <ele>2059.76</ele>
        <time>2022-02-10T12:28:26Z</time>
      </trkpt>
      <trkpt lat="45.92234" lon="6.51097">
        <ele>2059.76</ele>
        <time>2022-02-10T12:28:27Z</time>
      </trkpt>
      <trkpt lat="45.92239" lon="6.51098">
        <ele>2059.28</ele>
        <time>2022-02-10T12:28:28Z</time>
      </trkpt>
      <trkpt lat="45.92244" lon="6.51099">
        <ele>2058.8</ele>
        <time>2022-02-10T12:28:29Z</time>
      </trkpt>
      <trkpt lat="45.92248" lon="6.511">
        <ele>2057.84</ele>
        <time>2022-02-10T12:28:30Z</time>
      </trkpt>
      <trkpt lat="45.92272" lon="6.51104">
        <ele>2055.44</ele>
        <time>2022-02-10T12:28:35Z</time>
      </trkpt>
      <trkpt lat="45.92277" lon="6.51105">
        <ele>2054.96</ele>
        <time>2022-02-10T12:28:36Z</time>
      </trkpt>
      <trkpt lat="45.92298" lon="6.51113">
        <ele>2052.55</ele>
        <time>2022-02-10T12:28:40Z</time>
      </trkpt>
      <trkpt lat="45.92311" lon="6.51117">
        <ele>2050.63</ele>
        <time>2022-02-10T12:28:42Z</time>
      </trkpt>
      <trkpt lat="45.92317" lon="6.51117">
        <ele>2049.67</ele>
        <time>2022-02-10T12:28:43Z</time>
      </trkpt>
      <trkpt lat="45.92336" lon="6.51114">
        <ele>2047.75</ele>
        <time>2022-02-10T12:28:49Z</time>
      </trkpt>
      <trkpt lat="45.92357" lon="6.5111">
        <ele>2046.3</ele>
        <time>2022-02-10T12:29:00Z</time>
      </trkpt>
      <trkpt lat="45.9238" lon="6.5112">
        <ele>2043.9</ele>
        <time>2022-02-10T12:29:09Z</time>
      </trkpt>
      <trkpt lat="45.9239" lon="6.5112">
        <ele>2042.46</ele>
        <time>2022-02-10T12:29:12Z</time>
      </trkpt>
      <trkpt lat="45.92394" lon="6.51118">
        <ele>2041.98</ele>
        <time>2022-02-10T12:29:13Z</time>
      </trkpt>
      <trkpt lat="45.92413" lon="6.51106">
        <ele>2039.09</ele>
        <time>2022-02-10T12:29:19Z</time>
      </trkpt>
      <trkpt lat="45.92417" lon="6.51099">
        <ele>2038.61</ele>
        <time>2022-02-10T12:29:47Z</time>
      </trkpt>
      <trkpt lat="45.92419" lon="6.51104">
        <ele>2038.61</ele>
        <time>2022-02-10T12:30:05Z</time>
      </trkpt>
      <trkpt lat="45.92418" lon="6.51105">
        <ele>2038.61</ele>
        <time>2022-02-10T12:30:43Z</time>
      </trkpt>
      <trkpt lat="45.92415" lon="6.51102">
        <ele>2038.61</ele>
        <time>2022-02-10T12:31:29Z</time>
      </trkpt>
      <trkpt lat="45.92416" lon="6.51102">
        <ele>2039.09</ele>
        <time>2022-02-10T12:31:35Z</time>
      </trkpt>
      <trkpt lat="45.92417" lon="6.51103">
        <ele>2039.09</ele>
        <time>2022-02-10T12:32:48Z</time>
      </trkpt>
      <trkpt lat="45.92419" lon="6.51109">
        <ele>2038.61</ele>
        <time>2022-02-10T12:34:12Z</time>
      </trkpt>
      <trkpt lat="45.92417" lon="6.51108">
        <ele>2038.61</ele>
        <time>2022-02-10T12:34:18Z</time>
      </trkpt>
      <trkpt lat="45.92416" lon="6.51109">
        <ele>2039.09</ele>
        <time>2022-02-10T12:35:26Z</time>
      </trkpt>
      <trkpt lat="45.92413" lon="6.51117">
        <ele>2041.02</ele>
        <time>2022-02-10T12:36:25Z</time>
      </trkpt>
      <trkpt lat="45.92416" lon="6.5112">
        <ele>2043.9</ele>
        <time>2022-02-10T12:36:39Z</time>
      </trkpt>
      <trkpt lat="45.92422" lon="6.51123">
        <ele>2046.78</ele>
        <time>2022-02-10T12:36:51Z</time>
      </trkpt>
      <trkpt lat="45.92434" lon="6.51125">
        <ele>2050.15</ele>
        <time>2022-02-10T12:37:07Z</time>
      </trkpt>
      <trkpt lat="45.92445" lon="6.51127">
        <ele>2052.55</ele>
        <time>2022-02-10T12:37:21Z</time>
      </trkpt>
      <trkpt lat="45.92451" lon="6.51141">
        <ele>2055.44</ele>
        <time>2022-02-10T12:37:40Z</time>
      </trkpt>
      <trkpt lat="45.92451" lon="6.51148">
        <ele>2058.32</ele>
        <time>2022-02-10T12:37:55Z</time>
      </trkpt>
      <trkpt lat="45.92453" lon="6.5115">
        <ele>2059.76</ele>
        <time>2022-02-10T12:38:04Z</time>
      </trkpt>
      <trkpt lat="45.92457" lon="6.51151">
        <ele>2061.68</ele>
        <time>2022-02-10T12:38:15Z</time>
      </trkpt>
      <trkpt lat="45.92466" lon="6.51158">
        <ele>2065.05</ele>
        <time>2022-02-10T12:38:35Z</time>
      </trkpt>
      <trkpt lat="45.92465" lon="6.51164">
        <ele>2066.97</ele>
        <time>2022-02-10T12:38:47Z</time>
      </trkpt>
      <trkpt lat="45.92466" lon="6.51164">
        <ele>2066.97</ele>
        <time>2022-02-10T12:38:48Z</time>
      </trkpt>
      <trkpt lat="45.92467" lon="6.51164">
        <ele>2067.93</ele>
        <time>2022-02-10T12:38:54Z</time>
      </trkpt>
      <trkpt lat="45.92468" lon="6.51167">
        <ele>2069.86</ele>
        <time>2022-02-10T12:39:05Z</time>
      </trkpt>
      <trkpt lat="45.92466" lon="6.51171">
        <ele>2072.26</ele>
        <time>2022-02-10T12:39:18Z</time>
      </trkpt>
      <trkpt lat="45.92467" lon="6.5117">
        <ele>2072.26</ele>
        <time>2022-02-10T12:39:19Z</time>
      </trkpt>
      <trkpt lat="45.92474" lon="6.5117">
        <ele>2074.18</ele>
        <time>2022-02-10T12:39:28Z</time>
      </trkpt>
      <trkpt lat="45.92468" lon="6.51179">
        <ele>2076.1</ele>
        <time>2022-02-10T12:39:45Z</time>
      </trkpt>
      <trkpt lat="45.92471" lon="6.51178">
        <ele>2077.07</ele>
        <time>2022-02-10T12:39:52Z</time>
      </trkpt>
      <trkpt lat="45.92478" lon="6.51179">
        <ele>2079.95</ele>
        <time>2022-02-10T12:40:12Z</time>
      </trkpt>
      <trkpt lat="45.92481" lon="6.51184">
        <ele>2082.83</ele>
        <time>2022-02-10T12:40:27Z</time>
      </trkpt>
      <trkpt lat="45.92482" lon="6.51186">
        <ele>2083.79</ele>
        <time>2022-02-10T12:40:33Z</time>
      </trkpt>
      <trkpt lat="45.92484" lon="6.51191">
        <ele>2084.28</ele>
        <time>2022-02-10T12:40:40Z</time>
      </trkpt>
      <trkpt lat="45.92485" lon="6.51199">
        <ele>2087.64</ele>
        <time>2022-02-10T12:40:53Z</time>
      </trkpt>
      <trkpt lat="45.92487" lon="6.512">
        <ele>2089.08</ele>
        <time>2022-02-10T12:41:01Z</time>
      </trkpt>
      <trkpt lat="45.92488" lon="6.51199">
        <ele>2089.56</ele>
        <time>2022-02-10T12:41:05Z</time>
      </trkpt>
      <trkpt lat="45.92487" lon="6.51199">
        <ele>2091</ele>
        <time>2022-02-10T12:41:11Z</time>
      </trkpt>
      <trkpt lat="45.92484" lon="6.51206">
        <ele>2093.41</ele>
        <time>2022-02-10T12:41:29Z</time>
      </trkpt>
      <trkpt lat="45.92485" lon="6.51206">
        <ele>2093.41</ele>
        <time>2022-02-10T12:41:30Z</time>
      </trkpt>
      <trkpt lat="45.92485" lon="6.51214">
        <ele>2096.77</ele>
        <time>2022-02-10T12:41:49Z</time>
      </trkpt>
      <trkpt lat="45.92487" lon="6.51213">
        <ele>2096.77</ele>
        <time>2022-02-10T12:41:51Z</time>
      </trkpt>
      <trkpt lat="45.92487" lon="6.51212">
        <ele>2098.7</ele>
        <time>2022-02-10T12:42:02Z</time>
      </trkpt>
      <trkpt lat="45.92488" lon="6.51224">
        <ele>2101.58</ele>
        <time>2022-02-10T12:42:19Z</time>
      </trkpt>
      <trkpt lat="45.92491" lon="6.51224">
        <ele>2103.02</ele>
        <time>2022-02-10T12:42:28Z</time>
      </trkpt>
      <trkpt lat="45.92492" lon="6.51232">
        <ele>2106.39</ele>
        <time>2022-02-10T12:42:52Z</time>
      </trkpt>
      <trkpt lat="45.92493" lon="6.51232">
        <ele>2106.87</ele>
        <time>2022-02-10T12:42:54Z</time>
      </trkpt>
      <trkpt lat="45.92495" lon="6.51232">
        <ele>2107.83</ele>
        <time>2022-02-10T12:43:01Z</time>
      </trkpt>
      <trkpt lat="45.92497" lon="6.51241">
        <ele>2111.19</ele>
        <time>2022-02-10T12:43:21Z</time>
      </trkpt>
      <trkpt lat="45.92498" lon="6.51244">
        <ele>2114.08</ele>
        <time>2022-02-10T12:43:37Z</time>
      </trkpt>
      <trkpt lat="45.925" lon="6.5125">
        <ele>2116</ele>
        <time>2022-02-10T12:43:51Z</time>
      </trkpt>
      <trkpt lat="45.92498" lon="6.5125">
        <ele>2116</ele>
        <time>2022-02-10T12:43:52Z</time>
      </trkpt>
      <trkpt lat="45.92499" lon="6.51253">
        <ele>2119.36</ele>
        <time>2022-02-10T12:44:05Z</time>
      </trkpt>
      <trkpt lat="45.925" lon="6.51252">
        <ele>2120.32</ele>
        <time>2022-02-10T12:44:10Z</time>
      </trkpt>
      <trkpt lat="45.92502" lon="6.51255">
        <ele>2120.81</ele>
        <time>2022-02-10T12:44:12Z</time>
      </trkpt>
      <trkpt lat="45.92502" lon="6.51262">
        <ele>2123.69</ele>
        <time>2022-02-10T12:44:32Z</time>
      </trkpt>
      <trkpt lat="45.92504" lon="6.51262">
        <ele>2124.17</ele>
        <time>2022-02-10T12:44:36Z</time>
      </trkpt>
      <trkpt lat="45.92507" lon="6.51265">
        <ele>2125.13</ele>
        <time>2022-02-10T12:44:39Z</time>
      </trkpt>
      <trkpt lat="45.92508" lon="6.51265">
        <ele>2125.13</ele>
        <time>2022-02-10T12:44:40Z</time>
      </trkpt>
      <trkpt lat="45.92503" lon="6.51268">
        <ele>2126.57</ele>
        <time>2022-02-10T12:44:49Z</time>
      </trkpt>
      <trkpt lat="45.92504" lon="6.51268">
        <ele>2128.98</ele>
        <time>2022-02-10T12:44:57Z</time>
      </trkpt>
      <trkpt lat="45.92509" lon="6.51277">
        <ele>2131.38</ele>
        <time>2022-02-10T12:45:15Z</time>
      </trkpt>
      <trkpt lat="45.92511" lon="6.51278">
        <ele>2133.78</ele>
        <time>2022-02-10T12:45:29Z</time>
      </trkpt>
      <trkpt lat="45.92516" lon="6.51285">
        <ele>2137.15</ele>
        <time>2022-02-10T12:45:48Z</time>
      </trkpt>
      <trkpt lat="45.92523" lon="6.51283">
        <ele>2140.03</ele>
        <time>2022-02-10T12:46:07Z</time>
      </trkpt>
      <trkpt lat="45.9252" lon="6.51295">
        <ele>2143.4</ele>
        <time>2022-02-10T12:46:23Z</time>
      </trkpt>
      <trkpt lat="45.92518" lon="6.51295">
        <ele>2144.36</ele>
        <time>2022-02-10T12:46:26Z</time>
      </trkpt>
      <trkpt lat="45.9248" lon="6.51291">
        <ele>2147.24</ele>
        <time>2022-02-10T12:46:44Z</time>
      </trkpt>
      <trkpt lat="45.92482" lon="6.51293">
        <ele>2150.61</ele>
        <time>2022-02-10T12:46:57Z</time>
      </trkpt>
      <trkpt lat="45.92484" lon="6.5129">
        <ele>2150.61</ele>
        <time>2022-02-10T12:47:31Z</time>
      </trkpt>
      <trkpt lat="45.92488" lon="6.51288">
        <ele>2150.61</ele>
        <time>2022-02-10T12:47:41Z</time>
      </trkpt>
      <trkpt lat="45.92488" lon="6.51287">
        <ele>2150.61</ele>
        <time>2022-02-10T12:48:36Z</time>
      </trkpt>
      <trkpt lat="45.92488" lon="6.51287">
        <ele>2151.09</ele>
        <time>2022-02-10T12:48:37Z</time>
      </trkpt>
      <trkpt lat="45.92488" lon="6.5129">
        <ele>2150.61</ele>
        <time>2022-02-10T12:48:56Z</time>
      </trkpt>
      <trkpt lat="45.92495" lon="6.51283">
        <ele>2150.61</ele>
        <time>2022-02-10T12:50:05Z</time>
      </trkpt>
      <trkpt lat="45.92496" lon="6.51284">
        <ele>2151.09</ele>
        <time>2022-02-10T12:50:42Z</time>
      </trkpt>
      <trkpt lat="45.92497" lon="6.51285">
        <ele>2151.09</ele>
        <time>2022-02-10T12:50:43Z</time>
      </trkpt>
      <trkpt lat="45.925" lon="6.51287">
        <ele>2150.61</ele>
        <time>2022-02-10T12:50:44Z</time>
      </trkpt>
      <trkpt lat="45.92503" lon="6.5129">
        <ele>2149.65</ele>
        <time>2022-02-10T12:50:45Z</time>
      </trkpt>
      <trkpt lat="45.92506" lon="6.51291">
        <ele>2148.68</ele>
        <time>2022-02-10T12:50:46Z</time>
      </trkpt>
      <trkpt lat="45.92509" lon="6.51291">
        <ele>2147.24</ele>
        <time>2022-02-10T12:50:47Z</time>
      </trkpt>
      <trkpt lat="45.9251" lon="6.5129">
        <ele>2145.8</ele>
        <time>2022-02-10T12:50:48Z</time>
      </trkpt>
      <trkpt lat="45.9251" lon="6.51288">
        <ele>2144.36</ele>
        <time>2022-02-10T12:50:49Z</time>
      </trkpt>
      <trkpt lat="45.92512" lon="6.51287">
        <ele>2142.92</ele>
        <time>2022-02-10T12:50:50Z</time>
      </trkpt>
      <trkpt lat="45.92514" lon="6.51288">
        <ele>2141.47</ele>
        <time>2022-02-10T12:50:51Z</time>
      </trkpt>
      <trkpt lat="45.92517" lon="6.51289">
        <ele>2140.03</ele>
        <time>2022-02-10T12:50:52Z</time>
      </trkpt>
      <trkpt lat="45.92519" lon="6.51289">
        <ele>2138.59</ele>
        <time>2022-02-10T12:50:53Z</time>
      </trkpt>
      <trkpt lat="45.92522" lon="6.51288">
        <ele>2137.15</ele>
        <time>2022-02-10T12:50:54Z</time>
      </trkpt>
      <trkpt lat="45.92524" lon="6.51289">
        <ele>2135.23</ele>
        <time>2022-02-10T12:50:55Z</time>
      </trkpt>
      <trkpt lat="45.92526" lon="6.51291">
        <ele>2133.3</ele>
        <time>2022-02-10T12:50:56Z</time>
      </trkpt>
      <trkpt lat="45.92529" lon="6.5129">
        <ele>2131.38</ele>
        <time>2022-02-10T12:50:57Z</time>
      </trkpt>
      <trkpt lat="45.92532" lon="6.51291">
        <ele>2129.94</ele>
        <time>2022-02-10T12:50:58Z</time>
      </trkpt>
      <trkpt lat="45.92536" lon="6.51292">
        <ele>2127.53</ele>
        <time>2022-02-10T12:50:59Z</time>
      </trkpt>
      <trkpt lat="45.92541" lon="6.51292">
        <ele>2124.17</ele>
        <time>2022-02-10T12:51:01Z</time>
      </trkpt>
      <trkpt lat="45.92544" lon="6.51292">
        <ele>2122.25</ele>
        <time>2022-02-10T12:51:02Z</time>
      </trkpt>
      <trkpt lat="45.92546" lon="6.51294">
        <ele>2119.84</ele>
        <time>2022-02-10T12:51:03Z</time>
      </trkpt>
      <trkpt lat="45.92548" lon="6.51296">
        <ele>2117.92</ele>
        <time>2022-02-10T12:51:04Z</time>
      </trkpt>
      <trkpt lat="45.9255" lon="6.51296">
        <ele>2116.48</ele>
        <time>2022-02-10T12:51:05Z</time>
      </trkpt>
      <trkpt lat="45.92552" lon="6.51297">
        <ele>2114.56</ele>
        <time>2022-02-10T12:51:06Z</time>
      </trkpt>
      <trkpt lat="45.92555" lon="6.51297">
        <ele>2113.6</ele>
        <time>2022-02-10T12:51:07Z</time>
      </trkpt>
      <trkpt lat="45.92557" lon="6.51295">
        <ele>2111.19</ele>
        <time>2022-02-10T12:51:08Z</time>
      </trkpt>
      <trkpt lat="45.92561" lon="6.51295">
        <ele>2109.75</ele>
        <time>2022-02-10T12:51:09Z</time>
      </trkpt>
      <trkpt lat="45.92564" lon="6.51296">
        <ele>2107.83</ele>
        <time>2022-02-10T12:51:10Z</time>
      </trkpt>
      <trkpt lat="45.92567" lon="6.51297">
        <ele>2105.91</ele>
        <time>2022-02-10T12:51:11Z</time>
      </trkpt>
      <trkpt lat="45.9257" lon="6.51294">
        <ele>2103.5</ele>
        <time>2022-02-10T12:51:12Z</time>
      </trkpt>
      <trkpt lat="45.92573" lon="6.51295">
        <ele>2101.58</ele>
        <time>2022-02-10T12:51:13Z</time>
      </trkpt>
      <trkpt lat="45.92578" lon="6.51297">
        <ele>2098.21</ele>
        <time>2022-02-10T12:51:15Z</time>
      </trkpt>
      <trkpt lat="45.9258" lon="6.51295">
        <ele>2096.77</ele>
        <time>2022-02-10T12:51:16Z</time>
      </trkpt>
      <trkpt lat="45.92584" lon="6.51294">
        <ele>2095.33</ele>
        <time>2022-02-10T12:51:17Z</time>
      </trkpt>
      <trkpt lat="45.92588" lon="6.51294">
        <ele>2091.49</ele>
        <time>2022-02-10T12:51:19Z</time>
      </trkpt>
      <trkpt lat="45.9259" lon="6.51294">
        <ele>2088.6</ele>
        <time>2022-02-10T12:51:21Z</time>
      </trkpt>
      <trkpt lat="45.92591" lon="6.51293">
        <ele>2087.16</ele>
        <time>2022-02-10T12:51:22Z</time>
      </trkpt>
      <trkpt lat="45.92592" lon="6.51293">
        <ele>2086.2</ele>
        <time>2022-02-10T12:51:23Z</time>
      </trkpt>
      <trkpt lat="45.92593" lon="6.51294">
        <ele>2084.76</ele>
        <time>2022-02-10T12:51:24Z</time>
      </trkpt>
      <trkpt lat="45.92594" lon="6.51295">
        <ele>2083.79</ele>
        <time>2022-02-10T12:51:25Z</time>
      </trkpt>
      <trkpt lat="45.92594" lon="6.51296">
        <ele>2083.31</ele>
        <time>2022-02-10T12:51:26Z</time>
      </trkpt>
      <trkpt lat="45.92598" lon="6.51298">
        <ele>2081.39</ele>
        <time>2022-02-10T12:51:29Z</time>
      </trkpt>
      <trkpt lat="45.92599" lon="6.51295">
        <ele>2080.43</ele>
        <time>2022-02-10T12:51:30Z</time>
      </trkpt>
      <trkpt lat="45.92601" lon="6.51294">
        <ele>2078.51</ele>
        <time>2022-02-10T12:51:31Z</time>
      </trkpt>
      <trkpt lat="45.92603" lon="6.51295">
        <ele>2077.55</ele>
        <time>2022-02-10T12:51:32Z</time>
      </trkpt>
      <trkpt lat="45.92606" lon="6.51295">
        <ele>2076.1</ele>
        <time>2022-02-10T12:51:33Z</time>
      </trkpt>
      <trkpt lat="45.92608" lon="6.51297">
        <ele>2074.66</ele>
        <time>2022-02-10T12:51:34Z</time>
      </trkpt>
      <trkpt lat="45.92609" lon="6.51298">
        <ele>2073.7</ele>
        <time>2022-02-10T12:51:35Z</time>
      </trkpt>
      <trkpt lat="45.92612" lon="6.51297">
        <ele>2072.26</ele>
        <time>2022-02-10T12:51:36Z</time>
      </trkpt>
      <trkpt lat="45.92615" lon="6.51299">
        <ele>2070.34</ele>
        <time>2022-02-10T12:51:37Z</time>
      </trkpt>
      <trkpt lat="45.92617" lon="6.51301">
        <ele>2068.41</ele>
        <time>2022-02-10T12:51:38Z</time>
      </trkpt>
      <trkpt lat="45.9262" lon="6.513">
        <ele>2065.53</ele>
        <time>2022-02-10T12:51:40Z</time>
      </trkpt>
      <trkpt lat="45.92623" lon="6.51302">
        <ele>2063.13</ele>
        <time>2022-02-10T12:51:41Z</time>
      </trkpt>
      <trkpt lat="45.92624" lon="6.51303">
        <ele>2060.72</ele>
        <time>2022-02-10T12:51:42Z</time>
      </trkpt>
      <trkpt lat="45.92629" lon="6.51307">
        <ele>2056.88</ele>
        <time>2022-02-10T12:51:44Z</time>
      </trkpt>
      <trkpt lat="45.92632" lon="6.51305">
        <ele>2054.96</ele>
        <time>2022-02-10T12:51:45Z</time>
      </trkpt>
      <trkpt lat="45.92635" lon="6.51306">
        <ele>2053.03</ele>
        <time>2022-02-10T12:51:46Z</time>
      </trkpt>
      <trkpt lat="45.92637" lon="6.51308">
        <ele>2050.63</ele>
        <time>2022-02-10T12:51:47Z</time>
      </trkpt>
      <trkpt lat="45.92641" lon="6.51306">
        <ele>2049.19</ele>
        <time>2022-02-10T12:51:48Z</time>
      </trkpt>
      <trkpt lat="45.92645" lon="6.51305">
        <ele>2046.78</ele>
        <time>2022-02-10T12:51:49Z</time>
      </trkpt>
      <trkpt lat="45.9265" lon="6.51304">
        <ele>2044.38</ele>
        <time>2022-02-10T12:51:50Z</time>
      </trkpt>
      <trkpt lat="45.92652" lon="6.51308">
        <ele>2041.98</ele>
        <time>2022-02-10T12:51:51Z</time>
      </trkpt>
      <trkpt lat="45.92655" lon="6.51307">
        <ele>2040.05</ele>
        <time>2022-02-10T12:51:52Z</time>
      </trkpt>
      <trkpt lat="45.92658" lon="6.51308">
        <ele>2037.65</ele>
        <time>2022-02-10T12:51:53Z</time>
      </trkpt>
      <trkpt lat="45.9266" lon="6.51309">
        <ele>2035.73</ele>
        <time>2022-02-10T12:51:54Z</time>
      </trkpt>
      <trkpt lat="45.92663" lon="6.51311">
        <ele>2033.33</ele>
        <time>2022-02-10T12:51:55Z</time>
      </trkpt>
      <trkpt lat="45.92664" lon="6.51311">
        <ele>2031.4</ele>
        <time>2022-02-10T12:51:56Z</time>
      </trkpt>
      <trkpt lat="45.92668" lon="6.51311">
        <ele>2029.48</ele>
        <time>2022-02-10T12:51:57Z</time>
      </trkpt>
      <trkpt lat="45.92672" lon="6.51312">
        <ele>2027.56</ele>
        <time>2022-02-10T12:51:58Z</time>
      </trkpt>
      <trkpt lat="45.92674" lon="6.51315">
        <ele>2025.15</ele>
        <time>2022-02-10T12:51:59Z</time>
      </trkpt>
      <trkpt lat="45.92676" lon="6.51315">
        <ele>2023.23</ele>
        <time>2022-02-10T12:52:00Z</time>
      </trkpt>
      <trkpt lat="45.92678" lon="6.51312">
        <ele>2020.35</ele>
        <time>2022-02-10T12:52:01Z</time>
      </trkpt>
      <trkpt lat="45.92681" lon="6.51315">
        <ele>2019.39</ele>
        <time>2022-02-10T12:52:02Z</time>
      </trkpt>
      <trkpt lat="45.92683" lon="6.51315">
        <ele>2017.46</ele>
        <time>2022-02-10T12:52:03Z</time>
      </trkpt>
      <trkpt lat="45.92683" lon="6.51316">
        <ele>2015.54</ele>
        <time>2022-02-10T12:52:04Z</time>
      </trkpt>
      <trkpt lat="45.92684" lon="6.51318">
        <ele>2013.62</ele>
        <time>2022-02-10T12:52:05Z</time>
      </trkpt>
      <trkpt lat="45.92685" lon="6.51318">
        <ele>2012.18</ele>
        <time>2022-02-10T12:52:06Z</time>
      </trkpt>
      <trkpt lat="45.92688" lon="6.51321">
        <ele>2007.37</ele>
        <time>2022-02-10T12:52:09Z</time>
      </trkpt>
      <trkpt lat="45.92688" lon="6.51322">
        <ele>2006.41</ele>
        <time>2022-02-10T12:52:10Z</time>
      </trkpt>
      <trkpt lat="45.9269" lon="6.51321">
        <ele>2004.97</ele>
        <time>2022-02-10T12:52:12Z</time>
      </trkpt>
      <trkpt lat="45.92691" lon="6.51317">
        <ele>2004.01</ele>
        <time>2022-02-10T12:52:13Z</time>
      </trkpt>
      <trkpt lat="45.92692" lon="6.51315">
        <ele>2002.56</ele>
        <time>2022-02-10T12:52:14Z</time>
      </trkpt>
      <trkpt lat="45.92693" lon="6.51313">
        <ele>2001.6</ele>
        <time>2022-02-10T12:52:15Z</time>
      </trkpt>
      <trkpt lat="45.92694" lon="6.51313">
        <ele>2001.12</ele>
        <time>2022-02-10T12:52:16Z</time>
      </trkpt>
      <trkpt lat="45.92694" lon="6.51315">
        <ele>2000.16</ele>
        <time>2022-02-10T12:52:17Z</time>
      </trkpt>
      <trkpt lat="45.92695" lon="6.51316">
        <ele>1998.24</ele>
        <time>2022-02-10T12:52:19Z</time>
      </trkpt>
      <trkpt lat="45.92696" lon="6.51317">
        <ele>1997.28</ele>
        <time>2022-02-10T12:52:20Z</time>
      </trkpt>
      <trkpt lat="45.92697" lon="6.51315">
        <ele>1995.83</ele>
        <time>2022-02-10T12:52:21Z</time>
      </trkpt>
      <trkpt lat="45.92695" lon="6.51311">
        <ele>1992.47</ele>
        <time>2022-02-10T12:52:29Z</time>
      </trkpt>
      <trkpt lat="45.92694" lon="6.51316">
        <ele>1991.99</ele>
        <time>2022-02-10T12:52:37Z</time>
      </trkpt>
      <trkpt lat="45.92693" lon="6.51318">
        <ele>1990.55</ele>
        <time>2022-02-10T12:52:38Z</time>
      </trkpt>
      <trkpt lat="45.92694" lon="6.51321">
        <ele>1989.59</ele>
        <time>2022-02-10T12:52:39Z</time>
      </trkpt>
      <trkpt lat="45.92695" lon="6.51325">
        <ele>1988.62</ele>
        <time>2022-02-10T12:52:40Z</time>
      </trkpt>
      <trkpt lat="45.92695" lon="6.51329">
        <ele>1986.7</ele>
        <time>2022-02-10T12:52:41Z</time>
      </trkpt>
      <trkpt lat="45.92694" lon="6.51332">
        <ele>1984.78</ele>
        <time>2022-02-10T12:52:42Z</time>
      </trkpt>
      <trkpt lat="45.92693" lon="6.51336">
        <ele>1983.34</ele>
        <time>2022-02-10T12:52:43Z</time>
      </trkpt>
      <trkpt lat="45.92695" lon="6.51339">
        <ele>1981.9</ele>
        <time>2022-02-10T12:52:44Z</time>
      </trkpt>
      <trkpt lat="45.92696" lon="6.51342">
        <ele>1979.97</ele>
        <time>2022-02-10T12:52:45Z</time>
      </trkpt>
      <trkpt lat="45.92695" lon="6.51346">
        <ele>1979.01</ele>
        <time>2022-02-10T12:52:46Z</time>
      </trkpt>
      <trkpt lat="45.92695" lon="6.51348">
        <ele>1977.09</ele>
        <time>2022-02-10T12:52:47Z</time>
      </trkpt>
      <trkpt lat="45.92695" lon="6.51356">
        <ele>1975.17</ele>
        <time>2022-02-10T12:52:48Z</time>
      </trkpt>
      <trkpt lat="45.92696" lon="6.51359">
        <ele>1973.72</ele>
        <time>2022-02-10T12:52:49Z</time>
      </trkpt>
      <trkpt lat="45.92696" lon="6.51362">
        <ele>1971.8</ele>
        <time>2022-02-10T12:52:50Z</time>
      </trkpt>
      <trkpt lat="45.92694" lon="6.51365">
        <ele>1970.36</ele>
        <time>2022-02-10T12:52:51Z</time>
      </trkpt>
      <trkpt lat="45.92693" lon="6.5137">
        <ele>1969.4</ele>
        <time>2022-02-10T12:52:52Z</time>
      </trkpt>
      <trkpt lat="45.92693" lon="6.51373">
        <ele>1969.4</ele>
        <time>2022-02-10T12:52:53Z</time>
      </trkpt>
      <trkpt lat="45.92693" lon="6.51377">
        <ele>1969.4</ele>
        <time>2022-02-10T12:52:54Z</time>
      </trkpt>
      <trkpt lat="45.92693" lon="6.51382">
        <ele>1968.92</ele>
        <time>2022-02-10T12:52:55Z</time>
      </trkpt>
      <trkpt lat="45.92693" lon="6.51385">
        <ele>1968.44</ele>
        <time>2022-02-10T12:52:56Z</time>
      </trkpt>
      <trkpt lat="45.92694" lon="6.51389">
        <ele>1968.44</ele>
        <time>2022-02-10T12:52:57Z</time>
      </trkpt>
      <trkpt lat="45.92695" lon="6.51391">
        <ele>1967.48</ele>
        <time>2022-02-10T12:52:58Z</time>
      </trkpt>
      <trkpt lat="45.92698" lon="6.51391">
        <ele>1966.99</ele>
        <time>2022-02-10T12:52:59Z</time>
      </trkpt>
      <trkpt lat="45.927" lon="6.51387">
        <ele>1965.07</ele>
        <time>2022-02-10T12:53:00Z</time>
      </trkpt>
      <trkpt lat="45.92702" lon="6.51382">
        <ele>1963.15</ele>
        <time>2022-02-10T12:53:01Z</time>
      </trkpt>
      <trkpt lat="45.92704" lon="6.51377">
        <ele>1961.23</ele>
        <time>2022-02-10T12:53:02Z</time>
      </trkpt>
      <trkpt lat="45.92709" lon="6.51366">
        <ele>1957.38</ele>
        <time>2022-02-10T12:53:05Z</time>
      </trkpt>
      <trkpt lat="45.92712" lon="6.51366">
        <ele>1956.9</ele>
        <time>2022-02-10T12:53:06Z</time>
      </trkpt>
      <trkpt lat="45.92713" lon="6.51369">
        <ele>1955.46</ele>
        <time>2022-02-10T12:53:07Z</time>
      </trkpt>
      <trkpt lat="45.92712" lon="6.51372">
        <ele>1954.02</ele>
        <time>2022-02-10T12:53:08Z</time>
      </trkpt>
      <trkpt lat="45.92712" lon="6.51373">
        <ele>1953.06</ele>
        <time>2022-02-10T12:53:09Z</time>
      </trkpt>
      <trkpt lat="45.92715" lon="6.51373">
        <ele>1952.09</ele>
        <time>2022-02-10T12:53:11Z</time>
      </trkpt>
      <trkpt lat="45.92716" lon="6.51373">
        <ele>1951.61</ele>
        <time>2022-02-10T12:53:12Z</time>
      </trkpt>
      <trkpt lat="45.92708" lon="6.51375">
        <ele>1951.61</ele>
        <time>2022-02-10T12:53:58Z</time>
      </trkpt>
      <trkpt lat="45.92703" lon="6.51377">
        <ele>1951.61</ele>
        <time>2022-02-10T12:55:29Z</time>
      </trkpt>
      <trkpt lat="45.92703" lon="6.51379">
        <ele>1951.13</ele>
        <time>2022-02-10T12:55:56Z</time>
      </trkpt>
      <trkpt lat="45.927" lon="6.51377">
        <ele>1951.13</ele>
        <time>2022-02-10T12:56:11Z</time>
      </trkpt>
      <trkpt lat="45.92702" lon="6.51376">
        <ele>1951.13</ele>
        <time>2022-02-10T12:56:56Z</time>
      </trkpt>
      <trkpt lat="45.92699" lon="6.51374">
        <ele>1951.61</ele>
        <time>2022-02-10T12:58:27Z</time>
      </trkpt>
      <trkpt lat="45.92703" lon="6.51377">
        <ele>1951.13</ele>
        <time>2022-02-10T12:58:53Z</time>
      </trkpt>
      <trkpt lat="45.92704" lon="6.51378">
        <ele>1951.13</ele>
        <time>2022-02-10T12:58:54Z</time>
      </trkpt>
      <trkpt lat="45.92702" lon="6.51375">
        <ele>1951.61</ele>
        <time>2022-02-10T12:59:20Z</time>
      </trkpt>
      <trkpt lat="45.92701" lon="6.51375">
        <ele>1951.61</ele>
        <time>2022-02-10T12:59:41Z</time>
      </trkpt>
      <trkpt lat="45.92699" lon="6.51377">
        <ele>1951.61</ele>
        <time>2022-02-10T13:00:33Z</time>
      </trkpt>
      <trkpt lat="45.92695" lon="6.51385">
        <ele>1952.57</ele>
        <time>2022-02-10T13:01:29Z</time>
      </trkpt>
      <trkpt lat="45.92692" lon="6.51394">
        <ele>1954.5</ele>
        <time>2022-02-10T13:01:41Z</time>
      </trkpt>
      <trkpt lat="45.92692" lon="6.51396">
        <ele>1954.98</ele>
        <time>2022-02-10T13:01:43Z</time>
      </trkpt>
      <trkpt lat="45.92683" lon="6.51418">
        <ele>1957.86</ele>
        <time>2022-02-10T13:02:07Z</time>
      </trkpt>
      <trkpt lat="45.92681" lon="6.51433">
        <ele>1961.23</ele>
        <time>2022-02-10T13:02:25Z</time>
      </trkpt>
      <trkpt lat="45.92682" lon="6.51451">
        <ele>1964.11</ele>
        <time>2022-02-10T13:02:50Z</time>
      </trkpt>
      <trkpt lat="45.92685" lon="6.51467">
        <ele>1966.99</ele>
        <time>2022-02-10T13:03:09Z</time>
      </trkpt>
      <trkpt lat="45.92687" lon="6.51477">
        <ele>1968.44</ele>
        <time>2022-02-10T13:03:19Z</time>
      </trkpt>
      <trkpt lat="45.92692" lon="6.51494">
        <ele>1971.8</ele>
        <time>2022-02-10T13:03:39Z</time>
      </trkpt>
      <trkpt lat="45.92692" lon="6.51509">
        <ele>1974.2</ele>
        <time>2022-02-10T13:03:55Z</time>
      </trkpt>
      <trkpt lat="45.92681" lon="6.5151">
        <ele>1977.09</ele>
        <time>2022-02-10T13:04:19Z</time>
      </trkpt>
      <trkpt lat="45.92673" lon="6.51504">
        <ele>1979.97</ele>
        <time>2022-02-10T13:04:35Z</time>
      </trkpt>
      <trkpt lat="45.92663" lon="6.51498">
        <ele>1982.86</ele>
        <time>2022-02-10T13:04:57Z</time>
      </trkpt>
      <trkpt lat="45.92661" lon="6.51496">
        <ele>1983.82</ele>
        <time>2022-02-10T13:05:01Z</time>
      </trkpt>
      <trkpt lat="45.92654" lon="6.51489">
        <ele>1986.7</ele>
        <time>2022-02-10T13:05:18Z</time>
      </trkpt>
      <trkpt lat="45.9265" lon="6.5148">
        <ele>1989.59</ele>
        <time>2022-02-10T13:05:37Z</time>
      </trkpt>
      <trkpt lat="45.92649" lon="6.51493">
        <ele>1992.47</ele>
        <time>2022-02-10T13:05:58Z</time>
      </trkpt>
      <trkpt lat="45.92649" lon="6.51503">
        <ele>1994.39</ele>
        <time>2022-02-10T13:06:09Z</time>
      </trkpt>
      <trkpt lat="45.92649" lon="6.51505">
        <ele>1994.39</ele>
        <time>2022-02-10T13:06:11Z</time>
      </trkpt>
      <trkpt lat="45.9265" lon="6.51523">
        <ele>1997.76</ele>
        <time>2022-02-10T13:06:32Z</time>
      </trkpt>
      <trkpt lat="45.92643" lon="6.51527">
        <ele>2000.64</ele>
        <time>2022-02-10T13:06:57Z</time>
      </trkpt>
      <trkpt lat="45.92641" lon="6.51526">
        <ele>2000.64</ele>
        <time>2022-02-10T13:06:58Z</time>
      </trkpt>
      <trkpt lat="45.92632" lon="6.51517">
        <ele>2004.01</ele>
        <time>2022-02-10T13:07:18Z</time>
      </trkpt>
      <trkpt lat="45.92628" lon="6.51506">
        <ele>2007.37</ele>
        <time>2022-02-10T13:07:37Z</time>
      </trkpt>
      <trkpt lat="45.92623" lon="6.51496">
        <ele>2009.77</ele>
        <time>2022-02-10T13:07:50Z</time>
      </trkpt>
      <trkpt lat="45.92619" lon="6.51504">
        <ele>2012.66</ele>
        <time>2022-02-10T13:08:15Z</time>
      </trkpt>
      <trkpt lat="45.92616" lon="6.5152">
        <ele>2016.02</ele>
        <time>2022-02-10T13:08:37Z</time>
      </trkpt>
      <trkpt lat="45.92615" lon="6.51533">
        <ele>2018.91</ele>
        <time>2022-02-10T13:08:56Z</time>
      </trkpt>
      <trkpt lat="45.92611" lon="6.5155">
        <ele>2021.79</ele>
        <time>2022-02-10T13:09:17Z</time>
      </trkpt>
      <trkpt lat="45.9261" lon="6.51552">
        <ele>2022.27</ele>
        <time>2022-02-10T13:09:19Z</time>
      </trkpt>
      <trkpt lat="45.92602" lon="6.51546">
        <ele>2025.15</ele>
        <time>2022-02-10T13:09:44Z</time>
      </trkpt>
      <trkpt lat="45.92596" lon="6.51535">
        <ele>2028.04</ele>
        <time>2022-02-10T13:10:00Z</time>
      </trkpt>
      <trkpt lat="45.9259" lon="6.51523">
        <ele>2031.4</ele>
        <time>2022-02-10T13:10:18Z</time>
      </trkpt>
      <trkpt lat="45.92588" lon="6.51511">
        <ele>2034.77</ele>
        <time>2022-02-10T13:10:35Z</time>
      </trkpt>
      <trkpt lat="45.92587" lon="6.51512">
        <ele>2037.65</ele>
        <time>2022-02-10T13:10:55Z</time>
      </trkpt>
      <trkpt lat="45.92583" lon="6.51524">
        <ele>2040.54</ele>
        <time>2022-02-10T13:11:18Z</time>
      </trkpt>
      <trkpt lat="45.92578" lon="6.51539">
        <ele>2043.9</ele>
        <time>2022-02-10T13:11:42Z</time>
      </trkpt>
      <trkpt lat="45.92574" lon="6.51555">
        <ele>2046.78</ele>
        <time>2022-02-10T13:12:02Z</time>
      </trkpt>
      <trkpt lat="45.92575" lon="6.51568">
        <ele>2049.67</ele>
        <time>2022-02-10T13:12:21Z</time>
      </trkpt>
      <trkpt lat="45.92567" lon="6.51563">
        <ele>2053.03</ele>
        <time>2022-02-10T13:12:46Z</time>
      </trkpt>
      <trkpt lat="45.9256" lon="6.51552">
        <ele>2055.92</ele>
        <time>2022-02-10T13:13:05Z</time>
      </trkpt>
      <trkpt lat="45.92555" lon="6.5154">
        <ele>2059.28</ele>
        <time>2022-02-10T13:13:23Z</time>
      </trkpt>
      <trkpt lat="45.92553" lon="6.51554">
        <ele>2062.17</ele>
        <time>2022-02-10T13:13:58Z</time>
      </trkpt>
      <trkpt lat="45.92551" lon="6.51569">
        <ele>2065.53</ele>
        <time>2022-02-10T13:14:20Z</time>
      </trkpt>
      <trkpt lat="45.92549" lon="6.51585">
        <ele>2068.41</ele>
        <time>2022-02-10T13:14:40Z</time>
      </trkpt>
      <trkpt lat="45.92544" lon="6.5158">
        <ele>2071.78</ele>
        <time>2022-02-10T13:15:04Z</time>
      </trkpt>
      <trkpt lat="45.92541" lon="6.51575">
        <ele>2072.74</ele>
        <time>2022-02-10T13:15:10Z</time>
      </trkpt>
      <trkpt lat="45.92535" lon="6.51564">
        <ele>2075.62</ele>
        <time>2022-02-10T13:15:31Z</time>
      </trkpt>
      <trkpt lat="45.92532" lon="6.51562">
        <ele>2078.99</ele>
        <time>2022-02-10T13:15:50Z</time>
      </trkpt>
      <trkpt lat="45.92527" lon="6.51574">
        <ele>2081.87</ele>
        <time>2022-02-10T13:16:12Z</time>
      </trkpt>
      <trkpt lat="45.92521" lon="6.51583">
        <ele>2085.24</ele>
        <time>2022-02-10T13:16:33Z</time>
      </trkpt>
      <trkpt lat="45.92519" lon="6.5157">
        <ele>2088.12</ele>
        <time>2022-02-10T13:16:53Z</time>
      </trkpt>
      <trkpt lat="45.92517" lon="6.51577">
        <ele>2091</ele>
        <time>2022-02-10T13:17:13Z</time>
      </trkpt>
      <trkpt lat="45.92512" lon="6.51589">
        <ele>2094.37</ele>
        <time>2022-02-10T13:17:34Z</time>
      </trkpt>
      <trkpt lat="45.92511" lon="6.51603">
        <ele>2097.73</ele>
        <time>2022-02-10T13:17:55Z</time>
      </trkpt>
      <trkpt lat="45.92504" lon="6.51598">
        <ele>2100.62</ele>
        <time>2022-02-10T13:18:20Z</time>
      </trkpt>
      <trkpt lat="45.925" lon="6.51589">
        <ele>2103.98</ele>
        <time>2022-02-10T13:18:39Z</time>
      </trkpt>
      <trkpt lat="45.92496" lon="6.51603">
        <ele>2106.87</ele>
        <time>2022-02-10T13:19:02Z</time>
      </trkpt>
      <trkpt lat="45.92488" lon="6.51601">
        <ele>2110.23</ele>
        <time>2022-02-10T13:19:28Z</time>
      </trkpt>
      <trkpt lat="45.92486" lon="6.51595">
        <ele>2113.12</ele>
        <time>2022-02-10T13:19:45Z</time>
      </trkpt>
      <trkpt lat="45.92478" lon="6.51604">
        <ele>2116</ele>
        <time>2022-02-10T13:20:02Z</time>
      </trkpt>
      <trkpt lat="45.92473" lon="6.51617">
        <ele>2119.36</ele>
        <time>2022-02-10T13:20:32Z</time>
      </trkpt>
      <trkpt lat="45.92466" lon="6.51622">
        <ele>2122.73</ele>
        <time>2022-02-10T13:20:48Z</time>
      </trkpt>
      <trkpt lat="45.92464" lon="6.51625">
        <ele>2123.21</ele>
        <time>2022-02-10T13:21:24Z</time>
      </trkpt>
      <trkpt lat="45.92463" lon="6.51625">
        <ele>2123.21</ele>
        <time>2022-02-10T13:21:25Z</time>
      </trkpt>
      <trkpt lat="45.92466" lon="6.51634">
        <ele>2123.21</ele>
        <time>2022-02-10T13:22:30Z</time>
      </trkpt>
      <trkpt lat="45.92469" lon="6.51637">
        <ele>2123.21</ele>
        <time>2022-02-10T13:23:36Z</time>
      </trkpt>
      <trkpt lat="45.92469" lon="6.51637">
        <ele>2124.17</ele>
        <time>2022-02-10T13:24:50Z</time>
      </trkpt>
      <trkpt lat="45.92471" lon="6.51638">
        <ele>2122.73</ele>
        <time>2022-02-10T13:25:14Z</time>
      </trkpt>
      <trkpt lat="45.92464" lon="6.51635">
        <ele>2123.21</ele>
        <time>2022-02-10T13:25:46Z</time>
      </trkpt>
      <trkpt lat="45.92451" lon="6.51635">
        <ele>2126.09</ele>
        <time>2022-02-10T13:26:08Z</time>
      </trkpt>
      <trkpt lat="45.92445" lon="6.51637">
        <ele>2128.02</ele>
        <time>2022-02-10T13:26:16Z</time>
      </trkpt>
      <trkpt lat="45.92435" lon="6.51646">
        <ele>2131.38</ele>
        <time>2022-02-10T13:26:34Z</time>
      </trkpt>
      <trkpt lat="45.92424" lon="6.51638">
        <ele>2133.78</ele>
        <time>2022-02-10T13:26:55Z</time>
      </trkpt>
      <trkpt lat="45.92417" lon="6.51637">
        <ele>2137.15</ele>
        <time>2022-02-10T13:27:08Z</time>
      </trkpt>
      <trkpt lat="45.92413" lon="6.5165">
        <ele>2139.07</ele>
        <time>2022-02-10T13:27:24Z</time>
      </trkpt>
      <trkpt lat="45.92413" lon="6.51669">
        <ele>2141.95</ele>
        <time>2022-02-10T13:27:45Z</time>
      </trkpt>
      <trkpt lat="45.92411" lon="6.51676">
        <ele>2143.88</ele>
        <time>2022-02-10T13:27:56Z</time>
      </trkpt>
      <trkpt lat="45.9241" lon="6.51676">
        <ele>2143.4</ele>
        <time>2022-02-10T13:27:58Z</time>
      </trkpt>
      <trkpt lat="45.92398" lon="6.51672">
        <ele>2146.76</ele>
        <time>2022-02-10T13:28:19Z</time>
      </trkpt>
      <trkpt lat="45.92387" lon="6.51661">
        <ele>2149.65</ele>
        <time>2022-02-10T13:28:39Z</time>
      </trkpt>
      <trkpt lat="45.92383" lon="6.51667">
        <ele>2153.01</ele>
        <time>2022-02-10T13:28:54Z</time>
      </trkpt>
      <trkpt lat="45.92378" lon="6.51677">
        <ele>2154.93</ele>
        <time>2022-02-10T13:29:08Z</time>
      </trkpt>
      <trkpt lat="45.92374" lon="6.51695">
        <ele>2158.3</ele>
        <time>2022-02-10T13:29:31Z</time>
      </trkpt>
      <trkpt lat="45.92368" lon="6.51679">
        <ele>2161.18</ele>
        <time>2022-02-10T13:29:55Z</time>
      </trkpt>
      <trkpt lat="45.92362" lon="6.51665">
        <ele>2164.55</ele>
        <time>2022-02-10T13:30:16Z</time>
      </trkpt>
      <trkpt lat="45.92354" lon="6.51651">
        <ele>2167.43</ele>
        <time>2022-02-10T13:30:37Z</time>
      </trkpt>
      <trkpt lat="45.9235" lon="6.51664">
        <ele>2170.79</ele>
        <time>2022-02-10T13:30:57Z</time>
      </trkpt>
      <trkpt lat="45.92344" lon="6.51678">
        <ele>2173.68</ele>
        <time>2022-02-10T13:31:18Z</time>
      </trkpt>
      <trkpt lat="45.92337" lon="6.51675">
        <ele>2177.04</ele>
        <time>2022-02-10T13:31:43Z</time>
      </trkpt>
      <trkpt lat="45.92337" lon="6.51673">
        <ele>2177.04</ele>
        <time>2022-02-10T13:31:47Z</time>
      </trkpt>
      <trkpt lat="45.92333" lon="6.51659">
        <ele>2180.41</ele>
        <time>2022-02-10T13:32:05Z</time>
      </trkpt>
      <trkpt lat="45.92327" lon="6.51669">
        <ele>2183.77</ele>
        <time>2022-02-10T13:32:25Z</time>
      </trkpt>
      <trkpt lat="45.92317" lon="6.51681">
        <ele>2186.66</ele>
        <time>2022-02-10T13:32:46Z</time>
      </trkpt>
      <trkpt lat="45.92312" lon="6.51671">
        <ele>2189.54</ele>
        <time>2022-02-10T13:33:10Z</time>
      </trkpt>
      <trkpt lat="45.9231" lon="6.5166">
        <ele>2192.9</ele>
        <time>2022-02-10T13:33:31Z</time>
      </trkpt>
      <trkpt lat="45.92296" lon="6.51674">
        <ele>2195.79</ele>
        <time>2022-02-10T13:33:55Z</time>
      </trkpt>
      <trkpt lat="45.92295" lon="6.51677">
        <ele>2196.27</ele>
        <time>2022-02-10T13:33:57Z</time>
      </trkpt>
      <trkpt lat="45.92291" lon="6.51693">
        <ele>2199.63</ele>
        <time>2022-02-10T13:34:17Z</time>
      </trkpt>
      <trkpt lat="45.92287" lon="6.51699">
        <ele>2200.59</ele>
        <time>2022-02-10T13:34:44Z</time>
      </trkpt>
      <trkpt lat="45.92278" lon="6.517">
        <ele>2203</ele>
        <time>2022-02-10T13:34:58Z</time>
      </trkpt>
      <trkpt lat="45.92272" lon="6.51699">
        <ele>2203.48</ele>
        <time>2022-02-10T13:35:08Z</time>
      </trkpt>
      <trkpt lat="45.92263" lon="6.51706">
        <ele>2204.92</ele>
        <time>2022-02-10T13:35:21Z</time>
      </trkpt>
      <trkpt lat="45.92247" lon="6.5172">
        <ele>2206.84</ele>
        <time>2022-02-10T13:35:46Z</time>
      </trkpt>
      <trkpt lat="45.92238" lon="6.51732">
        <ele>2209.73</ele>
        <time>2022-02-10T13:36:07Z</time>
      </trkpt>
      <trkpt lat="45.92226" lon="6.51746">
        <ele>2213.09</ele>
        <time>2022-02-10T13:36:29Z</time>
      </trkpt>
      <trkpt lat="45.92217" lon="6.51758">
        <ele>2215.98</ele>
        <time>2022-02-10T13:36:48Z</time>
      </trkpt>
      <trkpt lat="45.92212" lon="6.51774">
        <ele>2219.34</ele>
        <time>2022-02-10T13:37:12Z</time>
      </trkpt>
      <trkpt lat="45.92203" lon="6.51789">
        <ele>2222.22</ele>
        <time>2022-02-10T13:37:37Z</time>
      </trkpt>
      <trkpt lat="45.92198" lon="6.51801">
        <ele>2225.59</ele>
        <time>2022-02-10T13:37:57Z</time>
      </trkpt>
      <trkpt lat="45.92192" lon="6.51813">
        <ele>2228.47</ele>
        <time>2022-02-10T13:38:19Z</time>
      </trkpt>
      <trkpt lat="45.92181" lon="6.51825">
        <ele>2231.84</ele>
        <time>2022-02-10T13:38:44Z</time>
      </trkpt>
      <trkpt lat="45.92173" lon="6.51838">
        <ele>2234.72</ele>
        <time>2022-02-10T13:39:09Z</time>
      </trkpt>
      <trkpt lat="45.92167" lon="6.51851">
        <ele>2237.61</ele>
        <time>2022-02-10T13:39:32Z</time>
      </trkpt>
      <trkpt lat="45.92161" lon="6.51866">
        <ele>2240.97</ele>
        <time>2022-02-10T13:39:56Z</time>
      </trkpt>
      <trkpt lat="45.92158" lon="6.51881">
        <ele>2243.85</ele>
        <time>2022-02-10T13:40:23Z</time>
      </trkpt>
      <trkpt lat="45.92153" lon="6.51894">
        <ele>2247.22</ele>
        <time>2022-02-10T13:40:46Z</time>
      </trkpt>
      <trkpt lat="45.92148" lon="6.51906">
        <ele>2250.1</ele>
        <time>2022-02-10T13:41:07Z</time>
      </trkpt>
      <trkpt lat="45.92149" lon="6.51906">
        <ele>2250.1</ele>
        <time>2022-02-10T13:41:11Z</time>
      </trkpt>
      <trkpt lat="45.92144" lon="6.51917">
        <ele>2252.03</ele>
        <time>2022-02-10T13:41:32Z</time>
      </trkpt>
      <trkpt lat="45.92142" lon="6.51926">
        <ele>2252.99</ele>
        <time>2022-02-10T13:41:42Z</time>
      </trkpt>
      <trkpt lat="45.92139" lon="6.51943">
        <ele>2256.35</ele>
        <time>2022-02-10T13:42:02Z</time>
      </trkpt>
      <trkpt lat="45.92139" lon="6.51961">
        <ele>2259.24</ele>
        <time>2022-02-10T13:42:26Z</time>
      </trkpt>
      <trkpt lat="45.92139" lon="6.51978">
        <ele>2262.6</ele>
        <time>2022-02-10T13:42:47Z</time>
      </trkpt>
      <trkpt lat="45.92141" lon="6.51996">
        <ele>2265.48</ele>
        <time>2022-02-10T13:43:09Z</time>
      </trkpt>
      <trkpt lat="45.92135" lon="6.52003">
        <ele>2268.37</ele>
        <time>2022-02-10T13:43:34Z</time>
      </trkpt>
      <trkpt lat="45.92128" lon="6.51994">
        <ele>2271.73</ele>
        <time>2022-02-10T13:43:52Z</time>
      </trkpt>
      <trkpt lat="45.92117" lon="6.51984">
        <ele>2274.62</ele>
        <time>2022-02-10T13:44:13Z</time>
      </trkpt>
      <trkpt lat="45.92113" lon="6.51981">
        <ele>2275.58</ele>
        <time>2022-02-10T13:44:18Z</time>
      </trkpt>
      <trkpt lat="45.92113" lon="6.5198">
        <ele>2275.58</ele>
        <time>2022-02-10T13:44:19Z</time>
      </trkpt>
      <trkpt lat="45.92105" lon="6.51971">
        <ele>2278.94</ele>
        <time>2022-02-10T13:44:36Z</time>
      </trkpt>
      <trkpt lat="45.921" lon="6.51959">
        <ele>2281.83</ele>
        <time>2022-02-10T13:44:54Z</time>
      </trkpt>
      <trkpt lat="45.92096" lon="6.51947">
        <ele>2285.19</ele>
        <time>2022-02-10T13:45:13Z</time>
      </trkpt>
      <trkpt lat="45.92092" lon="6.5196">
        <ele>2288.56</ele>
        <time>2022-02-10T13:45:34Z</time>
      </trkpt>
      <trkpt lat="45.92088" lon="6.51974">
        <ele>2291.44</ele>
        <time>2022-02-10T13:45:52Z</time>
      </trkpt>
      <trkpt lat="45.92085" lon="6.51989">
        <ele>2294.32</ele>
        <time>2022-02-10T13:46:11Z</time>
      </trkpt>
      <trkpt lat="45.92083" lon="6.52002">
        <ele>2297.21</ele>
        <time>2022-02-10T13:46:30Z</time>
      </trkpt>
      <trkpt lat="45.92078" lon="6.52018">
        <ele>2300.57</ele>
        <time>2022-02-10T13:46:51Z</time>
      </trkpt>
      <trkpt lat="45.92075" lon="6.52034">
        <ele>2303.46</ele>
        <time>2022-02-10T13:47:11Z</time>
      </trkpt>
      <trkpt lat="45.9207" lon="6.52023">
        <ele>2306.82</ele>
        <time>2022-02-10T13:47:41Z</time>
      </trkpt>
      <trkpt lat="45.92064" lon="6.52011">
        <ele>2309.7</ele>
        <time>2022-02-10T13:48:00Z</time>
      </trkpt>
      <trkpt lat="45.92059" lon="6.51999">
        <ele>2312.59</ele>
        <time>2022-02-10T13:48:18Z</time>
      </trkpt>
      <trkpt lat="45.92056" lon="6.5199">
        <ele>2315.95</ele>
        <time>2022-02-10T13:48:38Z</time>
      </trkpt>
      <trkpt lat="45.92055" lon="6.51993">
        <ele>2316.43</ele>
        <time>2022-02-10T13:48:44Z</time>
      </trkpt>
      <trkpt lat="45.92051" lon="6.52009">
        <ele>2319.8</ele>
        <time>2022-02-10T13:49:05Z</time>
      </trkpt>
      <trkpt lat="45.92047" lon="6.52021">
        <ele>2322.68</ele>
        <time>2022-02-10T13:49:23Z</time>
      </trkpt>
      <trkpt lat="45.92037" lon="6.52021">
        <ele>2326.05</ele>
        <time>2022-02-10T13:49:52Z</time>
      </trkpt>
      <trkpt lat="45.92031" lon="6.52008">
        <ele>2328.93</ele>
        <time>2022-02-10T13:50:14Z</time>
      </trkpt>
      <trkpt lat="45.92029" lon="6.51995">
        <ele>2331.81</ele>
        <time>2022-02-10T13:50:36Z</time>
      </trkpt>
      <trkpt lat="45.92025" lon="6.5198">
        <ele>2335.18</ele>
        <time>2022-02-10T13:50:56Z</time>
      </trkpt>
      <trkpt lat="45.92024" lon="6.5198">
        <ele>2338.06</ele>
        <time>2022-02-10T13:51:22Z</time>
      </trkpt>
      <trkpt lat="45.9202" lon="6.51998">
        <ele>2341.43</ele>
        <time>2022-02-10T13:51:47Z</time>
      </trkpt>
      <trkpt lat="45.92016" lon="6.5201">
        <ele>2344.31</ele>
        <time>2022-02-10T13:52:08Z</time>
      </trkpt>
      <trkpt lat="45.92011" lon="6.52023">
        <ele>2347.2</ele>
        <time>2022-02-10T13:52:27Z</time>
      </trkpt>
      <trkpt lat="45.92008" lon="6.52028">
        <ele>2348.64</ele>
        <time>2022-02-10T13:52:46Z</time>
      </trkpt>
      <trkpt lat="45.91998" lon="6.52013">
        <ele>2351.52</ele>
        <time>2022-02-10T13:53:16Z</time>
      </trkpt>
      <trkpt lat="45.91998" lon="6.52003">
        <ele>2354.41</ele>
        <time>2022-02-10T13:53:33Z</time>
      </trkpt>
      <trkpt lat="45.91997" lon="6.51989">
        <ele>2357.77</ele>
        <time>2022-02-10T13:53:58Z</time>
      </trkpt>
      <trkpt lat="45.91997" lon="6.5199">
        <ele>2358.73</ele>
        <time>2022-02-10T13:54:13Z</time>
      </trkpt>
      <trkpt lat="45.91994" lon="6.52006">
        <ele>2362.1</ele>
        <time>2022-02-10T13:54:37Z</time>
      </trkpt>
      <trkpt lat="45.9199" lon="6.52021">
        <ele>2364.98</ele>
        <time>2022-02-10T13:54:58Z</time>
      </trkpt>
      <trkpt lat="45.91983" lon="6.52013">
        <ele>2367.86</ele>
        <time>2022-02-10T13:55:32Z</time>
      </trkpt>
      <trkpt lat="45.91982" lon="6.52001">
        <ele>2371.23</ele>
        <time>2022-02-10T13:55:54Z</time>
      </trkpt>
      <trkpt lat="45.91977" lon="6.52015">
        <ele>2374.11</ele>
        <time>2022-02-10T13:56:21Z</time>
      </trkpt>
      <trkpt lat="45.91973" lon="6.52031">
        <ele>2377</ele>
        <time>2022-02-10T13:56:43Z</time>
      </trkpt>
      <trkpt lat="45.91964" lon="6.52014">
        <ele>2380.36</ele>
        <time>2022-02-10T13:57:15Z</time>
      </trkpt>
      <trkpt lat="45.91965" lon="6.52007">
        <ele>2383.25</ele>
        <time>2022-02-10T13:57:35Z</time>
      </trkpt>
      <trkpt lat="45.91961" lon="6.52026">
        <ele>2386.61</ele>
        <time>2022-02-10T13:58:04Z</time>
      </trkpt>
      <trkpt lat="45.91957" lon="6.52011">
        <ele>2389.01</ele>
        <time>2022-02-10T13:58:44Z</time>
      </trkpt>
      <trkpt lat="45.91958" lon="6.51994">
        <ele>2390.46</ele>
        <time>2022-02-10T13:59:09Z</time>
      </trkpt>
      <trkpt lat="45.91971" lon="6.51972">
        <ele>2388.53</ele>
        <time>2022-02-10T13:59:37Z</time>
      </trkpt>
      <trkpt lat="45.91974" lon="6.51965">
        <ele>2387.57</ele>
        <time>2022-02-10T13:59:55Z</time>
      </trkpt>
      <trkpt lat="45.91975" lon="6.51964">
        <ele>2387.57</ele>
        <time>2022-02-10T13:59:56Z</time>
      </trkpt>
      <trkpt lat="45.91978" lon="6.51947">
        <ele>2384.69</ele>
        <time>2022-02-10T14:00:26Z</time>
      </trkpt>
      <trkpt lat="45.91985" lon="6.51925">
        <ele>2382.28</ele>
        <time>2022-02-10T14:01:00Z</time>
      </trkpt>
      <trkpt lat="45.91986" lon="6.51924">
        <ele>2381.8</ele>
        <time>2022-02-10T14:01:01Z</time>
      </trkpt>
      <trkpt lat="45.91984" lon="6.51923">
        <ele>2380.36</ele>
        <time>2022-02-10T14:02:09Z</time>
      </trkpt>
      <trkpt lat="45.9199" lon="6.51923">
        <ele>2380.36</ele>
        <time>2022-02-10T14:03:09Z</time>
      </trkpt>
      <trkpt lat="45.91984" lon="6.5192">
        <ele>2380.36</ele>
        <time>2022-02-10T14:03:31Z</time>
      </trkpt>
      <trkpt lat="45.91983" lon="6.5192">
        <ele>2380.36</ele>
        <time>2022-02-10T14:03:32Z</time>
      </trkpt>
      <trkpt lat="45.91983" lon="6.51921">
        <ele>2380.84</ele>
        <time>2022-02-10T14:03:41Z</time>
      </trkpt>
      <trkpt lat="45.91985" lon="6.51922">
        <ele>2380.84</ele>
        <time>2022-02-10T14:03:43Z</time>
      </trkpt>
      <trkpt lat="45.91988" lon="6.51922">
        <ele>2380.36</ele>
        <time>2022-02-10T14:03:54Z</time>
      </trkpt>
      <trkpt lat="45.91991" lon="6.51926">
        <ele>2380.36</ele>
        <time>2022-02-10T14:04:31Z</time>
      </trkpt>
      <trkpt lat="45.91991" lon="6.51926">
        <ele>2380.84</ele>
        <time>2022-02-10T14:04:40Z</time>
      </trkpt>
      <trkpt lat="45.91997" lon="6.51929">
        <ele>2380.36</ele>
        <time>2022-02-10T14:04:45Z</time>
      </trkpt>
      <trkpt lat="45.91999" lon="6.51931">
        <ele>2380.84</ele>
        <time>2022-02-10T14:04:56Z</time>
      </trkpt>
      <trkpt lat="45.91992" lon="6.51927">
        <ele>2380.84</ele>
        <time>2022-02-10T14:05:30Z</time>
      </trkpt>
      <trkpt lat="45.91989" lon="6.51926">
        <ele>2380.84</ele>
        <time>2022-02-10T14:05:38Z</time>
      </trkpt>
      <trkpt lat="45.91983" lon="6.51923">
        <ele>2380.84</ele>
        <time>2022-02-10T14:06:06Z</time>
      </trkpt>
      <trkpt lat="45.91983" lon="6.51923">
        <ele>2380.84</ele>
        <time>2022-02-10T14:06:07Z</time>
      </trkpt>
      <trkpt lat="45.91985" lon="6.51921">
        <ele>2380.84</ele>
        <time>2022-02-10T14:06:29Z</time>
      </trkpt>
      <trkpt lat="45.91985" lon="6.51922">
        <ele>2380.84</ele>
        <time>2022-02-10T14:06:33Z</time>
      </trkpt>
      <trkpt lat="45.91986" lon="6.51922">
        <ele>2380.84</ele>
        <time>2022-02-10T14:06:34Z</time>
      </trkpt>
      <trkpt lat="45.91989" lon="6.51923">
        <ele>2380.84</ele>
        <time>2022-02-10T14:06:36Z</time>
      </trkpt>
      <trkpt lat="45.9199" lon="6.51924">
        <ele>2380.84</ele>
        <time>2022-02-10T14:06:37Z</time>
      </trkpt>
      <trkpt lat="45.91991" lon="6.51926">
        <ele>2380.36</ele>
        <time>2022-02-10T14:06:58Z</time>
      </trkpt>
      <trkpt lat="45.91988" lon="6.51927">
        <ele>2380.36</ele>
        <time>2022-02-10T14:07:23Z</time>
      </trkpt>
      <trkpt lat="45.91991" lon="6.51925">
        <ele>2380.36</ele>
        <time>2022-02-10T14:07:42Z</time>
      </trkpt>
      <trkpt lat="45.9199" lon="6.51925">
        <ele>2380.36</ele>
        <time>2022-02-10T14:07:43Z</time>
      </trkpt>
      <trkpt lat="45.91983" lon="6.51922">
        <ele>2380.36</ele>
        <time>2022-02-10T14:08:23Z</time>
      </trkpt>
      <trkpt lat="45.91982" lon="6.51922">
        <ele>2380.36</ele>
        <time>2022-02-10T14:08:24Z</time>
      </trkpt>
      <trkpt lat="45.91985" lon="6.51923">
        <ele>2380.36</ele>
        <time>2022-02-10T14:08:49Z</time>
      </trkpt>
      <trkpt lat="45.91982" lon="6.51922">
        <ele>2380.36</ele>
        <time>2022-02-10T14:09:21Z</time>
      </trkpt>
      <trkpt lat="45.91986" lon="6.51924">
        <ele>2379.88</ele>
        <time>2022-02-10T14:10:15Z</time>
      </trkpt>
      <trkpt lat="45.91987" lon="6.51924">
        <ele>2380.36</ele>
        <time>2022-02-10T14:10:16Z</time>
      </trkpt>
      <trkpt lat="45.91987" lon="6.51925">
        <ele>2380.36</ele>
        <time>2022-02-10T14:10:18Z</time>
      </trkpt>
      <trkpt lat="45.91985" lon="6.51923">
        <ele>2380.36</ele>
        <time>2022-02-10T14:10:25Z</time>
      </trkpt>
      <trkpt lat="45.91984" lon="6.51923">
        <ele>2380.36</ele>
        <time>2022-02-10T14:10:37Z</time>
      </trkpt>
      <trkpt lat="45.91973" lon="6.5192">
        <ele>2380.36</ele>
        <time>2022-02-10T14:11:02Z</time>
      </trkpt>
      <trkpt lat="45.91977" lon="6.51917">
        <ele>2380.84</ele>
        <time>2022-02-10T14:12:06Z</time>
      </trkpt>
      <trkpt lat="45.91978" lon="6.51917">
        <ele>2380.36</ele>
        <time>2022-02-10T14:12:07Z</time>
      </trkpt>
      <trkpt lat="45.91979" lon="6.51918">
        <ele>2380.36</ele>
        <time>2022-02-10T14:12:09Z</time>
      </trkpt>
      <trkpt lat="45.91982" lon="6.51923">
        <ele>2380.36</ele>
        <time>2022-02-10T14:13:05Z</time>
      </trkpt>
      <trkpt lat="45.91983" lon="6.51923">
        <ele>2380.84</ele>
        <time>2022-02-10T14:13:08Z</time>
      </trkpt>
      <trkpt lat="45.91982" lon="6.51923">
        <ele>2380.84</ele>
        <time>2022-02-10T14:13:14Z</time>
      </trkpt>
      <trkpt lat="45.91985" lon="6.51918">
        <ele>2381.8</ele>
        <time>2022-02-10T14:13:30Z</time>
      </trkpt>
      <trkpt lat="45.91984" lon="6.51918">
        <ele>2381.32</ele>
        <time>2022-02-10T14:13:31Z</time>
      </trkpt>
      <trkpt lat="45.91982" lon="6.51914">
        <ele>2384.69</ele>
        <time>2022-02-10T14:13:47Z</time>
      </trkpt>
      <trkpt lat="45.91984" lon="6.51906">
        <ele>2387.57</ele>
        <time>2022-02-10T14:14:06Z</time>
      </trkpt>
      <trkpt lat="45.91985" lon="6.51906">
        <ele>2387.57</ele>
        <time>2022-02-10T14:14:07Z</time>
      </trkpt>
      <trkpt lat="45.91986" lon="6.51905">
        <ele>2387.57</ele>
        <time>2022-02-10T14:14:08Z</time>
      </trkpt>
      <trkpt lat="45.91984" lon="6.51904">
        <ele>2389.01</ele>
        <time>2022-02-10T14:14:13Z</time>
      </trkpt>
      <trkpt lat="45.91983" lon="6.51904">
        <ele>2389.01</ele>
        <time>2022-02-10T14:14:14Z</time>
      </trkpt>
      <trkpt lat="45.91983" lon="6.51902">
        <ele>2390.46</ele>
        <time>2022-02-10T14:14:31Z</time>
      </trkpt>
      <trkpt lat="45.91991" lon="6.51901">
        <ele>2390.94</ele>
        <time>2022-02-10T14:14:44Z</time>
      </trkpt>
      <trkpt lat="45.91992" lon="6.51897">
        <ele>2393.82</ele>
        <time>2022-02-10T14:15:02Z</time>
      </trkpt>
      <trkpt lat="45.9201" lon="6.5188">
        <ele>2394.3</ele>
        <time>2022-02-10T14:15:34Z</time>
      </trkpt>
      <trkpt lat="45.92012" lon="6.51877">
        <ele>2394.78</ele>
        <time>2022-02-10T14:15:37Z</time>
      </trkpt>
      <trkpt lat="45.92024" lon="6.5186">
        <ele>2395.26</ele>
        <time>2022-02-10T14:16:01Z</time>
      </trkpt>
      <trkpt lat="45.92024" lon="6.51859">
        <ele>2395.26</ele>
        <time>2022-02-10T14:16:03Z</time>
      </trkpt>
      <trkpt lat="45.92025" lon="6.51839">
        <ele>2398.63</ele>
        <time>2022-02-10T14:16:28Z</time>
      </trkpt>
      <trkpt lat="45.92021" lon="6.51836">
        <ele>2401.51</ele>
        <time>2022-02-10T14:17:20Z</time>
      </trkpt>
      <trkpt lat="45.92021" lon="6.51836">
        <ele>2401.03</ele>
        <time>2022-02-10T14:18:40Z</time>
      </trkpt>
      <trkpt lat="45.9202" lon="6.51838">
        <ele>2400.55</ele>
        <time>2022-02-10T14:21:02Z</time>
      </trkpt>
      <trkpt lat="45.92021" lon="6.51836">
        <ele>2400.55</ele>
        <time>2022-02-10T14:21:52Z</time>
      </trkpt>
      <trkpt lat="45.92021" lon="6.51835">
        <ele>2400.07</ele>
        <time>2022-02-10T14:22:46Z</time>
      </trkpt>
      <trkpt lat="45.92021" lon="6.51835">
        <ele>2401.03</ele>
        <time>2022-02-10T14:23:40Z</time>
      </trkpt>
      <trkpt lat="45.9202" lon="6.51832">
        <ele>2399.59</ele>
        <time>2022-02-10T14:24:29Z</time>
      </trkpt>
      <trkpt lat="45.92021" lon="6.5183">
        <ele>2399.11</ele>
        <time>2022-02-10T14:24:30Z</time>
      </trkpt>
      <trkpt lat="45.92022" lon="6.51827">
        <ele>2398.15</ele>
        <time>2022-02-10T14:24:31Z</time>
      </trkpt>
      <trkpt lat="45.92023" lon="6.51826">
        <ele>2397.18</ele>
        <time>2022-02-10T14:24:32Z</time>
      </trkpt>
      <trkpt lat="45.92024" lon="6.51824">
        <ele>2397.18</ele>
        <time>2022-02-10T14:24:33Z</time>
      </trkpt>
      <trkpt lat="45.92025" lon="6.51823">
        <ele>2396.22</ele>
        <time>2022-02-10T14:24:34Z</time>
      </trkpt>
      <trkpt lat="45.92025" lon="6.5182">
        <ele>2395.26</ele>
        <time>2022-02-10T14:24:36Z</time>
      </trkpt>
      <trkpt lat="45.92024" lon="6.51818">
        <ele>2394.3</ele>
        <time>2022-02-10T14:24:37Z</time>
      </trkpt>
      <trkpt lat="45.92022" lon="6.51815">
        <ele>2392.86</ele>
        <time>2022-02-10T14:24:38Z</time>
      </trkpt>
      <trkpt lat="45.92023" lon="6.51812">
        <ele>2391.42</ele>
        <time>2022-02-10T14:24:39Z</time>
      </trkpt>
      <trkpt lat="45.92025" lon="6.51808">
        <ele>2389.49</ele>
        <time>2022-02-10T14:24:40Z</time>
      </trkpt>
      <trkpt lat="45.92026" lon="6.51806">
        <ele>2388.05</ele>
        <time>2022-02-10T14:24:41Z</time>
      </trkpt>
      <trkpt lat="45.92026" lon="6.51804">
        <ele>2386.61</ele>
        <time>2022-02-10T14:24:42Z</time>
      </trkpt>
      <trkpt lat="45.92024" lon="6.51803">
        <ele>2385.17</ele>
        <time>2022-02-10T14:24:43Z</time>
      </trkpt>
      <trkpt lat="45.92023" lon="6.51801">
        <ele>2384.69</ele>
        <time>2022-02-10T14:24:44Z</time>
      </trkpt>
      <trkpt lat="45.92023" lon="6.51798">
        <ele>2383.25</ele>
        <time>2022-02-10T14:24:45Z</time>
      </trkpt>
      <trkpt lat="45.92024" lon="6.51795">
        <ele>2381.8</ele>
        <time>2022-02-10T14:24:46Z</time>
      </trkpt>
      <trkpt lat="45.92024" lon="6.51791">
        <ele>2379.4</ele>
        <time>2022-02-10T14:24:48Z</time>
      </trkpt>
      <trkpt lat="45.92023" lon="6.51789">
        <ele>2377.96</ele>
        <time>2022-02-10T14:24:49Z</time>
      </trkpt>
      <trkpt lat="45.92023" lon="6.51787">
        <ele>2377</ele>
        <time>2022-02-10T14:24:50Z</time>
      </trkpt>
      <trkpt lat="45.92023" lon="6.51784">
        <ele>2376.04</ele>
        <time>2022-02-10T14:24:51Z</time>
      </trkpt>
      <trkpt lat="45.92024" lon="6.51782">
        <ele>2374.59</ele>
        <time>2022-02-10T14:24:52Z</time>
      </trkpt>
      <trkpt lat="45.92024" lon="6.51781">
        <ele>2373.15</ele>
        <time>2022-02-10T14:24:53Z</time>
      </trkpt>
      <trkpt lat="45.92024" lon="6.51777">
        <ele>2369.79</ele>
        <time>2022-02-10T14:24:57Z</time>
      </trkpt>
      <trkpt lat="45.92025" lon="6.51775">
        <ele>2368.83</ele>
        <time>2022-02-10T14:24:58Z</time>
      </trkpt>
      <trkpt lat="45.92024" lon="6.51773">
        <ele>2367.86</ele>
        <time>2022-02-10T14:24:59Z</time>
      </trkpt>
      <trkpt lat="45.92023" lon="6.51772">
        <ele>2366.42</ele>
        <time>2022-02-10T14:25:00Z</time>
      </trkpt>
      <trkpt lat="45.92024" lon="6.51769">
        <ele>2364.98</ele>
        <time>2022-02-10T14:25:03Z</time>
      </trkpt>
      <trkpt lat="45.92024" lon="6.51767">
        <ele>2364.02</ele>
        <time>2022-02-10T14:25:04Z</time>
      </trkpt>
      <trkpt lat="45.92024" lon="6.51765">
        <ele>2362.58</ele>
        <time>2022-02-10T14:25:05Z</time>
      </trkpt>
      <trkpt lat="45.92023" lon="6.51763">
        <ele>2361.62</ele>
        <time>2022-02-10T14:25:06Z</time>
      </trkpt>
      <trkpt lat="45.92023" lon="6.51759">
        <ele>2360.65</ele>
        <time>2022-02-10T14:25:07Z</time>
      </trkpt>
      <trkpt lat="45.92025" lon="6.51755">
        <ele>2358.73</ele>
        <time>2022-02-10T14:25:08Z</time>
      </trkpt>
      <trkpt lat="45.92028" lon="6.51751">
        <ele>2356.81</ele>
        <time>2022-02-10T14:25:09Z</time>
      </trkpt>
      <trkpt lat="45.9203" lon="6.51749">
        <ele>2355.37</ele>
        <time>2022-02-10T14:25:10Z</time>
      </trkpt>
      <trkpt lat="45.92031" lon="6.51746">
        <ele>2353.93</ele>
        <time>2022-02-10T14:25:11Z</time>
      </trkpt>
      <trkpt lat="45.92032" lon="6.51745">
        <ele>2353.44</ele>
        <time>2022-02-10T14:25:12Z</time>
      </trkpt>
      <trkpt lat="45.92033" lon="6.51741">
        <ele>2352.48</ele>
        <time>2022-02-10T14:25:14Z</time>
      </trkpt>
      <trkpt lat="45.92032" lon="6.51738">
        <ele>2351.52</ele>
        <time>2022-02-10T14:25:15Z</time>
      </trkpt>
      <trkpt lat="45.9203" lon="6.51738">
        <ele>2350.56</ele>
        <time>2022-02-10T14:25:16Z</time>
      </trkpt>
      <trkpt lat="45.92027" lon="6.51737">
        <ele>2349.6</ele>
        <time>2022-02-10T14:25:17Z</time>
      </trkpt>
      <trkpt lat="45.92025" lon="6.51733">
        <ele>2348.64</ele>
        <time>2022-02-10T14:25:18Z</time>
      </trkpt>
      <trkpt lat="45.92027" lon="6.51729">
        <ele>2346.23</ele>
        <time>2022-02-10T14:25:19Z</time>
      </trkpt>
      <trkpt lat="45.92028" lon="6.51723">
        <ele>2344.31</ele>
        <time>2022-02-10T14:25:20Z</time>
      </trkpt>
      <trkpt lat="45.92028" lon="6.51721">
        <ele>2342.39</ele>
        <time>2022-02-10T14:25:21Z</time>
      </trkpt>
      <trkpt lat="45.92025" lon="6.51719">
        <ele>2339.99</ele>
        <time>2022-02-10T14:25:22Z</time>
      </trkpt>
      <trkpt lat="45.92023" lon="6.51712">
        <ele>2338.06</ele>
        <time>2022-02-10T14:25:23Z</time>
      </trkpt>
      <trkpt lat="45.92023" lon="6.51706">
        <ele>2335.18</ele>
        <time>2022-02-10T14:25:24Z</time>
      </trkpt>
      <trkpt lat="45.92022" lon="6.51701">
        <ele>2332.3</ele>
        <time>2022-02-10T14:25:25Z</time>
      </trkpt>
      <trkpt lat="45.92019" lon="6.51698">
        <ele>2329.41</ele>
        <time>2022-02-10T14:25:26Z</time>
      </trkpt>
      <trkpt lat="45.92016" lon="6.51692">
        <ele>2326.05</ele>
        <time>2022-02-10T14:25:27Z</time>
      </trkpt>
      <trkpt lat="45.92012" lon="6.51686">
        <ele>2323.64</ele>
        <time>2022-02-10T14:25:28Z</time>
      </trkpt>
      <trkpt lat="45.92004" lon="6.51682">
        <ele>2318.36</ele>
        <time>2022-02-10T14:25:29Z</time>
      </trkpt>
      <trkpt lat="45.91997" lon="6.51683">
        <ele>2314.99</ele>
        <time>2022-02-10T14:25:30Z</time>
      </trkpt>
      <trkpt lat="45.91988" lon="6.51684">
        <ele>2312.59</ele>
        <time>2022-02-10T14:25:31Z</time>
      </trkpt>
      <trkpt lat="45.9198" lon="6.51683">
        <ele>2311.15</ele>
        <time>2022-02-10T14:25:32Z</time>
      </trkpt>
      <trkpt lat="45.91973" lon="6.51683">
        <ele>2309.7</ele>
        <time>2022-02-10T14:25:33Z</time>
      </trkpt>
      <trkpt lat="45.91967" lon="6.51684">
        <ele>2308.26</ele>
        <time>2022-02-10T14:25:34Z</time>
      </trkpt>
      <trkpt lat="45.91963" lon="6.51685">
        <ele>2307.78</ele>
        <time>2022-02-10T14:25:35Z</time>
      </trkpt>
      <trkpt lat="45.91959" lon="6.51686">
        <ele>2307.78</ele>
        <time>2022-02-10T14:25:36Z</time>
      </trkpt>
      <trkpt lat="45.91935" lon="6.51685">
        <ele>2304.42</ele>
        <time>2022-02-10T14:25:42Z</time>
      </trkpt>
      <trkpt lat="45.91916" lon="6.5168">
        <ele>2302.01</ele>
        <time>2022-02-10T14:25:47Z</time>
      </trkpt>
      <trkpt lat="45.91917" lon="6.51676">
        <ele>2301.53</ele>
        <time>2022-02-10T14:25:48Z</time>
      </trkpt>
      <trkpt lat="45.91919" lon="6.5167">
        <ele>2298.17</ele>
        <time>2022-02-10T14:25:50Z</time>
      </trkpt>
      <trkpt lat="45.91918" lon="6.51669">
        <ele>2296.25</ele>
        <time>2022-02-10T14:25:51Z</time>
      </trkpt>
      <trkpt lat="45.91908" lon="6.51667">
        <ele>2293.36</ele>
        <time>2022-02-10T14:26:03Z</time>
      </trkpt>
      <trkpt lat="45.91907" lon="6.5167">
        <ele>2293.36</ele>
        <time>2022-02-10T14:26:55Z</time>
      </trkpt>
      <trkpt lat="45.91908" lon="6.5167">
        <ele>2293.36</ele>
        <time>2022-02-10T14:26:56Z</time>
      </trkpt>
      <trkpt lat="45.91909" lon="6.51671">
        <ele>2292.88</ele>
        <time>2022-02-10T14:27:52Z</time>
      </trkpt>
      <trkpt lat="45.91907" lon="6.51671">
        <ele>2293.36</ele>
        <time>2022-02-10T14:28:18Z</time>
      </trkpt>
      <trkpt lat="45.91906" lon="6.51671">
        <ele>2293.36</ele>
        <time>2022-02-10T14:28:46Z</time>
      </trkpt>
      <trkpt lat="45.91907" lon="6.51671">
        <ele>2292.88</ele>
        <time>2022-02-10T14:29:52Z</time>
      </trkpt>
      <trkpt lat="45.91906" lon="6.51672">
        <ele>2292.88</ele>
        <time>2022-02-10T14:29:58Z</time>
      </trkpt>
      <trkpt lat="45.91906" lon="6.51671">
        <ele>2293.36</ele>
        <time>2022-02-10T14:30:39Z</time>
      </trkpt>
      <trkpt lat="45.91903" lon="6.51671">
        <ele>2293.84</ele>
        <time>2022-02-10T14:31:52Z</time>
      </trkpt>
      <trkpt lat="45.91896" lon="6.51675">
        <ele>2294.8</ele>
        <time>2022-02-10T14:32:01Z</time>
      </trkpt>
      <trkpt lat="45.91894" lon="6.51675">
        <ele>2294.8</ele>
        <time>2022-02-10T14:32:02Z</time>
      </trkpt>
      <trkpt lat="45.91893" lon="6.51676">
        <ele>2295.28</ele>
        <time>2022-02-10T14:32:03Z</time>
      </trkpt>
      <trkpt lat="45.91892" lon="6.51676">
        <ele>2295.28</ele>
        <time>2022-02-10T14:32:04Z</time>
      </trkpt>
      <trkpt lat="45.91891" lon="6.51676">
        <ele>2295.28</ele>
        <time>2022-02-10T14:32:05Z</time>
      </trkpt>
      <trkpt lat="45.9189" lon="6.51676">
        <ele>2295.28</ele>
        <time>2022-02-10T14:32:06Z</time>
      </trkpt>
      <trkpt lat="45.91886" lon="6.51677">
        <ele>2295.77</ele>
        <time>2022-02-10T14:32:10Z</time>
      </trkpt>
      <trkpt lat="45.91884" lon="6.51677">
        <ele>2295.77</ele>
        <time>2022-02-10T14:32:11Z</time>
      </trkpt>
      <trkpt lat="45.91868" lon="6.51668">
        <ele>2297.69</ele>
        <time>2022-02-10T14:32:28Z</time>
      </trkpt>
      <trkpt lat="45.91867" lon="6.51667">
        <ele>2297.69</ele>
        <time>2022-02-10T14:32:29Z</time>
      </trkpt>
      <trkpt lat="45.91866" lon="6.51664">
        <ele>2298.17</ele>
        <time>2022-02-10T14:32:32Z</time>
      </trkpt>
      <trkpt lat="45.91864" lon="6.51661">
        <ele>2298.65</ele>
        <time>2022-02-10T14:32:37Z</time>
      </trkpt>
      <trkpt lat="45.91858" lon="6.51648">
        <ele>2302.01</ele>
        <time>2022-02-10T14:32:55Z</time>
      </trkpt>
      <trkpt lat="45.91857" lon="6.51646">
        <ele>2304.9</ele>
        <time>2022-02-10T14:33:14Z</time>
      </trkpt>
      <trkpt lat="45.91857" lon="6.51648">
        <ele>2304.9</ele>
        <time>2022-02-10T14:33:15Z</time>
      </trkpt>
      <trkpt lat="45.91852" lon="6.51645">
        <ele>2307.78</ele>
        <time>2022-02-10T14:33:30Z</time>
      </trkpt>
      <trkpt lat="45.91848" lon="6.5164">
        <ele>2310.67</ele>
        <time>2022-02-10T14:33:44Z</time>
      </trkpt>
      <trkpt lat="45.91843" lon="6.51646">
        <ele>2312.59</ele>
        <time>2022-02-10T14:33:54Z</time>
      </trkpt>
      <trkpt lat="45.91841" lon="6.51645">
        <ele>2313.07</ele>
        <time>2022-02-10T14:33:56Z</time>
      </trkpt>
      <trkpt lat="45.91833" lon="6.51636">
        <ele>2316.43</ele>
        <time>2022-02-10T14:34:13Z</time>
      </trkpt>
      <trkpt lat="45.91824" lon="6.51641">
        <ele>2319.32</ele>
        <time>2022-02-10T14:34:33Z</time>
      </trkpt>
      <trkpt lat="45.91822" lon="6.51641">
        <ele>2319.32</ele>
        <time>2022-02-10T14:34:35Z</time>
      </trkpt>
      <trkpt lat="45.9181" lon="6.51638">
        <ele>2320.76</ele>
        <time>2022-02-10T14:34:47Z</time>
      </trkpt>
      <trkpt lat="45.9181" lon="6.51637">
        <ele>2320.76</ele>
        <time>2022-02-10T14:34:48Z</time>
      </trkpt>
      <trkpt lat="45.91805" lon="6.51634">
        <ele>2321.72</ele>
        <time>2022-02-10T14:34:54Z</time>
      </trkpt>
      <trkpt lat="45.91804" lon="6.51633">
        <ele>2321.72</ele>
        <time>2022-02-10T14:34:55Z</time>
      </trkpt>
      <trkpt lat="45.9179" lon="6.51623">
        <ele>2324.61</ele>
        <time>2022-02-10T14:35:15Z</time>
      </trkpt>
      <trkpt lat="45.91776" lon="6.51614">
        <ele>2327.97</ele>
        <time>2022-02-10T14:35:33Z</time>
      </trkpt>
      <trkpt lat="45.91763" lon="6.51607">
        <ele>2330.85</ele>
        <time>2022-02-10T14:35:50Z</time>
      </trkpt>
      <trkpt lat="45.91757" lon="6.51604">
        <ele>2332.3</ele>
        <time>2022-02-10T14:35:58Z</time>
      </trkpt>
      <trkpt lat="45.91756" lon="6.51604">
        <ele>2332.78</ele>
        <time>2022-02-10T14:35:59Z</time>
      </trkpt>
      <trkpt lat="45.91755" lon="6.51603">
        <ele>2332.78</ele>
        <time>2022-02-10T14:36:00Z</time>
      </trkpt>
      <trkpt lat="45.91741" lon="6.51599">
        <ele>2336.14</ele>
        <time>2022-02-10T14:36:16Z</time>
      </trkpt>
      <trkpt lat="45.91725" lon="6.51601">
        <ele>2339.02</ele>
        <time>2022-02-10T14:36:33Z</time>
      </trkpt>
      <trkpt lat="45.91723" lon="6.51601">
        <ele>2342.39</ele>
        <time>2022-02-10T14:36:47Z</time>
      </trkpt>
      <trkpt lat="45.91707" lon="6.51607">
        <ele>2343.83</ele>
        <time>2022-02-10T14:37:06Z</time>
      </trkpt>
      <trkpt lat="45.91704" lon="6.51608">
        <ele>2343.83</ele>
        <time>2022-02-10T14:37:10Z</time>
      </trkpt>
      <trkpt lat="45.91703" lon="6.51608">
        <ele>2343.83</ele>
        <time>2022-02-10T14:37:11Z</time>
      </trkpt>
      <trkpt lat="45.91701" lon="6.51608">
        <ele>2344.31</ele>
        <time>2022-02-10T14:37:13Z</time>
      </trkpt>
      <trkpt lat="45.917" lon="6.51608">
        <ele>2344.79</ele>
        <time>2022-02-10T14:37:14Z</time>
      </trkpt>
      <trkpt lat="45.91699" lon="6.51608">
        <ele>2344.79</ele>
        <time>2022-02-10T14:37:15Z</time>
      </trkpt>
      <trkpt lat="45.91698" lon="6.51608">
        <ele>2344.79</ele>
        <time>2022-02-10T14:37:16Z</time>
      </trkpt>
      <trkpt lat="45.91697" lon="6.51608">
        <ele>2345.27</ele>
        <time>2022-02-10T14:37:17Z</time>
      </trkpt>
      <trkpt lat="45.91693" lon="6.51608">
        <ele>2346.23</ele>
        <time>2022-02-10T14:37:21Z</time>
      </trkpt>
      <trkpt lat="45.91692" lon="6.51607">
        <ele>2346.23</ele>
        <time>2022-02-10T14:37:22Z</time>
      </trkpt>
      <trkpt lat="45.91683" lon="6.51601">
        <ele>2349.6</ele>
        <time>2022-02-10T14:37:40Z</time>
      </trkpt>
      <trkpt lat="45.91682" lon="6.51601">
        <ele>2350.56</ele>
        <time>2022-02-10T14:37:46Z</time>
      </trkpt>
      <trkpt lat="45.91682" lon="6.51603">
        <ele>2351.04</ele>
        <time>2022-02-10T14:37:49Z</time>
      </trkpt>
      <trkpt lat="45.9167" lon="6.51618">
        <ele>2352.96</ele>
        <time>2022-02-10T14:38:07Z</time>
      </trkpt>
      <trkpt lat="45.91669" lon="6.51618">
        <ele>2352.96</ele>
        <time>2022-02-10T14:38:09Z</time>
      </trkpt>
      <trkpt lat="45.91659" lon="6.5161">
        <ele>2354.89</ele>
        <time>2022-02-10T14:38:23Z</time>
      </trkpt>
      <trkpt lat="45.91656" lon="6.51607">
        <ele>2355.37</ele>
        <time>2022-02-10T14:38:28Z</time>
      </trkpt>
      <trkpt lat="45.91638" lon="6.51593">
        <ele>2357.29</ele>
        <time>2022-02-10T14:38:48Z</time>
      </trkpt>
      <trkpt lat="45.91619" lon="6.5158">
        <ele>2360.17</ele>
        <time>2022-02-10T14:39:09Z</time>
      </trkpt>
      <trkpt lat="45.91603" lon="6.51568">
        <ele>2362.58</ele>
        <time>2022-02-10T14:39:30Z</time>
      </trkpt>
      <trkpt lat="45.916" lon="6.51564">
        <ele>2363.54</ele>
        <time>2022-02-10T14:39:34Z</time>
      </trkpt>
      <trkpt lat="45.916" lon="6.51563">
        <ele>2363.54</ele>
        <time>2022-02-10T14:39:35Z</time>
      </trkpt>
      <trkpt lat="45.91599" lon="6.51562">
        <ele>2363.54</ele>
        <time>2022-02-10T14:39:36Z</time>
      </trkpt>
      <trkpt lat="45.91598" lon="6.5156">
        <ele>2363.54</ele>
        <time>2022-02-10T14:39:38Z</time>
      </trkpt>
      <trkpt lat="45.91597" lon="6.51557">
        <ele>2363.54</ele>
        <time>2022-02-10T14:39:40Z</time>
      </trkpt>
      <trkpt lat="45.91596" lon="6.51556">
        <ele>2364.02</ele>
        <time>2022-02-10T14:39:41Z</time>
      </trkpt>
      <trkpt lat="45.91596" lon="6.51555">
        <ele>2364.02</ele>
        <time>2022-02-10T14:39:42Z</time>
      </trkpt>
      <trkpt lat="45.91595" lon="6.51554">
        <ele>2364.02</ele>
        <time>2022-02-10T14:39:43Z</time>
      </trkpt>
      <trkpt lat="45.91594" lon="6.51553">
        <ele>2364.02</ele>
        <time>2022-02-10T14:39:44Z</time>
      </trkpt>
      <trkpt lat="45.91593" lon="6.51552">
        <ele>2364.02</ele>
        <time>2022-02-10T14:39:45Z</time>
      </trkpt>
      <trkpt lat="45.91592" lon="6.5155">
        <ele>2364.02</ele>
        <time>2022-02-10T14:39:46Z</time>
      </trkpt>
      <trkpt lat="45.91583" lon="6.51532">
        <ele>2366.9</ele>
        <time>2022-02-10T14:40:04Z</time>
      </trkpt>
      <trkpt lat="45.91583" lon="6.5153">
        <ele>2367.38</ele>
        <time>2022-02-10T14:40:05Z</time>
      </trkpt>
      <trkpt lat="45.9158" lon="6.51516">
        <ele>2370.27</ele>
        <time>2022-02-10T14:40:19Z</time>
      </trkpt>
      <trkpt lat="45.9158" lon="6.51515">
        <ele>2370.75</ele>
        <time>2022-02-10T14:40:20Z</time>
      </trkpt>
      <trkpt lat="45.91582" lon="6.51503">
        <ele>2373.63</ele>
        <time>2022-02-10T14:40:39Z</time>
      </trkpt>
      <trkpt lat="45.91582" lon="6.51496">
        <ele>2374.11</ele>
        <time>2022-02-10T14:40:45Z</time>
      </trkpt>
      <trkpt lat="45.91578" lon="6.51482">
        <ele>2377</ele>
        <time>2022-02-10T14:41:00Z</time>
      </trkpt>
      <trkpt lat="45.91574" lon="6.51461">
        <ele>2380.36</ele>
        <time>2022-02-10T14:41:21Z</time>
      </trkpt>
      <trkpt lat="45.91573" lon="6.51442">
        <ele>2383.25</ele>
        <time>2022-02-10T14:41:39Z</time>
      </trkpt>
      <trkpt lat="45.91572" lon="6.5143">
        <ele>2386.61</ele>
        <time>2022-02-10T14:41:54Z</time>
      </trkpt>
      <trkpt lat="45.91572" lon="6.51418">
        <ele>2389.49</ele>
        <time>2022-02-10T14:42:08Z</time>
      </trkpt>
      <trkpt lat="45.91567" lon="6.5142">
        <ele>2390.94</ele>
        <time>2022-02-10T14:42:58Z</time>
      </trkpt>
      <trkpt lat="45.91569" lon="6.51421">
        <ele>2390.94</ele>
        <time>2022-02-10T14:44:10Z</time>
      </trkpt>
      <trkpt lat="45.91567" lon="6.5142">
        <ele>2391.42</ele>
        <time>2022-02-10T14:44:50Z</time>
      </trkpt>
      <trkpt lat="45.91568" lon="6.51421">
        <ele>2390.94</ele>
        <time>2022-02-10T14:45:26Z</time>
      </trkpt>
      <trkpt lat="45.91569" lon="6.51413">
        <ele>2393.82</ele>
        <time>2022-02-10T14:46:35Z</time>
      </trkpt>
      <trkpt lat="45.91568" lon="6.51408">
        <ele>2397.18</ele>
        <time>2022-02-10T14:46:49Z</time>
      </trkpt>
      <trkpt lat="45.91566" lon="6.51402">
        <ele>2400.55</ele>
        <time>2022-02-10T14:47:05Z</time>
      </trkpt>
      <trkpt lat="45.91566" lon="6.51397">
        <ele>2403.43</ele>
        <time>2022-02-10T14:47:18Z</time>
      </trkpt>
      <trkpt lat="45.91567" lon="6.51392">
        <ele>2406.32</ele>
        <time>2022-02-10T14:47:27Z</time>
      </trkpt>
      <trkpt lat="45.91568" lon="6.51391">
        <ele>2408.72</ele>
        <time>2022-02-10T14:47:33Z</time>
      </trkpt>
      <trkpt lat="45.91567" lon="6.51379">
        <ele>2412.09</ele>
        <time>2022-02-10T14:48:08Z</time>
      </trkpt>
      <trkpt lat="45.91568" lon="6.51374">
        <ele>2414.97</ele>
        <time>2022-02-10T14:48:19Z</time>
      </trkpt>
      <trkpt lat="45.91567" lon="6.51368">
        <ele>2418.33</ele>
        <time>2022-02-10T14:48:38Z</time>
      </trkpt>
      <trkpt lat="45.91572" lon="6.51359">
        <ele>2421.22</ele>
        <time>2022-02-10T14:49:06Z</time>
      </trkpt>
      <trkpt lat="45.91576" lon="6.51354">
        <ele>2424.58</ele>
        <time>2022-02-10T14:49:27Z</time>
      </trkpt>
      <trkpt lat="45.91577" lon="6.51353">
        <ele>2427.95</ele>
        <time>2022-02-10T14:49:46Z</time>
      </trkpt>
      <trkpt lat="45.9158" lon="6.51351">
        <ele>2431.31</ele>
        <time>2022-02-10T14:50:01Z</time>
      </trkpt>
      <trkpt lat="45.91581" lon="6.51341">
        <ele>2434.68</ele>
        <time>2022-02-10T14:50:21Z</time>
      </trkpt>
      <trkpt lat="45.9158" lon="6.51332">
        <ele>2437.56</ele>
        <time>2022-02-10T14:50:44Z</time>
      </trkpt>
      <trkpt lat="45.91577" lon="6.5132">
        <ele>2440.92</ele>
        <time>2022-02-10T14:51:09Z</time>
      </trkpt>
      <trkpt lat="45.91575" lon="6.51312">
        <ele>2443.81</ele>
        <time>2022-02-10T14:51:23Z</time>
      </trkpt>
      <trkpt lat="45.91577" lon="6.51296">
        <ele>2445.25</ele>
        <time>2022-02-10T14:51:44Z</time>
      </trkpt>
      <trkpt lat="45.91578" lon="6.51283">
        <ele>2448.62</ele>
        <time>2022-02-10T14:52:08Z</time>
      </trkpt>
      <trkpt lat="45.91589" lon="6.51279">
        <ele>2449.58</ele>
        <time>2022-02-10T14:52:16Z</time>
      </trkpt>
      <trkpt lat="45.9159" lon="6.51278">
        <ele>2450.06</ele>
        <time>2022-02-10T14:52:17Z</time>
      </trkpt>
      <trkpt lat="45.91592" lon="6.51274">
        <ele>2451.5</ele>
        <time>2022-02-10T14:52:23Z</time>
      </trkpt>
      <trkpt lat="45.91583" lon="6.51273">
        <ele>2452.94</ele>
        <time>2022-02-10T14:52:31Z</time>
      </trkpt>
      <trkpt lat="45.9158" lon="6.51273">
        <ele>2453.42</ele>
        <time>2022-02-10T14:52:58Z</time>
      </trkpt>
      <trkpt lat="45.91583" lon="6.5127">
        <ele>2453.42</ele>
        <time>2022-02-10T14:53:14Z</time>
      </trkpt>
      <trkpt lat="45.91583" lon="6.51269">
        <ele>2453.42</ele>
        <time>2022-02-10T14:53:21Z</time>
      </trkpt>
      <trkpt lat="45.91581" lon="6.51269">
        <ele>2453.42</ele>
        <time>2022-02-10T14:53:26Z</time>
      </trkpt>
      <trkpt lat="45.9158" lon="6.5127">
        <ele>2453.42</ele>
        <time>2022-02-10T14:53:28Z</time>
      </trkpt>
      <trkpt lat="45.9158" lon="6.51272">
        <ele>2453.42</ele>
        <time>2022-02-10T14:54:09Z</time>
      </trkpt>
      <trkpt lat="45.91579" lon="6.51274">
        <ele>2453.9</ele>
        <time>2022-02-10T14:54:12Z</time>
      </trkpt>
      <trkpt lat="45.91581" lon="6.5128">
        <ele>2453.42</ele>
        <time>2022-02-10T14:55:00Z</time>
      </trkpt>
      <trkpt lat="45.91579" lon="6.51282">
        <ele>2453.42</ele>
        <time>2022-02-10T14:55:11Z</time>
      </trkpt>
      <trkpt lat="45.91578" lon="6.51284">
        <ele>2453.42</ele>
        <time>2022-02-10T14:55:13Z</time>
      </trkpt>
      <trkpt lat="45.91577" lon="6.51286">
        <ele>2453.42</ele>
        <time>2022-02-10T14:55:16Z</time>
      </trkpt>
      <trkpt lat="45.91578" lon="6.51282">
        <ele>2453.9</ele>
        <time>2022-02-10T14:55:37Z</time>
      </trkpt>
      <trkpt lat="45.91578" lon="6.51279">
        <ele>2453.9</ele>
        <time>2022-02-10T14:55:39Z</time>
      </trkpt>
      <trkpt lat="45.91577" lon="6.51279">
        <ele>2453.9</ele>
        <time>2022-02-10T14:55:45Z</time>
      </trkpt>
      <trkpt lat="45.91582" lon="6.51273">
        <ele>2454.38</ele>
        <time>2022-02-10T14:56:08Z</time>
      </trkpt>
      <trkpt lat="45.91584" lon="6.51273">
        <ele>2453.9</ele>
        <time>2022-02-10T14:56:55Z</time>
      </trkpt>
      <trkpt lat="45.91581" lon="6.51273">
        <ele>2453.42</ele>
        <time>2022-02-10T14:57:10Z</time>
      </trkpt>
      <trkpt lat="45.9158" lon="6.51268">
        <ele>2453.42</ele>
        <time>2022-02-10T14:57:15Z</time>
      </trkpt>
      <trkpt lat="45.91579" lon="6.51267">
        <ele>2453.9</ele>
        <time>2022-02-10T14:57:19Z</time>
      </trkpt>
      <trkpt lat="45.91578" lon="6.51267">
        <ele>2453.9</ele>
        <time>2022-02-10T14:57:20Z</time>
      </trkpt>
      <trkpt lat="45.91586" lon="6.51266">
        <ele>2453.42</ele>
        <time>2022-02-10T14:57:59Z</time>
      </trkpt>
      <trkpt lat="45.91579" lon="6.5128">
        <ele>2453.42</ele>
        <time>2022-02-10T14:58:30Z</time>
      </trkpt>
      <trkpt lat="45.91579" lon="6.5128">
        <ele>2453.42</ele>
        <time>2022-02-10T14:58:50Z</time>
      </trkpt>
      <trkpt lat="45.91583" lon="6.51273">
        <ele>2453.42</ele>
        <time>2022-02-10T14:59:10Z</time>
      </trkpt>
      <trkpt lat="45.91585" lon="6.51269">
        <ele>2453.42</ele>
        <time>2022-02-10T14:59:38Z</time>
      </trkpt>
      <trkpt lat="45.91584" lon="6.51262">
        <ele>2450.54</ele>
        <time>2022-02-10T14:59:59Z</time>
      </trkpt>
      <trkpt lat="45.91585" lon="6.51258">
        <ele>2450.54</ele>
        <time>2022-02-10T15:00:00Z</time>
      </trkpt>
      <trkpt lat="45.91586" lon="6.51251">
        <ele>2447.65</ele>
        <time>2022-02-10T15:00:03Z</time>
      </trkpt>
      <trkpt lat="45.91586" lon="6.51249">
        <ele>2446.69</ele>
        <time>2022-02-10T15:00:04Z</time>
      </trkpt>
      <trkpt lat="45.91586" lon="6.51245">
        <ele>2445.73</ele>
        <time>2022-02-10T15:00:05Z</time>
      </trkpt>
      <trkpt lat="45.91587" lon="6.51243">
        <ele>2444.77</ele>
        <time>2022-02-10T15:00:06Z</time>
      </trkpt>
      <trkpt lat="45.91587" lon="6.5124">
        <ele>2443.33</ele>
        <time>2022-02-10T15:00:07Z</time>
      </trkpt>
      <trkpt lat="45.91586" lon="6.51238">
        <ele>2442.37</ele>
        <time>2022-02-10T15:00:08Z</time>
      </trkpt>
      <trkpt lat="45.91585" lon="6.51236">
        <ele>2440.92</ele>
        <time>2022-02-10T15:00:09Z</time>
      </trkpt>
      <trkpt lat="45.91585" lon="6.51233">
        <ele>2439.96</ele>
        <time>2022-02-10T15:00:10Z</time>
      </trkpt>
      <trkpt lat="45.91585" lon="6.5123">
        <ele>2439</ele>
        <time>2022-02-10T15:00:11Z</time>
      </trkpt>
      <trkpt lat="45.91583" lon="6.51226">
        <ele>2437.56</ele>
        <time>2022-02-10T15:00:12Z</time>
      </trkpt>
      <trkpt lat="45.91581" lon="6.51223">
        <ele>2435.64</ele>
        <time>2022-02-10T15:00:13Z</time>
      </trkpt>
      <trkpt lat="45.9158" lon="6.5122">
        <ele>2434.2</ele>
        <time>2022-02-10T15:00:14Z</time>
      </trkpt>
      <trkpt lat="45.91581" lon="6.51216">
        <ele>2433.23</ele>
        <time>2022-02-10T15:00:15Z</time>
      </trkpt>
      <trkpt lat="45.91582" lon="6.51214">
        <ele>2431.79</ele>
        <time>2022-02-10T15:00:16Z</time>
      </trkpt>
      <trkpt lat="45.91582" lon="6.51211">
        <ele>2430.83</ele>
        <time>2022-02-10T15:00:17Z</time>
      </trkpt>
      <trkpt lat="45.91581" lon="6.51208">
        <ele>2429.87</ele>
        <time>2022-02-10T15:00:18Z</time>
      </trkpt>
      <trkpt lat="45.91581" lon="6.51204">
        <ele>2427.95</ele>
        <time>2022-02-10T15:00:19Z</time>
      </trkpt>
      <trkpt lat="45.91582" lon="6.512">
        <ele>2426.02</ele>
        <time>2022-02-10T15:00:20Z</time>
      </trkpt>
      <trkpt lat="45.91583" lon="6.51198">
        <ele>2424.58</ele>
        <time>2022-02-10T15:00:21Z</time>
      </trkpt>
      <trkpt lat="45.91583" lon="6.51197">
        <ele>2422.66</ele>
        <time>2022-02-10T15:00:22Z</time>
      </trkpt>
      <trkpt lat="45.91581" lon="6.51194">
        <ele>2421.22</ele>
        <time>2022-02-10T15:00:23Z</time>
      </trkpt>
      <trkpt lat="45.9158" lon="6.51191">
        <ele>2420.26</ele>
        <time>2022-02-10T15:00:24Z</time>
      </trkpt>
      <trkpt lat="45.9158" lon="6.51188">
        <ele>2418.81</ele>
        <time>2022-02-10T15:00:25Z</time>
      </trkpt>
      <trkpt lat="45.91581" lon="6.51185">
        <ele>2417.37</ele>
        <time>2022-02-10T15:00:26Z</time>
      </trkpt>
      <trkpt lat="45.9158" lon="6.51182">
        <ele>2415.93</ele>
        <time>2022-02-10T15:00:27Z</time>
      </trkpt>
      <trkpt lat="45.9158" lon="6.51178">
        <ele>2414.49</ele>
        <time>2022-02-10T15:00:28Z</time>
      </trkpt>
      <trkpt lat="45.91581" lon="6.51175">
        <ele>2412.57</ele>
        <time>2022-02-10T15:00:29Z</time>
      </trkpt>
      <trkpt lat="45.91581" lon="6.51172">
        <ele>2411.12</ele>
        <time>2022-02-10T15:00:30Z</time>
      </trkpt>
      <trkpt lat="45.9158" lon="6.51171">
        <ele>2409.2</ele>
        <time>2022-02-10T15:00:31Z</time>
      </trkpt>
      <trkpt lat="45.91578" lon="6.51171">
        <ele>2407.76</ele>
        <time>2022-02-10T15:00:32Z</time>
      </trkpt>
      <trkpt lat="45.91577" lon="6.51168">
        <ele>2406.8</ele>
        <time>2022-02-10T15:00:33Z</time>
      </trkpt>
      <trkpt lat="45.91578" lon="6.51165">
        <ele>2405.36</ele>
        <time>2022-02-10T15:00:34Z</time>
      </trkpt>
      <trkpt lat="45.91578" lon="6.5116">
        <ele>2401.99</ele>
        <time>2022-02-10T15:00:36Z</time>
      </trkpt>
      <trkpt lat="45.91578" lon="6.51153">
        <ele>2398.63</ele>
        <time>2022-02-10T15:00:38Z</time>
      </trkpt>
      <trkpt lat="45.91579" lon="6.5115">
        <ele>2397.18</ele>
        <time>2022-02-10T15:00:39Z</time>
      </trkpt>
      <trkpt lat="45.9158" lon="6.51148">
        <ele>2396.22</ele>
        <time>2022-02-10T15:00:40Z</time>
      </trkpt>
      <trkpt lat="45.9158" lon="6.51145">
        <ele>2394.78</ele>
        <time>2022-02-10T15:00:41Z</time>
      </trkpt>
      <trkpt lat="45.91581" lon="6.51142">
        <ele>2392.38</ele>
        <time>2022-02-10T15:00:42Z</time>
      </trkpt>
      <trkpt lat="45.91582" lon="6.51141">
        <ele>2390.94</ele>
        <time>2022-02-10T15:00:43Z</time>
      </trkpt>
      <trkpt lat="45.91581" lon="6.51141">
        <ele>2389.01</ele>
        <time>2022-02-10T15:00:48Z</time>
      </trkpt>
      <trkpt lat="45.91579" lon="6.51142">
        <ele>2388.05</ele>
        <time>2022-02-10T15:00:49Z</time>
      </trkpt>
      <trkpt lat="45.91577" lon="6.51141">
        <ele>2387.09</ele>
        <time>2022-02-10T15:00:50Z</time>
      </trkpt>
      <trkpt lat="45.91576" lon="6.51138">
        <ele>2386.61</ele>
        <time>2022-02-10T15:00:51Z</time>
      </trkpt>
      <trkpt lat="45.91576" lon="6.51135">
        <ele>2385.17</ele>
        <time>2022-02-10T15:00:52Z</time>
      </trkpt>
      <trkpt lat="45.91578" lon="6.51132">
        <ele>2384.21</ele>
        <time>2022-02-10T15:00:53Z</time>
      </trkpt>
      <trkpt lat="45.91579" lon="6.51131">
        <ele>2382.28</ele>
        <time>2022-02-10T15:00:54Z</time>
      </trkpt>
      <trkpt lat="45.9158" lon="6.51129">
        <ele>2381.32</ele>
        <time>2022-02-10T15:00:55Z</time>
      </trkpt>
      <trkpt lat="45.91581" lon="6.51128">
        <ele>2380.36</ele>
        <time>2022-02-10T15:00:56Z</time>
      </trkpt>
      <trkpt lat="45.91583" lon="6.51127">
        <ele>2379.4</ele>
        <time>2022-02-10T15:00:57Z</time>
      </trkpt>
      <trkpt lat="45.91585" lon="6.51126">
        <ele>2378.44</ele>
        <time>2022-02-10T15:00:58Z</time>
      </trkpt>
      <trkpt lat="45.91587" lon="6.51124">
        <ele>2377</ele>
        <time>2022-02-10T15:00:59Z</time>
      </trkpt>
      <trkpt lat="45.91588" lon="6.51123">
        <ele>2376.52</ele>
        <time>2022-02-10T15:01:00Z</time>
      </trkpt>
      <trkpt lat="45.91588" lon="6.5112">
        <ele>2376.04</ele>
        <time>2022-02-10T15:01:01Z</time>
      </trkpt>
      <trkpt lat="45.91586" lon="6.51118">
        <ele>2374.59</ele>
        <time>2022-02-10T15:01:02Z</time>
      </trkpt>
      <trkpt lat="45.91584" lon="6.51115">
        <ele>2373.15</ele>
        <time>2022-02-10T15:01:03Z</time>
      </trkpt>
      <trkpt lat="45.91585" lon="6.51111">
        <ele>2371.71</ele>
        <time>2022-02-10T15:01:04Z</time>
      </trkpt>
      <trkpt lat="45.91586" lon="6.51108">
        <ele>2369.79</ele>
        <time>2022-02-10T15:01:05Z</time>
      </trkpt>
      <trkpt lat="45.91586" lon="6.51104">
        <ele>2367.86</ele>
        <time>2022-02-10T15:01:06Z</time>
      </trkpt>
      <trkpt lat="45.91586" lon="6.511">
        <ele>2366.42</ele>
        <time>2022-02-10T15:01:07Z</time>
      </trkpt>
      <trkpt lat="45.91586" lon="6.51093">
        <ele>2364.5</ele>
        <time>2022-02-10T15:01:08Z</time>
      </trkpt>
      <trkpt lat="45.91588" lon="6.51087">
        <ele>2361.62</ele>
        <time>2022-02-10T15:01:09Z</time>
      </trkpt>
      <trkpt lat="45.9159" lon="6.51083">
        <ele>2359.21</ele>
        <time>2022-02-10T15:01:10Z</time>
      </trkpt>
      <trkpt lat="45.91592" lon="6.5108">
        <ele>2358.25</ele>
        <time>2022-02-10T15:01:11Z</time>
      </trkpt>
      <trkpt lat="45.91593" lon="6.5108">
        <ele>2357.29</ele>
        <time>2022-02-10T15:01:12Z</time>
      </trkpt>
      <trkpt lat="45.91594" lon="6.51078">
        <ele>2356.33</ele>
        <time>2022-02-10T15:01:13Z</time>
      </trkpt>
      <trkpt lat="45.91595" lon="6.51076">
        <ele>2355.85</ele>
        <time>2022-02-10T15:01:14Z</time>
      </trkpt>
      <trkpt lat="45.91594" lon="6.51074">
        <ele>2354.41</ele>
        <time>2022-02-10T15:01:15Z</time>
      </trkpt>
      <trkpt lat="45.91592" lon="6.51073">
        <ele>2353.44</ele>
        <time>2022-02-10T15:01:16Z</time>
      </trkpt>
      <trkpt lat="45.9159" lon="6.51072">
        <ele>2352.96</ele>
        <time>2022-02-10T15:01:17Z</time>
      </trkpt>
      <trkpt lat="45.91589" lon="6.51069">
        <ele>2352</ele>
        <time>2022-02-10T15:01:18Z</time>
      </trkpt>
      <trkpt lat="45.91589" lon="6.51063">
        <ele>2350.56</ele>
        <time>2022-02-10T15:01:19Z</time>
      </trkpt>
      <trkpt lat="45.9159" lon="6.51059">
        <ele>2348.64</ele>
        <time>2022-02-10T15:01:20Z</time>
      </trkpt>
      <trkpt lat="45.91592" lon="6.51056">
        <ele>2346.72</ele>
        <time>2022-02-10T15:01:21Z</time>
      </trkpt>
      <trkpt lat="45.91594" lon="6.51054">
        <ele>2345.75</ele>
        <time>2022-02-10T15:01:22Z</time>
      </trkpt>
      <trkpt lat="45.91596" lon="6.51053">
        <ele>2344.79</ele>
        <time>2022-02-10T15:01:23Z</time>
      </trkpt>
      <trkpt lat="45.91598" lon="6.51051">
        <ele>2343.35</ele>
        <time>2022-02-10T15:01:24Z</time>
      </trkpt>
      <trkpt lat="45.91599" lon="6.51048">
        <ele>2342.39</ele>
        <time>2022-02-10T15:01:25Z</time>
      </trkpt>
      <trkpt lat="45.91598" lon="6.51046">
        <ele>2341.43</ele>
        <time>2022-02-10T15:01:26Z</time>
      </trkpt>
      <trkpt lat="45.91596" lon="6.51045">
        <ele>2339.99</ele>
        <time>2022-02-10T15:01:27Z</time>
      </trkpt>
      <trkpt lat="45.91594" lon="6.51042">
        <ele>2339.02</ele>
        <time>2022-02-10T15:01:28Z</time>
      </trkpt>
      <trkpt lat="45.91594" lon="6.51037">
        <ele>2337.58</ele>
        <time>2022-02-10T15:01:29Z</time>
      </trkpt>
      <trkpt lat="45.91596" lon="6.51033">
        <ele>2335.66</ele>
        <time>2022-02-10T15:01:30Z</time>
      </trkpt>
      <trkpt lat="45.91599" lon="6.5103">
        <ele>2333.74</ele>
        <time>2022-02-10T15:01:31Z</time>
      </trkpt>
      <trkpt lat="45.91601" lon="6.51028">
        <ele>2332.3</ele>
        <time>2022-02-10T15:01:32Z</time>
      </trkpt>
      <trkpt lat="45.91602" lon="6.51027">
        <ele>2331.33</ele>
        <time>2022-02-10T15:01:33Z</time>
      </trkpt>
      <trkpt lat="45.91603" lon="6.51024">
        <ele>2330.37</ele>
        <time>2022-02-10T15:01:34Z</time>
      </trkpt>
      <trkpt lat="45.91604" lon="6.51021">
        <ele>2329.89</ele>
        <time>2022-02-10T15:01:35Z</time>
      </trkpt>
      <trkpt lat="45.91602" lon="6.51019">
        <ele>2327.97</ele>
        <time>2022-02-10T15:01:36Z</time>
      </trkpt>
      <trkpt lat="45.91599" lon="6.51018">
        <ele>2327.01</ele>
        <time>2022-02-10T15:01:37Z</time>
      </trkpt>
      <trkpt lat="45.91597" lon="6.51016">
        <ele>2326.05</ele>
        <time>2022-02-10T15:01:38Z</time>
      </trkpt>
      <trkpt lat="45.91595" lon="6.51012">
        <ele>2325.09</ele>
        <time>2022-02-10T15:01:39Z</time>
      </trkpt>
      <trkpt lat="45.91596" lon="6.51007">
        <ele>2322.2</ele>
        <time>2022-02-10T15:01:40Z</time>
      </trkpt>
      <trkpt lat="45.91598" lon="6.51004">
        <ele>2320.28</ele>
        <time>2022-02-10T15:01:41Z</time>
      </trkpt>
      <trkpt lat="45.91601" lon="6.50996">
        <ele>2317.4</ele>
        <time>2022-02-10T15:01:43Z</time>
      </trkpt>
      <trkpt lat="45.91599" lon="6.50993">
        <ele>2315.95</ele>
        <time>2022-02-10T15:01:44Z</time>
      </trkpt>
      <trkpt lat="45.91595" lon="6.50991">
        <ele>2314.03</ele>
        <time>2022-02-10T15:01:45Z</time>
      </trkpt>
      <trkpt lat="45.91594" lon="6.50985">
        <ele>2312.11</ele>
        <time>2022-02-10T15:01:46Z</time>
      </trkpt>
      <trkpt lat="45.91595" lon="6.50979">
        <ele>2309.22</ele>
        <time>2022-02-10T15:01:47Z</time>
      </trkpt>
      <trkpt lat="45.91597" lon="6.50975">
        <ele>2307.3</ele>
        <time>2022-02-10T15:01:48Z</time>
      </trkpt>
      <trkpt lat="45.91598" lon="6.50971">
        <ele>2305.38</ele>
        <time>2022-02-10T15:01:49Z</time>
      </trkpt>
      <trkpt lat="45.91598" lon="6.50968">
        <ele>2303.46</ele>
        <time>2022-02-10T15:01:50Z</time>
      </trkpt>
      <trkpt lat="45.91596" lon="6.50966">
        <ele>2302.01</ele>
        <time>2022-02-10T15:01:51Z</time>
      </trkpt>
      <trkpt lat="45.91593" lon="6.50963">
        <ele>2300.57</ele>
        <time>2022-02-10T15:01:52Z</time>
      </trkpt>
      <trkpt lat="45.91593" lon="6.50959">
        <ele>2298.17</ele>
        <time>2022-02-10T15:01:53Z</time>
      </trkpt>
      <trkpt lat="45.91594" lon="6.50956">
        <ele>2295.77</ele>
        <time>2022-02-10T15:01:54Z</time>
      </trkpt>
      <trkpt lat="45.91595" lon="6.50954">
        <ele>2294.8</ele>
        <time>2022-02-10T15:01:55Z</time>
      </trkpt>
      <trkpt lat="45.91595" lon="6.50948">
        <ele>2292.88</ele>
        <time>2022-02-10T15:01:56Z</time>
      </trkpt>
      <trkpt lat="45.91592" lon="6.50947">
        <ele>2291.44</ele>
        <time>2022-02-10T15:01:57Z</time>
      </trkpt>
      <trkpt lat="45.91588" lon="6.50947">
        <ele>2290</ele>
        <time>2022-02-10T15:01:58Z</time>
      </trkpt>
      <trkpt lat="45.91584" lon="6.50946">
        <ele>2288.56</ele>
        <time>2022-02-10T15:01:59Z</time>
      </trkpt>
      <trkpt lat="45.91582" lon="6.5094">
        <ele>2287.11</ele>
        <time>2022-02-10T15:02:00Z</time>
      </trkpt>
      <trkpt lat="45.91582" lon="6.50934">
        <ele>2284.71</ele>
        <time>2022-02-10T15:02:01Z</time>
      </trkpt>
      <trkpt lat="45.91581" lon="6.50929">
        <ele>2282.31</ele>
        <time>2022-02-10T15:02:02Z</time>
      </trkpt>
      <trkpt lat="45.91578" lon="6.50926">
        <ele>2280.38</ele>
        <time>2022-02-10T15:02:03Z</time>
      </trkpt>
      <trkpt lat="45.91576" lon="6.50921">
        <ele>2277.98</ele>
        <time>2022-02-10T15:02:04Z</time>
      </trkpt>
      <trkpt lat="45.91577" lon="6.50916">
        <ele>2274.62</ele>
        <time>2022-02-10T15:02:05Z</time>
      </trkpt>
      <trkpt lat="45.91579" lon="6.50913">
        <ele>2272.21</ele>
        <time>2022-02-10T15:02:06Z</time>
      </trkpt>
      <trkpt lat="45.91581" lon="6.50908">
        <ele>2270.29</ele>
        <time>2022-02-10T15:02:07Z</time>
      </trkpt>
      <trkpt lat="45.91578" lon="6.50905">
        <ele>2268.85</ele>
        <time>2022-02-10T15:02:08Z</time>
      </trkpt>
      <trkpt lat="45.91575" lon="6.50902">
        <ele>2266.45</ele>
        <time>2022-02-10T15:02:09Z</time>
      </trkpt>
      <trkpt lat="45.91575" lon="6.50897">
        <ele>2264.04</ele>
        <time>2022-02-10T15:02:10Z</time>
      </trkpt>
      <trkpt lat="45.91577" lon="6.50892">
        <ele>2261.16</ele>
        <time>2022-02-10T15:02:11Z</time>
      </trkpt>
      <trkpt lat="45.91579" lon="6.50887">
        <ele>2258.27</ele>
        <time>2022-02-10T15:02:12Z</time>
      </trkpt>
      <trkpt lat="45.91582" lon="6.50883">
        <ele>2256.83</ele>
        <time>2022-02-10T15:02:13Z</time>
      </trkpt>
      <trkpt lat="45.9158" lon="6.5088">
        <ele>2254.91</ele>
        <time>2022-02-10T15:02:14Z</time>
      </trkpt>
      <trkpt lat="45.91577" lon="6.50876">
        <ele>2253.47</ele>
        <time>2022-02-10T15:02:15Z</time>
      </trkpt>
      <trkpt lat="45.91575" lon="6.50871">
        <ele>2250.58</ele>
        <time>2022-02-10T15:02:16Z</time>
      </trkpt>
      <trkpt lat="45.91578" lon="6.50866">
        <ele>2249.14</ele>
        <time>2022-02-10T15:02:17Z</time>
      </trkpt>
      <trkpt lat="45.9158" lon="6.50862">
        <ele>2247.22</ele>
        <time>2022-02-10T15:02:18Z</time>
      </trkpt>
      <trkpt lat="45.91578" lon="6.50856">
        <ele>2244.82</ele>
        <time>2022-02-10T15:02:19Z</time>
      </trkpt>
      <trkpt lat="45.91576" lon="6.5085">
        <ele>2242.41</ele>
        <time>2022-02-10T15:02:20Z</time>
      </trkpt>
      <trkpt lat="45.91576" lon="6.50844">
        <ele>2239.05</ele>
        <time>2022-02-10T15:02:21Z</time>
      </trkpt>
      <trkpt lat="45.91578" lon="6.50839">
        <ele>2236.16</ele>
        <time>2022-02-10T15:02:22Z</time>
      </trkpt>
      <trkpt lat="45.91581" lon="6.50837">
        <ele>2234.72</ele>
        <time>2022-02-10T15:02:23Z</time>
      </trkpt>
      <trkpt lat="45.91584" lon="6.50835">
        <ele>2233.28</ele>
        <time>2022-02-10T15:02:24Z</time>
      </trkpt>
      <trkpt lat="45.91588" lon="6.50832">
        <ele>2232.32</ele>
        <time>2022-02-10T15:02:25Z</time>
      </trkpt>
      <trkpt lat="45.91591" lon="6.5083">
        <ele>2231.36</ele>
        <time>2022-02-10T15:02:26Z</time>
      </trkpt>
      <trkpt lat="45.91595" lon="6.50828">
        <ele>2230.88</ele>
        <time>2022-02-10T15:02:27Z</time>
      </trkpt>
      <trkpt lat="45.916" lon="6.50825">
        <ele>2230.4</ele>
        <time>2022-02-10T15:02:28Z</time>
      </trkpt>
      <trkpt lat="45.91605" lon="6.50822">
        <ele>2229.43</ele>
        <time>2022-02-10T15:02:29Z</time>
      </trkpt>
      <trkpt lat="45.91609" lon="6.50818">
        <ele>2227.99</ele>
        <time>2022-02-10T15:02:30Z</time>
      </trkpt>
      <trkpt lat="45.91625" lon="6.50802">
        <ele>2224.63</ele>
        <time>2022-02-10T15:02:35Z</time>
      </trkpt>
      <trkpt lat="45.91635" lon="6.50796">
        <ele>2221.74</ele>
        <time>2022-02-10T15:02:39Z</time>
      </trkpt>
      <trkpt lat="45.91639" lon="6.50797">
        <ele>2220.78</ele>
        <time>2022-02-10T15:03:10Z</time>
      </trkpt>
      <trkpt lat="45.91639" lon="6.50792">
        <ele>2219.82</ele>
        <time>2022-02-10T15:03:11Z</time>
      </trkpt>
      <trkpt lat="45.91637" lon="6.50786">
        <ele>2217.42</ele>
        <time>2022-02-10T15:03:12Z</time>
      </trkpt>
      <trkpt lat="45.91633" lon="6.50781">
        <ele>2215.98</ele>
        <time>2022-02-10T15:03:13Z</time>
      </trkpt>
      <trkpt lat="45.91632" lon="6.5077">
        <ele>2213.57</ele>
        <time>2022-02-10T15:03:14Z</time>
      </trkpt>
      <trkpt lat="45.91634" lon="6.50759">
        <ele>2210.21</ele>
        <time>2022-02-10T15:03:15Z</time>
      </trkpt>
      <trkpt lat="45.91634" lon="6.50749">
        <ele>2206.84</ele>
        <time>2022-02-10T15:03:16Z</time>
      </trkpt>
      <trkpt lat="45.9163" lon="6.5074">
        <ele>2203.48</ele>
        <time>2022-02-10T15:03:17Z</time>
      </trkpt>
      <trkpt lat="45.91628" lon="6.50731">
        <ele>2200.59</ele>
        <time>2022-02-10T15:03:18Z</time>
      </trkpt>
      <trkpt lat="45.91629" lon="6.50721">
        <ele>2196.27</ele>
        <time>2022-02-10T15:03:19Z</time>
      </trkpt>
      <trkpt lat="45.9163" lon="6.50712">
        <ele>2192.9</ele>
        <time>2022-02-10T15:03:20Z</time>
      </trkpt>
      <trkpt lat="45.91629" lon="6.507">
        <ele>2189.06</ele>
        <time>2022-02-10T15:03:21Z</time>
      </trkpt>
      <trkpt lat="45.91629" lon="6.5069">
        <ele>2185.21</ele>
        <time>2022-02-10T15:03:22Z</time>
      </trkpt>
      <trkpt lat="45.91632" lon="6.5068">
        <ele>2182.81</ele>
        <time>2022-02-10T15:03:23Z</time>
      </trkpt>
      <trkpt lat="45.91632" lon="6.50671">
        <ele>2178.97</ele>
        <time>2022-02-10T15:03:24Z</time>
      </trkpt>
      <trkpt lat="45.9163" lon="6.50662">
        <ele>2176.08</ele>
        <time>2022-02-10T15:03:25Z</time>
      </trkpt>
      <trkpt lat="45.91632" lon="6.50654">
        <ele>2172.72</ele>
        <time>2022-02-10T15:03:26Z</time>
      </trkpt>
      <trkpt lat="45.91636" lon="6.50649">
        <ele>2169.83</ele>
        <time>2022-02-10T15:03:27Z</time>
      </trkpt>
      <trkpt lat="45.91642" lon="6.50647">
        <ele>2166.47</ele>
        <time>2022-02-10T15:03:28Z</time>
      </trkpt>
      <trkpt lat="45.91647" lon="6.50646">
        <ele>2164.06</ele>
        <time>2022-02-10T15:03:29Z</time>
      </trkpt>
      <trkpt lat="45.91652" lon="6.50641">
        <ele>2162.62</ele>
        <time>2022-02-10T15:03:30Z</time>
      </trkpt>
      <trkpt lat="45.91651" lon="6.50632">
        <ele>2160.22</ele>
        <time>2022-02-10T15:03:31Z</time>
      </trkpt>
      <trkpt lat="45.91651" lon="6.50622">
        <ele>2157.82</ele>
        <time>2022-02-10T15:03:32Z</time>
      </trkpt>
      <trkpt lat="45.91652" lon="6.50611">
        <ele>2153.97</ele>
        <time>2022-02-10T15:03:33Z</time>
      </trkpt>
      <trkpt lat="45.91652" lon="6.50599">
        <ele>2151.09</ele>
        <time>2022-02-10T15:03:34Z</time>
      </trkpt>
      <trkpt lat="45.91656" lon="6.50591">
        <ele>2145.8</ele>
        <time>2022-02-10T15:03:35Z</time>
      </trkpt>
      <trkpt lat="45.91659" lon="6.50584">
        <ele>2141.95</ele>
        <time>2022-02-10T15:03:36Z</time>
      </trkpt>
      <trkpt lat="45.91661" lon="6.50576">
        <ele>2139.55</ele>
        <time>2022-02-10T15:03:37Z</time>
      </trkpt>
      <trkpt lat="45.91664" lon="6.50568">
        <ele>2136.67</ele>
        <time>2022-02-10T15:03:38Z</time>
      </trkpt>
      <trkpt lat="45.91668" lon="6.50561">
        <ele>2134.26</ele>
        <time>2022-02-10T15:03:39Z</time>
      </trkpt>
      <trkpt lat="45.91669" lon="6.5055">
        <ele>2131.38</ele>
        <time>2022-02-10T15:03:40Z</time>
      </trkpt>
      <trkpt lat="45.9167" lon="6.50541">
        <ele>2128.5</ele>
        <time>2022-02-10T15:03:41Z</time>
      </trkpt>
      <trkpt lat="45.91675" lon="6.50532">
        <ele>2125.13</ele>
        <time>2022-02-10T15:03:42Z</time>
      </trkpt>
      <trkpt lat="45.91676" lon="6.50522">
        <ele>2120.81</ele>
        <time>2022-02-10T15:03:43Z</time>
      </trkpt>
      <trkpt lat="45.91676" lon="6.50509">
        <ele>2116.96</ele>
        <time>2022-02-10T15:03:44Z</time>
      </trkpt>
      <trkpt lat="45.91679" lon="6.50502">
        <ele>2113.12</ele>
        <time>2022-02-10T15:03:45Z</time>
      </trkpt>
      <trkpt lat="45.91686" lon="6.50497">
        <ele>2108.79</ele>
        <time>2022-02-10T15:03:46Z</time>
      </trkpt>
      <trkpt lat="45.91692" lon="6.50491">
        <ele>2104.94</ele>
        <time>2022-02-10T15:03:47Z</time>
      </trkpt>
      <trkpt lat="45.91699" lon="6.50482">
        <ele>2101.58</ele>
        <time>2022-02-10T15:03:48Z</time>
      </trkpt>
      <trkpt lat="45.91707" lon="6.50482">
        <ele>2097.25</ele>
        <time>2022-02-10T15:03:49Z</time>
      </trkpt>
      <trkpt lat="45.91714" lon="6.50483">
        <ele>2093.89</ele>
        <time>2022-02-10T15:03:50Z</time>
      </trkpt>
      <trkpt lat="45.91721" lon="6.50483">
        <ele>2091.49</ele>
        <time>2022-02-10T15:03:51Z</time>
      </trkpt>
      <trkpt lat="45.91726" lon="6.50482">
        <ele>2089.56</ele>
        <time>2022-02-10T15:03:52Z</time>
      </trkpt>
      <trkpt lat="45.91731" lon="6.50479">
        <ele>2089.08</ele>
        <time>2022-02-10T15:03:53Z</time>
      </trkpt>
      <trkpt lat="45.91746" lon="6.50473">
        <ele>2087.16</ele>
        <time>2022-02-10T15:03:56Z</time>
      </trkpt>
      <trkpt lat="45.91749" lon="6.50476">
        <ele>2086.68</ele>
        <time>2022-02-10T15:03:57Z</time>
      </trkpt>
      <trkpt lat="45.91749" lon="6.50478">
        <ele>2086.68</ele>
        <time>2022-02-10T15:03:58Z</time>
      </trkpt>
      <trkpt lat="45.91749" lon="6.5048">
        <ele>2086.68</ele>
        <time>2022-02-10T15:03:59Z</time>
      </trkpt>
      <trkpt lat="45.91749" lon="6.50482">
        <ele>2087.16</ele>
        <time>2022-02-10T15:04:00Z</time>
      </trkpt>
      <trkpt lat="45.91748" lon="6.50483">
        <ele>2087.16</ele>
        <time>2022-02-10T15:04:01Z</time>
      </trkpt>
      <trkpt lat="45.91746" lon="6.50486">
        <ele>2086.68</ele>
        <time>2022-02-10T15:04:13Z</time>
      </trkpt>
      <trkpt lat="45.91745" lon="6.50481">
        <ele>2086.2</ele>
        <time>2022-02-10T15:04:14Z</time>
      </trkpt>
      <trkpt lat="45.91744" lon="6.50476">
        <ele>2084.76</ele>
        <time>2022-02-10T15:04:15Z</time>
      </trkpt>
      <trkpt lat="45.91741" lon="6.50472">
        <ele>2082.83</ele>
        <time>2022-02-10T15:04:16Z</time>
      </trkpt>
      <trkpt lat="45.91736" lon="6.50467">
        <ele>2081.39</ele>
        <time>2022-02-10T15:04:17Z</time>
      </trkpt>
      <trkpt lat="45.91731" lon="6.50459">
        <ele>2079.47</ele>
        <time>2022-02-10T15:04:18Z</time>
      </trkpt>
      <trkpt lat="45.91721" lon="6.50446">
        <ele>2076.59</ele>
        <time>2022-02-10T15:04:20Z</time>
      </trkpt>
      <trkpt lat="45.9172" lon="6.50439">
        <ele>2075.62</ele>
        <time>2022-02-10T15:04:21Z</time>
      </trkpt>
      <trkpt lat="45.91718" lon="6.50436">
        <ele>2074.66</ele>
        <time>2022-02-10T15:04:22Z</time>
      </trkpt>
      <trkpt lat="45.91716" lon="6.50428">
        <ele>2072.74</ele>
        <time>2022-02-10T15:04:23Z</time>
      </trkpt>
      <trkpt lat="45.91715" lon="6.50419">
        <ele>2070.34</ele>
        <time>2022-02-10T15:04:24Z</time>
      </trkpt>
      <trkpt lat="45.91713" lon="6.5041">
        <ele>2067.45</ele>
        <time>2022-02-10T15:04:25Z</time>
      </trkpt>
      <trkpt lat="45.91709" lon="6.50402">
        <ele>2064.57</ele>
        <time>2022-02-10T15:04:26Z</time>
      </trkpt>
      <trkpt lat="45.91707" lon="6.50391">
        <ele>2061.2</ele>
        <time>2022-02-10T15:04:27Z</time>
      </trkpt>
      <trkpt lat="45.91708" lon="6.50382">
        <ele>2057.84</ele>
        <time>2022-02-10T15:04:28Z</time>
      </trkpt>
      <trkpt lat="45.91712" lon="6.50374">
        <ele>2054.96</ele>
        <time>2022-02-10T15:04:29Z</time>
      </trkpt>
      <trkpt lat="45.91715" lon="6.50365">
        <ele>2051.11</ele>
        <time>2022-02-10T15:04:30Z</time>
      </trkpt>
      <trkpt lat="45.91719" lon="6.50356">
        <ele>2047.75</ele>
        <time>2022-02-10T15:04:31Z</time>
      </trkpt>
      <trkpt lat="45.9172" lon="6.50347">
        <ele>2042.46</ele>
        <time>2022-02-10T15:04:32Z</time>
      </trkpt>
      <trkpt lat="45.9172" lon="6.50338">
        <ele>2039.57</ele>
        <time>2022-02-10T15:04:33Z</time>
      </trkpt>
      <trkpt lat="45.91718" lon="6.5033">
        <ele>2038.61</ele>
        <time>2022-02-10T15:04:34Z</time>
      </trkpt>
      <trkpt lat="45.91715" lon="6.50322">
        <ele>2037.17</ele>
        <time>2022-02-10T15:04:35Z</time>
      </trkpt>
      <trkpt lat="45.91716" lon="6.50315">
        <ele>2036.21</ele>
        <time>2022-02-10T15:04:36Z</time>
      </trkpt>
      <trkpt lat="45.91718" lon="6.50311">
        <ele>2034.77</ele>
        <time>2022-02-10T15:04:37Z</time>
      </trkpt>
      <trkpt lat="45.91719" lon="6.50307">
        <ele>2032.84</ele>
        <time>2022-02-10T15:04:38Z</time>
      </trkpt>
      <trkpt lat="45.91718" lon="6.50302">
        <ele>2030.44</ele>
        <time>2022-02-10T15:04:39Z</time>
      </trkpt>
      <trkpt lat="45.91715" lon="6.50298">
        <ele>2029.48</ele>
        <time>2022-02-10T15:04:40Z</time>
      </trkpt>
      <trkpt lat="45.91713" lon="6.50293">
        <ele>2027.08</ele>
        <time>2022-02-10T15:04:41Z</time>
      </trkpt>
      <trkpt lat="45.91708" lon="6.5028">
        <ele>2024.19</ele>
        <time>2022-02-10T15:04:44Z</time>
      </trkpt>
      <trkpt lat="45.91706" lon="6.50273">
        <ele>2021.79</ele>
        <time>2022-02-10T15:05:00Z</time>
      </trkpt>
      <trkpt lat="45.91708" lon="6.5027">
        <ele>2021.79</ele>
        <time>2022-02-10T15:05:01Z</time>
      </trkpt>
      <trkpt lat="45.91711" lon="6.50269">
        <ele>2020.35</ele>
        <time>2022-02-10T15:05:02Z</time>
      </trkpt>
      <trkpt lat="45.91715" lon="6.5027">
        <ele>2017.94</ele>
        <time>2022-02-10T15:05:03Z</time>
      </trkpt>
      <trkpt lat="45.91718" lon="6.5027">
        <ele>2016.5</ele>
        <time>2022-02-10T15:05:04Z</time>
      </trkpt>
      <trkpt lat="45.9172" lon="6.50267">
        <ele>2015.06</ele>
        <time>2022-02-10T15:05:05Z</time>
      </trkpt>
      <trkpt lat="45.9172" lon="6.50262">
        <ele>2012.66</ele>
        <time>2022-02-10T15:05:06Z</time>
      </trkpt>
      <trkpt lat="45.9172" lon="6.50255">
        <ele>2010.73</ele>
        <time>2022-02-10T15:05:07Z</time>
      </trkpt>
      <trkpt lat="45.9172" lon="6.50251">
        <ele>2008.33</ele>
        <time>2022-02-10T15:05:08Z</time>
      </trkpt>
      <trkpt lat="45.91724" lon="6.5025">
        <ele>2004.97</ele>
        <time>2022-02-10T15:05:09Z</time>
      </trkpt>
      <trkpt lat="45.91729" lon="6.5025">
        <ele>2002.08</ele>
        <time>2022-02-10T15:05:10Z</time>
      </trkpt>
      <trkpt lat="45.91734" lon="6.50248">
        <ele>1999.68</ele>
        <time>2022-02-10T15:05:11Z</time>
      </trkpt>
      <trkpt lat="45.91734" lon="6.50241">
        <ele>1996.8</ele>
        <time>2022-02-10T15:05:12Z</time>
      </trkpt>
      <trkpt lat="45.91737" lon="6.50233">
        <ele>1994.39</ele>
        <time>2022-02-10T15:05:13Z</time>
      </trkpt>
      <trkpt lat="45.91742" lon="6.50228">
        <ele>1990.55</ele>
        <time>2022-02-10T15:05:14Z</time>
      </trkpt>
      <trkpt lat="45.91747" lon="6.50227">
        <ele>1986.7</ele>
        <time>2022-02-10T15:05:15Z</time>
      </trkpt>
      <trkpt lat="45.91752" lon="6.50223">
        <ele>1983.82</ele>
        <time>2022-02-10T15:05:16Z</time>
      </trkpt>
      <trkpt lat="45.91754" lon="6.50213">
        <ele>1980.45</ele>
        <time>2022-02-10T15:05:17Z</time>
      </trkpt>
      <trkpt lat="45.91756" lon="6.50204">
        <ele>1976.61</ele>
        <time>2022-02-10T15:05:18Z</time>
      </trkpt>
      <trkpt lat="45.9176" lon="6.50198">
        <ele>1973.24</ele>
        <time>2022-02-10T15:05:19Z</time>
      </trkpt>
      <trkpt lat="45.91763" lon="6.50192">
        <ele>1969.88</ele>
        <time>2022-02-10T15:05:20Z</time>
      </trkpt>
      <trkpt lat="45.91764" lon="6.50186">
        <ele>1966.99</ele>
        <time>2022-02-10T15:05:21Z</time>
      </trkpt>
      <trkpt lat="45.91767" lon="6.5018">
        <ele>1964.59</ele>
        <time>2022-02-10T15:05:22Z</time>
      </trkpt>
      <trkpt lat="45.91771" lon="6.50178">
        <ele>1961.23</ele>
        <time>2022-02-10T15:05:23Z</time>
      </trkpt>
      <trkpt lat="45.91775" lon="6.50175">
        <ele>1959.78</ele>
        <time>2022-02-10T15:05:24Z</time>
      </trkpt>
      <trkpt lat="45.91777" lon="6.50171">
        <ele>1957.38</ele>
        <time>2022-02-10T15:05:25Z</time>
      </trkpt>
      <trkpt lat="45.91777" lon="6.50166">
        <ele>1954.02</ele>
        <time>2022-02-10T15:05:26Z</time>
      </trkpt>
      <trkpt lat="45.91777" lon="6.5016">
        <ele>1952.57</ele>
        <time>2022-02-10T15:05:27Z</time>
      </trkpt>
      <trkpt lat="45.91777" lon="6.50155">
        <ele>1951.13</ele>
        <time>2022-02-10T15:05:28Z</time>
      </trkpt>
      <trkpt lat="45.9178" lon="6.50153">
        <ele>1948.73</ele>
        <time>2022-02-10T15:05:29Z</time>
      </trkpt>
      <trkpt lat="45.91783" lon="6.50153">
        <ele>1946.81</ele>
        <time>2022-02-10T15:05:30Z</time>
      </trkpt>
      <trkpt lat="45.91785" lon="6.50155">
        <ele>1945.36</ele>
        <time>2022-02-10T15:05:31Z</time>
      </trkpt>
      <trkpt lat="45.91786" lon="6.50156">
        <ele>1944.4</ele>
        <time>2022-02-10T15:05:32Z</time>
      </trkpt>
      <trkpt lat="45.91788" lon="6.50158">
        <ele>1943.44</ele>
        <time>2022-02-10T15:05:40Z</time>
      </trkpt>
      <trkpt lat="45.91792" lon="6.5015">
        <ele>1943.44</ele>
        <time>2022-02-10T15:05:52Z</time>
      </trkpt>
      <trkpt lat="45.91793" lon="6.50146">
        <ele>1942.96</ele>
        <time>2022-02-10T15:05:53Z</time>
      </trkpt>
      <trkpt lat="45.91792" lon="6.50142">
        <ele>1942</ele>
        <time>2022-02-10T15:05:54Z</time>
      </trkpt>
      <trkpt lat="45.91791" lon="6.50138">
        <ele>1941.04</ele>
        <time>2022-02-10T15:05:55Z</time>
      </trkpt>
      <trkpt lat="45.91789" lon="6.50134">
        <ele>1940.08</ele>
        <time>2022-02-10T15:05:56Z</time>
      </trkpt>
      <trkpt lat="45.91788" lon="6.5013">
        <ele>1939.12</ele>
        <time>2022-02-10T15:05:57Z</time>
      </trkpt>
      <trkpt lat="45.91789" lon="6.50123">
        <ele>1938.64</ele>
        <time>2022-02-10T15:05:58Z</time>
      </trkpt>
      <trkpt lat="45.91792" lon="6.50118">
        <ele>1936.71</ele>
        <time>2022-02-10T15:05:59Z</time>
      </trkpt>
      <trkpt lat="45.91793" lon="6.50114">
        <ele>1935.27</ele>
        <time>2022-02-10T15:06:00Z</time>
      </trkpt>
      <trkpt lat="45.91792" lon="6.50108">
        <ele>1932.87</ele>
        <time>2022-02-10T15:06:01Z</time>
      </trkpt>
      <trkpt lat="45.91792" lon="6.501">
        <ele>1931.43</ele>
        <time>2022-02-10T15:06:02Z</time>
      </trkpt>
      <trkpt lat="45.91794" lon="6.50096">
        <ele>1929.02</ele>
        <time>2022-02-10T15:06:03Z</time>
      </trkpt>
      <trkpt lat="45.91797" lon="6.50093">
        <ele>1927.1</ele>
        <time>2022-02-10T15:06:04Z</time>
      </trkpt>
      <trkpt lat="45.91798" lon="6.50088">
        <ele>1925.18</ele>
        <time>2022-02-10T15:06:05Z</time>
      </trkpt>
      <trkpt lat="45.91796" lon="6.50084">
        <ele>1923.25</ele>
        <time>2022-02-10T15:06:06Z</time>
      </trkpt>
      <trkpt lat="45.91794" lon="6.50079">
        <ele>1922.29</ele>
        <time>2022-02-10T15:06:07Z</time>
      </trkpt>
      <trkpt lat="45.91792" lon="6.50073">
        <ele>1921.33</ele>
        <time>2022-02-10T15:06:08Z</time>
      </trkpt>
      <trkpt lat="45.91791" lon="6.50068">
        <ele>1920.37</ele>
        <time>2022-02-10T15:06:09Z</time>
      </trkpt>
      <trkpt lat="45.91794" lon="6.50059">
        <ele>1917.97</ele>
        <time>2022-02-10T15:06:11Z</time>
      </trkpt>
      <trkpt lat="45.91797" lon="6.50061">
        <ele>1916.04</ele>
        <time>2022-02-10T15:06:12Z</time>
      </trkpt>
      <trkpt lat="45.918" lon="6.50063">
        <ele>1914.6</ele>
        <time>2022-02-10T15:06:13Z</time>
      </trkpt>
      <trkpt lat="45.91802" lon="6.50066">
        <ele>1913.64</ele>
        <time>2022-02-10T15:06:14Z</time>
      </trkpt>
      <trkpt lat="45.91806" lon="6.50069">
        <ele>1912.68</ele>
        <time>2022-02-10T15:06:15Z</time>
      </trkpt>
      <trkpt lat="45.9181" lon="6.50071">
        <ele>1911.24</ele>
        <time>2022-02-10T15:06:16Z</time>
      </trkpt>
      <trkpt lat="45.91814" lon="6.50072">
        <ele>1910.28</ele>
        <time>2022-02-10T15:06:17Z</time>
      </trkpt>
      <trkpt lat="45.91817" lon="6.50073">
        <ele>1908.83</ele>
        <time>2022-02-10T15:06:18Z</time>
      </trkpt>
      <trkpt lat="45.9182" lon="6.50073">
        <ele>1907.87</ele>
        <time>2022-02-10T15:06:19Z</time>
      </trkpt>
      <trkpt lat="45.91822" lon="6.5007">
        <ele>1906.43</ele>
        <time>2022-02-10T15:06:20Z</time>
      </trkpt>
      <trkpt lat="45.91825" lon="6.50064">
        <ele>1904.99</ele>
        <time>2022-02-10T15:06:21Z</time>
      </trkpt>
      <trkpt lat="45.91828" lon="6.50061">
        <ele>1902.59</ele>
        <time>2022-02-10T15:06:22Z</time>
      </trkpt>
      <trkpt lat="45.91833" lon="6.5006">
        <ele>1899.7</ele>
        <time>2022-02-10T15:06:23Z</time>
      </trkpt>
      <trkpt lat="45.91837" lon="6.50057">
        <ele>1896.82</ele>
        <time>2022-02-10T15:06:24Z</time>
      </trkpt>
      <trkpt lat="45.91841" lon="6.50049">
        <ele>1893.93</ele>
        <time>2022-02-10T15:06:25Z</time>
      </trkpt>
      <trkpt lat="45.91846" lon="6.50046">
        <ele>1890.57</ele>
        <time>2022-02-10T15:06:26Z</time>
      </trkpt>
      <trkpt lat="45.91851" lon="6.50045">
        <ele>1887.69</ele>
        <time>2022-02-10T15:06:27Z</time>
      </trkpt>
      <trkpt lat="45.91855" lon="6.5004">
        <ele>1884.8</ele>
        <time>2022-02-10T15:06:28Z</time>
      </trkpt>
      <trkpt lat="45.91859" lon="6.50034">
        <ele>1882.4</ele>
        <time>2022-02-10T15:06:29Z</time>
      </trkpt>
      <trkpt lat="45.91864" lon="6.50031">
        <ele>1879.51</ele>
        <time>2022-02-10T15:06:30Z</time>
      </trkpt>
      <trkpt lat="45.9187" lon="6.50033">
        <ele>1874.71</ele>
        <time>2022-02-10T15:06:31Z</time>
      </trkpt>
      <trkpt lat="45.91876" lon="6.50034">
        <ele>1871.82</ele>
        <time>2022-02-10T15:06:32Z</time>
      </trkpt>
      <trkpt lat="45.9188" lon="6.5003">
        <ele>1870.38</ele>
        <time>2022-02-10T15:06:33Z</time>
      </trkpt>
      <trkpt lat="45.91879" lon="6.50022">
        <ele>1867.98</ele>
        <time>2022-02-10T15:06:34Z</time>
      </trkpt>
      <trkpt lat="45.91878" lon="6.50014">
        <ele>1866.06</ele>
        <time>2022-02-10T15:06:35Z</time>
      </trkpt>
      <trkpt lat="45.91882" lon="6.50009">
        <ele>1863.17</ele>
        <time>2022-02-10T15:06:36Z</time>
      </trkpt>
      <trkpt lat="45.91885" lon="6.50004">
        <ele>1861.25</ele>
        <time>2022-02-10T15:06:37Z</time>
      </trkpt>
      <trkpt lat="45.91888" lon="6.49996">
        <ele>1858.37</ele>
        <time>2022-02-10T15:06:38Z</time>
      </trkpt>
      <trkpt lat="45.91887" lon="6.49987">
        <ele>1855.48</ele>
        <time>2022-02-10T15:06:39Z</time>
      </trkpt>
      <trkpt lat="45.91889" lon="6.49978">
        <ele>1852.6</ele>
        <time>2022-02-10T15:06:40Z</time>
      </trkpt>
      <trkpt lat="45.91893" lon="6.49973">
        <ele>1849.23</ele>
        <time>2022-02-10T15:06:41Z</time>
      </trkpt>
      <trkpt lat="45.91898" lon="6.49973">
        <ele>1846.35</ele>
        <time>2022-02-10T15:06:42Z</time>
      </trkpt>
      <trkpt lat="45.91902" lon="6.49974">
        <ele>1843.95</ele>
        <time>2022-02-10T15:06:43Z</time>
      </trkpt>
      <trkpt lat="45.91906" lon="6.49973">
        <ele>1842.02</ele>
        <time>2022-02-10T15:06:44Z</time>
      </trkpt>
      <trkpt lat="45.91906" lon="6.49967">
        <ele>1840.58</ele>
        <time>2022-02-10T15:06:45Z</time>
      </trkpt>
      <trkpt lat="45.91907" lon="6.49959">
        <ele>1839.14</ele>
        <time>2022-02-10T15:06:46Z</time>
      </trkpt>
      <trkpt lat="45.91911" lon="6.49955">
        <ele>1836.74</ele>
        <time>2022-02-10T15:06:47Z</time>
      </trkpt>
      <trkpt lat="45.91914" lon="6.49952">
        <ele>1834.33</ele>
        <time>2022-02-10T15:06:48Z</time>
      </trkpt>
      <trkpt lat="45.91916" lon="6.49946">
        <ele>1831.93</ele>
        <time>2022-02-10T15:06:49Z</time>
      </trkpt>
      <trkpt lat="45.91917" lon="6.49938">
        <ele>1829.53</ele>
        <time>2022-02-10T15:06:50Z</time>
      </trkpt>
      <trkpt lat="45.9192" lon="6.49934">
        <ele>1826.16</ele>
        <time>2022-02-10T15:06:51Z</time>
      </trkpt>
      <trkpt lat="45.91924" lon="6.49935">
        <ele>1824.24</ele>
        <time>2022-02-10T15:06:52Z</time>
      </trkpt>
      <trkpt lat="45.91928" lon="6.49938">
        <ele>1821.84</ele>
        <time>2022-02-10T15:06:53Z</time>
      </trkpt>
      <trkpt lat="45.91937" lon="6.49946">
        <ele>1817.99</ele>
        <time>2022-02-10T15:06:55Z</time>
      </trkpt>
      <trkpt lat="45.91941" lon="6.4995">
        <ele>1816.07</ele>
        <time>2022-02-10T15:06:56Z</time>
      </trkpt>
      <trkpt lat="45.91945" lon="6.49951">
        <ele>1814.63</ele>
        <time>2022-02-10T15:06:57Z</time>
      </trkpt>
      <trkpt lat="45.91947" lon="6.49947">
        <ele>1813.66</ele>
        <time>2022-02-10T15:06:58Z</time>
      </trkpt>
      <trkpt lat="45.91948" lon="6.49938">
        <ele>1811.74</ele>
        <time>2022-02-10T15:06:59Z</time>
      </trkpt>
      <trkpt lat="45.9195" lon="6.49933">
        <ele>1809.34</ele>
        <time>2022-02-10T15:07:00Z</time>
      </trkpt>
      <trkpt lat="45.91954" lon="6.4993">
        <ele>1806.94</ele>
        <time>2022-02-10T15:07:01Z</time>
      </trkpt>
      <trkpt lat="45.91957" lon="6.49923">
        <ele>1804.53</ele>
        <time>2022-02-10T15:07:02Z</time>
      </trkpt>
      <trkpt lat="45.91955" lon="6.49917">
        <ele>1802.61</ele>
        <time>2022-02-10T15:07:03Z</time>
      </trkpt>
      <trkpt lat="45.91954" lon="6.49911">
        <ele>1799.73</ele>
        <time>2022-02-10T15:07:04Z</time>
      </trkpt>
      <trkpt lat="45.91951" lon="6.49901">
        <ele>1796.36</ele>
        <time>2022-02-10T15:07:07Z</time>
      </trkpt>
      <trkpt lat="45.91952" lon="6.49898">
        <ele>1795.4</ele>
        <time>2022-02-10T15:07:08Z</time>
      </trkpt>
      <trkpt lat="45.91955" lon="6.49896">
        <ele>1794.92</ele>
        <time>2022-02-10T15:07:09Z</time>
      </trkpt>
      <trkpt lat="45.91958" lon="6.49897">
        <ele>1793</ele>
        <time>2022-02-10T15:07:10Z</time>
      </trkpt>
      <trkpt lat="45.91962" lon="6.49895">
        <ele>1791.55</ele>
        <time>2022-02-10T15:07:11Z</time>
      </trkpt>
      <trkpt lat="45.91963" lon="6.49891">
        <ele>1789.63</ele>
        <time>2022-02-10T15:07:12Z</time>
      </trkpt>
      <trkpt lat="45.91965" lon="6.49885">
        <ele>1788.19</ele>
        <time>2022-02-10T15:07:13Z</time>
      </trkpt>
      <trkpt lat="45.9197" lon="6.49883">
        <ele>1786.75</ele>
        <time>2022-02-10T15:07:14Z</time>
      </trkpt>
      <trkpt lat="45.91974" lon="6.49883">
        <ele>1783.38</ele>
        <time>2022-02-10T15:07:15Z</time>
      </trkpt>
      <trkpt lat="45.91976" lon="6.49886">
        <ele>1781.94</ele>
        <time>2022-02-10T15:07:16Z</time>
      </trkpt>
      <trkpt lat="45.91978" lon="6.49888">
        <ele>1780.98</ele>
        <time>2022-02-10T15:07:17Z</time>
      </trkpt>
      <trkpt lat="45.9198" lon="6.4989">
        <ele>1780.5</ele>
        <time>2022-02-10T15:07:18Z</time>
      </trkpt>
      <trkpt lat="45.91982" lon="6.49892">
        <ele>1780.02</ele>
        <time>2022-02-10T15:07:19Z</time>
      </trkpt>
      <trkpt lat="45.91985" lon="6.49894">
        <ele>1780.02</ele>
        <time>2022-02-10T15:07:20Z</time>
      </trkpt>
      <trkpt lat="45.91987" lon="6.49891">
        <ele>1779.06</ele>
        <time>2022-02-10T15:07:21Z</time>
      </trkpt>
      <trkpt lat="45.91988" lon="6.49885">
        <ele>1777.61</ele>
        <time>2022-02-10T15:07:22Z</time>
      </trkpt>
      <trkpt lat="45.91987" lon="6.4988">
        <ele>1775.69</ele>
        <time>2022-02-10T15:07:23Z</time>
      </trkpt>
      <trkpt lat="45.91989" lon="6.49874">
        <ele>1774.73</ele>
        <time>2022-02-10T15:07:24Z</time>
      </trkpt>
      <trkpt lat="45.91993" lon="6.49871">
        <ele>1773.77</ele>
        <time>2022-02-10T15:07:25Z</time>
      </trkpt>
      <trkpt lat="45.91995" lon="6.49867">
        <ele>1771.85</ele>
        <time>2022-02-10T15:07:26Z</time>
      </trkpt>
      <trkpt lat="45.91996" lon="6.49861">
        <ele>1769.92</ele>
        <time>2022-02-10T15:07:27Z</time>
      </trkpt>
      <trkpt lat="45.91998" lon="6.49856">
        <ele>1768</ele>
        <time>2022-02-10T15:07:28Z</time>
      </trkpt>
      <trkpt lat="45.92002" lon="6.49849">
        <ele>1765.6</ele>
        <time>2022-02-10T15:07:29Z</time>
      </trkpt>
      <trkpt lat="45.92005" lon="6.49845">
        <ele>1763.2</ele>
        <time>2022-02-10T15:07:30Z</time>
      </trkpt>
      <trkpt lat="45.92007" lon="6.49838">
        <ele>1761.27</ele>
        <time>2022-02-10T15:07:31Z</time>
      </trkpt>
      <trkpt lat="45.92011" lon="6.49832">
        <ele>1759.35</ele>
        <time>2022-02-10T15:07:32Z</time>
      </trkpt>
      <trkpt lat="45.92015" lon="6.49828">
        <ele>1756.47</ele>
        <time>2022-02-10T15:07:33Z</time>
      </trkpt>
      <trkpt lat="45.92018" lon="6.49822">
        <ele>1754.06</ele>
        <time>2022-02-10T15:07:34Z</time>
      </trkpt>
      <trkpt lat="45.92022" lon="6.49815">
        <ele>1751.18</ele>
        <time>2022-02-10T15:07:35Z</time>
      </trkpt>
      <trkpt lat="45.92028" lon="6.49814">
        <ele>1748.29</ele>
        <time>2022-02-10T15:07:36Z</time>
      </trkpt>
      <trkpt lat="45.92034" lon="6.49815">
        <ele>1745.41</ele>
        <time>2022-02-10T15:07:37Z</time>
      </trkpt>
      <trkpt lat="45.92039" lon="6.49813">
        <ele>1741.57</ele>
        <time>2022-02-10T15:07:38Z</time>
      </trkpt>
      <trkpt lat="45.92044" lon="6.49808">
        <ele>1739.64</ele>
        <time>2022-02-10T15:07:39Z</time>
      </trkpt>
      <trkpt lat="45.9205" lon="6.49806">
        <ele>1736.76</ele>
        <time>2022-02-10T15:07:40Z</time>
      </trkpt>
      <trkpt lat="45.92055" lon="6.49805">
        <ele>1734.36</ele>
        <time>2022-02-10T15:07:41Z</time>
      </trkpt>
      <trkpt lat="45.9206" lon="6.498">
        <ele>1731.95</ele>
        <time>2022-02-10T15:07:42Z</time>
      </trkpt>
      <trkpt lat="45.92066" lon="6.49795">
        <ele>1729.55</ele>
        <time>2022-02-10T15:07:43Z</time>
      </trkpt>
      <trkpt lat="45.92071" lon="6.49788">
        <ele>1726.67</ele>
        <time>2022-02-10T15:07:44Z</time>
      </trkpt>
      <trkpt lat="45.92076" lon="6.49781">
        <ele>1723.78</ele>
        <time>2022-02-10T15:07:45Z</time>
      </trkpt>
      <trkpt lat="45.92082" lon="6.49778">
        <ele>1721.38</ele>
        <time>2022-02-10T15:07:46Z</time>
      </trkpt>
      <trkpt lat="45.92087" lon="6.49775">
        <ele>1719.46</ele>
        <time>2022-02-10T15:07:47Z</time>
      </trkpt>
      <trkpt lat="45.92091" lon="6.49764">
        <ele>1716.57</ele>
        <time>2022-02-10T15:07:48Z</time>
      </trkpt>
      <trkpt lat="45.92097" lon="6.49757">
        <ele>1713.21</ele>
        <time>2022-02-10T15:07:49Z</time>
      </trkpt>
      <trkpt lat="45.92101" lon="6.49748">
        <ele>1710.32</ele>
        <time>2022-02-10T15:07:50Z</time>
      </trkpt>
      <trkpt lat="45.92106" lon="6.49741">
        <ele>1707.44</ele>
        <time>2022-02-10T15:07:51Z</time>
      </trkpt>
      <trkpt lat="45.92112" lon="6.49737">
        <ele>1704.07</ele>
        <time>2022-02-10T15:07:52Z</time>
      </trkpt>
      <trkpt lat="45.92116" lon="6.49732">
        <ele>1701.19</ele>
        <time>2022-02-10T15:07:53Z</time>
      </trkpt>
      <trkpt lat="45.92119" lon="6.49724">
        <ele>1698.79</ele>
        <time>2022-02-10T15:07:54Z</time>
      </trkpt>
      <trkpt lat="45.92123" lon="6.49721">
        <ele>1696.38</ele>
        <time>2022-02-10T15:07:55Z</time>
      </trkpt>
      <trkpt lat="45.92129" lon="6.49719">
        <ele>1693.02</ele>
        <time>2022-02-10T15:07:56Z</time>
      </trkpt>
      <trkpt lat="45.92132" lon="6.49716">
        <ele>1691.1</ele>
        <time>2022-02-10T15:07:57Z</time>
      </trkpt>
      <trkpt lat="45.92134" lon="6.49711">
        <ele>1689.65</ele>
        <time>2022-02-10T15:07:58Z</time>
      </trkpt>
      <trkpt lat="45.92136" lon="6.49703">
        <ele>1686.77</ele>
        <time>2022-02-10T15:07:59Z</time>
      </trkpt>
      <trkpt lat="45.92141" lon="6.49699">
        <ele>1684.37</ele>
        <time>2022-02-10T15:08:00Z</time>
      </trkpt>
      <trkpt lat="45.92147" lon="6.497">
        <ele>1681.96</ele>
        <time>2022-02-10T15:08:01Z</time>
      </trkpt>
      <trkpt lat="45.92152" lon="6.49702">
        <ele>1679.56</ele>
        <time>2022-02-10T15:08:02Z</time>
      </trkpt>
      <trkpt lat="45.92157" lon="6.49705">
        <ele>1678.6</ele>
        <time>2022-02-10T15:08:03Z</time>
      </trkpt>
      <trkpt lat="45.92161" lon="6.49709">
        <ele>1678.12</ele>
        <time>2022-02-10T15:08:04Z</time>
      </trkpt>
      <trkpt lat="45.92166" lon="6.49713">
        <ele>1677.16</ele>
        <time>2022-02-10T15:08:05Z</time>
      </trkpt>
      <trkpt lat="45.92173" lon="6.49715">
        <ele>1675.23</ele>
        <time>2022-02-10T15:08:07Z</time>
      </trkpt>
      <trkpt lat="45.92173" lon="6.49711">
        <ele>1674.75</ele>
        <time>2022-02-10T15:08:08Z</time>
      </trkpt>
      <trkpt lat="45.92175" lon="6.49704">
        <ele>1673.79</ele>
        <time>2022-02-10T15:08:09Z</time>
      </trkpt>
      <trkpt lat="45.92179" lon="6.49702">
        <ele>1671.39</ele>
        <time>2022-02-10T15:08:10Z</time>
      </trkpt>
      <trkpt lat="45.92183" lon="6.49701">
        <ele>1669.47</ele>
        <time>2022-02-10T15:08:11Z</time>
      </trkpt>
      <trkpt lat="45.92188" lon="6.497">
        <ele>1668.02</ele>
        <time>2022-02-10T15:08:12Z</time>
      </trkpt>
      <trkpt lat="45.92189" lon="6.4969">
        <ele>1666.1</ele>
        <time>2022-02-10T15:08:13Z</time>
      </trkpt>
      <trkpt lat="45.9219" lon="6.49682">
        <ele>1664.18</ele>
        <time>2022-02-10T15:08:14Z</time>
      </trkpt>
      <trkpt lat="45.92195" lon="6.4968">
        <ele>1661.78</ele>
        <time>2022-02-10T15:08:15Z</time>
      </trkpt>
      <trkpt lat="45.92199" lon="6.49681">
        <ele>1659.85</ele>
        <time>2022-02-10T15:08:16Z</time>
      </trkpt>
      <trkpt lat="45.92204" lon="6.49683">
        <ele>1658.89</ele>
        <time>2022-02-10T15:08:17Z</time>
      </trkpt>
      <trkpt lat="45.92208" lon="6.49685">
        <ele>1657.93</ele>
        <time>2022-02-10T15:08:18Z</time>
      </trkpt>
      <trkpt lat="45.92212" lon="6.49687">
        <ele>1656.97</ele>
        <time>2022-02-10T15:08:19Z</time>
      </trkpt>
      <trkpt lat="45.92214" lon="6.49689">
        <ele>1656.97</ele>
        <time>2022-02-10T15:08:20Z</time>
      </trkpt>
      <trkpt lat="45.92214" lon="6.4969">
        <ele>1656.97</ele>
        <time>2022-02-10T15:08:21Z</time>
      </trkpt>
      <trkpt lat="45.92214" lon="6.49692">
        <ele>1656.97</ele>
        <time>2022-02-10T15:08:22Z</time>
      </trkpt>
      <trkpt lat="45.92214" lon="6.49693">
        <ele>1656.97</ele>
        <time>2022-02-10T15:08:25Z</time>
      </trkpt>
      <trkpt lat="45.92213" lon="6.49692">
        <ele>1656.97</ele>
        <time>2022-02-10T15:08:40Z</time>
      </trkpt>
      <trkpt lat="45.92216" lon="6.49691">
        <ele>1656.49</ele>
        <time>2022-02-10T15:08:41Z</time>
      </trkpt>
      <trkpt lat="45.92218" lon="6.49688">
        <ele>1656.01</ele>
        <time>2022-02-10T15:08:42Z</time>
      </trkpt>
      <trkpt lat="45.92219" lon="6.49682">
        <ele>1655.05</ele>
        <time>2022-02-10T15:08:43Z</time>
      </trkpt>
      <trkpt lat="45.92218" lon="6.49676">
        <ele>1654.09</ele>
        <time>2022-02-10T15:08:44Z</time>
      </trkpt>
      <trkpt lat="45.92217" lon="6.49669">
        <ele>1652.16</ele>
        <time>2022-02-10T15:08:45Z</time>
      </trkpt>
      <trkpt lat="45.9222" lon="6.49663">
        <ele>1650.24</ele>
        <time>2022-02-10T15:08:46Z</time>
      </trkpt>
      <trkpt lat="45.92223" lon="6.49655">
        <ele>1647.84</ele>
        <time>2022-02-10T15:08:47Z</time>
      </trkpt>
      <trkpt lat="45.92223" lon="6.49649">
        <ele>1645.43</ele>
        <time>2022-02-10T15:08:48Z</time>
      </trkpt>
      <trkpt lat="45.92221" lon="6.49643">
        <ele>1643.51</ele>
        <time>2022-02-10T15:08:49Z</time>
      </trkpt>
      <trkpt lat="45.92222" lon="6.49638">
        <ele>1641.59</ele>
        <time>2022-02-10T15:08:50Z</time>
      </trkpt>
      <trkpt lat="45.92224" lon="6.49635">
        <ele>1639.67</ele>
        <time>2022-02-10T15:08:51Z</time>
      </trkpt>
      <trkpt lat="45.92224" lon="6.49631">
        <ele>1638.22</ele>
        <time>2022-02-10T15:08:52Z</time>
      </trkpt>
      <trkpt lat="45.92222" lon="6.49625">
        <ele>1637.26</ele>
        <time>2022-02-10T15:08:53Z</time>
      </trkpt>
      <trkpt lat="45.92223" lon="6.49619">
        <ele>1634.86</ele>
        <time>2022-02-10T15:08:54Z</time>
      </trkpt>
      <trkpt lat="45.92226" lon="6.49615">
        <ele>1632.94</ele>
        <time>2022-02-10T15:08:55Z</time>
      </trkpt>
      <trkpt lat="45.9223" lon="6.49612">
        <ele>1630.53</ele>
        <time>2022-02-10T15:08:56Z</time>
      </trkpt>
      <trkpt lat="45.92234" lon="6.4961">
        <ele>1629.09</ele>
        <time>2022-02-10T15:08:57Z</time>
      </trkpt>
      <trkpt lat="45.92235" lon="6.49606">
        <ele>1627.65</ele>
        <time>2022-02-10T15:08:58Z</time>
      </trkpt>
      <trkpt lat="45.92234" lon="6.49601">
        <ele>1626.21</ele>
        <time>2022-02-10T15:08:59Z</time>
      </trkpt>
      <trkpt lat="45.92232" lon="6.49596">
        <ele>1624.77</ele>
        <time>2022-02-10T15:09:00Z</time>
      </trkpt>
      <trkpt lat="45.92234" lon="6.4959">
        <ele>1623.32</ele>
        <time>2022-02-10T15:09:01Z</time>
      </trkpt>
      <trkpt lat="45.92237" lon="6.49585">
        <ele>1621.4</ele>
        <time>2022-02-10T15:09:02Z</time>
      </trkpt>
      <trkpt lat="45.92237" lon="6.49579">
        <ele>1619.48</ele>
        <time>2022-02-10T15:09:03Z</time>
      </trkpt>
      <trkpt lat="45.92235" lon="6.49575">
        <ele>1618.04</ele>
        <time>2022-02-10T15:09:04Z</time>
      </trkpt>
      <trkpt lat="45.92235" lon="6.49569">
        <ele>1615.63</ele>
        <time>2022-02-10T15:09:05Z</time>
      </trkpt>
      <trkpt lat="45.92238" lon="6.49568">
        <ele>1613.71</ele>
        <time>2022-02-10T15:09:06Z</time>
      </trkpt>
      <trkpt lat="45.9224" lon="6.49568">
        <ele>1612.27</ele>
        <time>2022-02-10T15:09:07Z</time>
      </trkpt>
      <trkpt lat="45.92243" lon="6.49569">
        <ele>1611.31</ele>
        <time>2022-02-10T15:09:08Z</time>
      </trkpt>
      <trkpt lat="45.92246" lon="6.49569">
        <ele>1610.35</ele>
        <time>2022-02-10T15:09:09Z</time>
      </trkpt>
      <trkpt lat="45.92248" lon="6.49567">
        <ele>1609.38</ele>
        <time>2022-02-10T15:09:10Z</time>
      </trkpt>
      <trkpt lat="45.9225" lon="6.49565">
        <ele>1608.9</ele>
        <time>2022-02-10T15:09:11Z</time>
      </trkpt>
      <trkpt lat="45.9225" lon="6.49563">
        <ele>1607.94</ele>
        <time>2022-02-10T15:09:12Z</time>
      </trkpt>
      <trkpt lat="45.92248" lon="6.4956">
        <ele>1606.98</ele>
        <time>2022-02-10T15:09:13Z</time>
      </trkpt>
      <trkpt lat="45.92248" lon="6.49554">
        <ele>1605.06</ele>
        <time>2022-02-10T15:09:14Z</time>
      </trkpt>
      <trkpt lat="45.9225" lon="6.49551">
        <ele>1603.62</ele>
        <time>2022-02-10T15:09:15Z</time>
      </trkpt>
      <trkpt lat="45.92253" lon="6.49547">
        <ele>1602.17</ele>
        <time>2022-02-10T15:09:16Z</time>
      </trkpt>
      <trkpt lat="45.92254" lon="6.49543">
        <ele>1600.73</ele>
        <time>2022-02-10T15:09:17Z</time>
      </trkpt>
      <trkpt lat="45.92251" lon="6.4954">
        <ele>1598.81</ele>
        <time>2022-02-10T15:09:18Z</time>
      </trkpt>
      <trkpt lat="45.92249" lon="6.49535">
        <ele>1597.37</ele>
        <time>2022-02-10T15:09:19Z</time>
      </trkpt>
      <trkpt lat="45.9225" lon="6.4953">
        <ele>1594.96</ele>
        <time>2022-02-10T15:09:20Z</time>
      </trkpt>
      <trkpt lat="45.92253" lon="6.49526">
        <ele>1593.52</ele>
        <time>2022-02-10T15:09:21Z</time>
      </trkpt>
      <trkpt lat="45.92254" lon="6.49521">
        <ele>1592.08</ele>
        <time>2022-02-10T15:09:22Z</time>
      </trkpt>
      <trkpt lat="45.92253" lon="6.49516">
        <ele>1590.16</ele>
        <time>2022-02-10T15:09:23Z</time>
      </trkpt>
      <trkpt lat="45.92251" lon="6.4951">
        <ele>1588.24</ele>
        <time>2022-02-10T15:09:24Z</time>
      </trkpt>
      <trkpt lat="45.92251" lon="6.49505">
        <ele>1586.31</ele>
        <time>2022-02-10T15:09:25Z</time>
      </trkpt>
      <trkpt lat="45.92252" lon="6.49499">
        <ele>1585.35</ele>
        <time>2022-02-10T15:09:26Z</time>
      </trkpt>
      <trkpt lat="45.92252" lon="6.49492">
        <ele>1582.47</ele>
        <time>2022-02-10T15:09:27Z</time>
      </trkpt>
      <trkpt lat="45.92247" lon="6.49489">
        <ele>1580.54</ele>
        <time>2022-02-10T15:09:28Z</time>
      </trkpt>
      <trkpt lat="45.92245" lon="6.49483">
        <ele>1579.1</ele>
        <time>2022-02-10T15:09:29Z</time>
      </trkpt>
      <trkpt lat="45.92244" lon="6.49478">
        <ele>1577.66</ele>
        <time>2022-02-10T15:09:30Z</time>
      </trkpt>
      <trkpt lat="45.92244" lon="6.49472">
        <ele>1575.74</ele>
        <time>2022-02-10T15:09:31Z</time>
      </trkpt>
      <trkpt lat="45.92239" lon="6.49468">
        <ele>1573.82</ele>
        <time>2022-02-10T15:09:32Z</time>
      </trkpt>
      <trkpt lat="45.92237" lon="6.49462">
        <ele>1572.37</ele>
        <time>2022-02-10T15:09:33Z</time>
      </trkpt>
      <trkpt lat="45.92238" lon="6.49457">
        <ele>1569.97</ele>
        <time>2022-02-10T15:09:34Z</time>
      </trkpt>
      <trkpt lat="45.92241" lon="6.49451">
        <ele>1568.05</ele>
        <time>2022-02-10T15:09:35Z</time>
      </trkpt>
      <trkpt lat="45.92244" lon="6.49447">
        <ele>1566.61</ele>
        <time>2022-02-10T15:09:36Z</time>
      </trkpt>
      <trkpt lat="45.92248" lon="6.49443">
        <ele>1565.16</ele>
        <time>2022-02-10T15:09:37Z</time>
      </trkpt>
      <trkpt lat="45.9225" lon="6.4944">
        <ele>1563.72</ele>
        <time>2022-02-10T15:09:38Z</time>
      </trkpt>
      <trkpt lat="45.92251" lon="6.49437">
        <ele>1562.28</ele>
        <time>2022-02-10T15:09:39Z</time>
      </trkpt>
      <trkpt lat="45.9225" lon="6.49434">
        <ele>1561.32</ele>
        <time>2022-02-10T15:09:40Z</time>
      </trkpt>
      <trkpt lat="45.92247" lon="6.49433">
        <ele>1560.36</ele>
        <time>2022-02-10T15:09:41Z</time>
      </trkpt>
      <trkpt lat="45.92244" lon="6.49433">
        <ele>1559.4</ele>
        <time>2022-02-10T15:09:42Z</time>
      </trkpt>
      <trkpt lat="45.92241" lon="6.49431">
        <ele>1558.92</ele>
        <time>2022-02-10T15:09:43Z</time>
      </trkpt>
      <trkpt lat="45.92239" lon="6.49427">
        <ele>1557.47</ele>
        <time>2022-02-10T15:09:44Z</time>
      </trkpt>
      <trkpt lat="45.9224" lon="6.49422">
        <ele>1556.03</ele>
        <time>2022-02-10T15:09:45Z</time>
      </trkpt>
      <trkpt lat="45.92243" lon="6.49417">
        <ele>1555.07</ele>
        <time>2022-02-10T15:09:46Z</time>
      </trkpt>
      <trkpt lat="45.92245" lon="6.49413">
        <ele>1554.59</ele>
        <time>2022-02-10T15:09:47Z</time>
      </trkpt>
      <trkpt lat="45.92244" lon="6.49406">
        <ele>1553.63</ele>
        <time>2022-02-10T15:09:48Z</time>
      </trkpt>
      <trkpt lat="45.92241" lon="6.494">
        <ele>1552.19</ele>
        <time>2022-02-10T15:09:49Z</time>
      </trkpt>
      <trkpt lat="45.92239" lon="6.49392">
        <ele>1550.74</ele>
        <time>2022-02-10T15:09:50Z</time>
      </trkpt>
      <trkpt lat="45.92241" lon="6.49384">
        <ele>1548.82</ele>
        <time>2022-02-10T15:09:51Z</time>
      </trkpt>
      <trkpt lat="45.92243" lon="6.49377">
        <ele>1546.42</ele>
        <time>2022-02-10T15:09:52Z</time>
      </trkpt>
      <trkpt lat="45.92242" lon="6.49369">
        <ele>1544.98</ele>
        <time>2022-02-10T15:09:53Z</time>
      </trkpt>
      <trkpt lat="45.92239" lon="6.49362">
        <ele>1542.57</ele>
        <time>2022-02-10T15:09:54Z</time>
      </trkpt>
      <trkpt lat="45.92238" lon="6.49361">
        <ele>1541.13</ele>
        <time>2022-02-10T15:09:55Z</time>
      </trkpt>
      <trkpt lat="45.9224" lon="6.49354">
        <ele>1539.21</ele>
        <time>2022-02-10T15:09:56Z</time>
      </trkpt>
      <trkpt lat="45.92242" lon="6.4935">
        <ele>1537.77</ele>
        <time>2022-02-10T15:09:57Z</time>
      </trkpt>
      <trkpt lat="45.92241" lon="6.49345">
        <ele>1535.84</ele>
        <time>2022-02-10T15:09:58Z</time>
      </trkpt>
      <trkpt lat="45.92238" lon="6.4934">
        <ele>1534.88</ele>
        <time>2022-02-10T15:09:59Z</time>
      </trkpt>
      <trkpt lat="45.92235" lon="6.49334">
        <ele>1532.48</ele>
        <time>2022-02-10T15:10:00Z</time>
      </trkpt>
      <trkpt lat="45.92235" lon="6.49327">
        <ele>1531.04</ele>
        <time>2022-02-10T15:10:01Z</time>
      </trkpt>
      <trkpt lat="45.92236" lon="6.4932">
        <ele>1529.59</ele>
        <time>2022-02-10T15:10:02Z</time>
      </trkpt>
      <trkpt lat="45.92234" lon="6.49314">
        <ele>1528.15</ele>
        <time>2022-02-10T15:10:03Z</time>
      </trkpt>
      <trkpt lat="45.92231" lon="6.49308">
        <ele>1526.71</ele>
        <time>2022-02-10T15:10:04Z</time>
      </trkpt>
      <trkpt lat="45.92232" lon="6.49304">
        <ele>1525.27</ele>
        <time>2022-02-10T15:10:05Z</time>
      </trkpt>
      <trkpt lat="45.92233" lon="6.49301">
        <ele>1524.31</ele>
        <time>2022-02-10T15:10:06Z</time>
      </trkpt>
      <trkpt lat="45.92235" lon="6.49301">
        <ele>1523.35</ele>
        <time>2022-02-10T15:10:07Z</time>
      </trkpt>
      <trkpt lat="45.92235" lon="6.49302">
        <ele>1523.35</ele>
        <time>2022-02-10T15:10:08Z</time>
      </trkpt>
      <trkpt lat="45.92233" lon="6.49298">
        <ele>1522.87</ele>
        <time>2022-02-10T15:10:16Z</time>
      </trkpt>
      <trkpt lat="45.92231" lon="6.49295">
        <ele>1522.87</ele>
        <time>2022-02-10T15:10:17Z</time>
      </trkpt>
      <trkpt lat="45.92229" lon="6.49292">
        <ele>1522.39</ele>
        <time>2022-02-10T15:10:18Z</time>
      </trkpt>
      <trkpt lat="45.92226" lon="6.49289">
        <ele>1521.42</ele>
        <time>2022-02-10T15:10:19Z</time>
      </trkpt>
      <trkpt lat="45.92222" lon="6.49287">
        <ele>1520.46</ele>
        <time>2022-02-10T15:10:20Z</time>
      </trkpt>
      <trkpt lat="45.92217" lon="6.49285">
        <ele>1519.5</ele>
        <time>2022-02-10T15:10:21Z</time>
      </trkpt>
      <trkpt lat="45.92213" lon="6.49283">
        <ele>1518.54</ele>
        <time>2022-02-10T15:10:22Z</time>
      </trkpt>
      <trkpt lat="45.92208" lon="6.4928">
        <ele>1517.58</ele>
        <time>2022-02-10T15:10:23Z</time>
      </trkpt>
      <trkpt lat="45.92204" lon="6.49277">
        <ele>1517.1</ele>
        <time>2022-02-10T15:10:24Z</time>
      </trkpt>
      <trkpt lat="45.92201" lon="6.49273">
        <ele>1516.62</ele>
        <time>2022-02-10T15:10:25Z</time>
      </trkpt>
      <trkpt lat="45.92202" lon="6.49266">
        <ele>1516.14</ele>
        <time>2022-02-10T15:10:26Z</time>
      </trkpt>
      <trkpt lat="45.92202" lon="6.49258">
        <ele>1515.66</ele>
        <time>2022-02-10T15:10:27Z</time>
      </trkpt>
      <trkpt lat="45.92202" lon="6.49251">
        <ele>1514.69</ele>
        <time>2022-02-10T15:10:28Z</time>
      </trkpt>
      <trkpt lat="45.92202" lon="6.49242">
        <ele>1512.77</ele>
        <time>2022-02-10T15:10:29Z</time>
      </trkpt>
      <trkpt lat="45.92201" lon="6.49233">
        <ele>1511.33</ele>
        <time>2022-02-10T15:10:30Z</time>
      </trkpt>
      <trkpt lat="45.92201" lon="6.49223">
        <ele>1509.41</ele>
        <time>2022-02-10T15:10:31Z</time>
      </trkpt>
      <trkpt lat="45.92201" lon="6.49213">
        <ele>1507.97</ele>
        <time>2022-02-10T15:10:32Z</time>
      </trkpt>
      <trkpt lat="45.922" lon="6.49202">
        <ele>1505.56</ele>
        <time>2022-02-10T15:10:33Z</time>
      </trkpt>
      <trkpt lat="45.92199" lon="6.4919">
        <ele>1503.16</ele>
        <time>2022-02-10T15:10:34Z</time>
      </trkpt>
      <trkpt lat="45.92198" lon="6.49178">
        <ele>1501.24</ele>
        <time>2022-02-10T15:10:35Z</time>
      </trkpt>
      <trkpt lat="45.92197" lon="6.49164">
        <ele>1498.35</ele>
        <time>2022-02-10T15:10:36Z</time>
      </trkpt>
      <trkpt lat="45.92197" lon="6.4915">
        <ele>1495.47</ele>
        <time>2022-02-10T15:10:37Z</time>
      </trkpt>
      <trkpt lat="45.92195" lon="6.49135">
        <ele>1492.1</ele>
        <time>2022-02-10T15:10:38Z</time>
      </trkpt>
      <trkpt lat="45.92192" lon="6.49108">
        <ele>1486.82</ele>
        <time>2022-02-10T15:10:40Z</time>
      </trkpt>
      <trkpt lat="45.92189" lon="6.49084">
        <ele>1482.49</ele>
        <time>2022-02-10T15:10:42Z</time>
      </trkpt>
      <trkpt lat="45.92185" lon="6.49058">
        <ele>1478.65</ele>
        <time>2022-02-10T15:10:44Z</time>
      </trkpt>
      <trkpt lat="45.92182" lon="6.49044">
        <ele>1476.24</ele>
        <time>2022-02-10T15:10:45Z</time>
      </trkpt>
      <trkpt lat="45.9218" lon="6.4903">
        <ele>1474.32</ele>
        <time>2022-02-10T15:10:46Z</time>
      </trkpt>
      <trkpt lat="45.92179" lon="6.49015">
        <ele>1472.4</ele>
        <time>2022-02-10T15:10:47Z</time>
      </trkpt>
      <trkpt lat="45.92178" lon="6.49">
        <ele>1470.47</ele>
        <time>2022-02-10T15:10:48Z</time>
      </trkpt>
      <trkpt lat="45.92176" lon="6.48968">
        <ele>1467.11</ele>
        <time>2022-02-10T15:10:50Z</time>
      </trkpt>
      <trkpt lat="45.92174" lon="6.48936">
        <ele>1463.26</ele>
        <time>2022-02-10T15:10:52Z</time>
      </trkpt>
      <trkpt lat="45.92173" lon="6.48905">
        <ele>1460.38</ele>
        <time>2022-02-10T15:10:54Z</time>
      </trkpt>
      <trkpt lat="45.92171" lon="6.48875">
        <ele>1456.53</ele>
        <time>2022-02-10T15:10:56Z</time>
      </trkpt>
      <trkpt lat="45.9217" lon="6.4885">
        <ele>1455.57</ele>
        <time>2022-02-10T15:10:58Z</time>
      </trkpt>
      <trkpt lat="45.92171" lon="6.48842">
        <ele>1455.57</ele>
        <time>2022-02-10T15:10:59Z</time>
      </trkpt>
      <trkpt lat="45.92173" lon="6.48835">
        <ele>1456.05</ele>
        <time>2022-02-10T15:11:00Z</time>
      </trkpt>
      <trkpt lat="45.92175" lon="6.48831">
        <ele>1456.53</ele>
        <time>2022-02-10T15:11:01Z</time>
      </trkpt>
      <trkpt lat="45.92177" lon="6.48828">
        <ele>1457.02</ele>
        <time>2022-02-10T15:11:02Z</time>
      </trkpt>
      <trkpt lat="45.92178" lon="6.48826">
        <ele>1457.02</ele>
        <time>2022-02-10T15:11:03Z</time>
      </trkpt>
      <trkpt lat="45.92179" lon="6.48824">
        <ele>1457.5</ele>
        <time>2022-02-10T15:11:04Z</time>
      </trkpt>
      <trkpt lat="45.92181" lon="6.48822">
        <ele>1458.94</ele>
        <time>2022-02-10T15:11:22Z</time>
      </trkpt>
      <trkpt lat="45.92182" lon="6.4882">
        <ele>1458.94</ele>
        <time>2022-02-10T15:11:23Z</time>
      </trkpt>
      <trkpt lat="45.92182" lon="6.48812">
        <ele>1459.9</ele>
        <time>2022-02-10T15:11:28Z</time>
      </trkpt>
      <trkpt lat="45.92181" lon="6.48811">
        <ele>1460.38</ele>
        <time>2022-02-10T15:11:29Z</time>
      </trkpt>
      <trkpt lat="45.92174" lon="6.48787">
        <ele>1461.82</ele>
        <time>2022-02-10T15:11:41Z</time>
      </trkpt>
      <trkpt lat="45.9217" lon="6.48775">
        <ele>1462.3</ele>
        <time>2022-02-10T15:11:47Z</time>
      </trkpt>
      <trkpt lat="45.92169" lon="6.48773">
        <ele>1462.3</ele>
        <time>2022-02-10T15:11:48Z</time>
      </trkpt>
      <trkpt lat="45.92169" lon="6.48771">
        <ele>1462.3</ele>
        <time>2022-02-10T15:11:49Z</time>
      </trkpt>
      <trkpt lat="45.92168" lon="6.48769">
        <ele>1462.3</ele>
        <time>2022-02-10T15:11:50Z</time>
      </trkpt>
      <trkpt lat="45.92167" lon="6.48767">
        <ele>1462.78</ele>
        <time>2022-02-10T15:11:51Z</time>
      </trkpt>
      <trkpt lat="45.92166" lon="6.48766">
        <ele>1462.78</ele>
        <time>2022-02-10T15:11:52Z</time>
      </trkpt>
      <trkpt lat="45.92159" lon="6.48746">
        <ele>1464.23</ele>
        <time>2022-02-10T15:12:04Z</time>
      </trkpt>
      <trkpt lat="45.92159" lon="6.48745">
        <ele>1464.71</ele>
        <time>2022-02-10T15:12:05Z</time>
      </trkpt>
      <trkpt lat="45.92158" lon="6.48744">
        <ele>1464.71</ele>
        <time>2022-02-10T15:12:06Z</time>
      </trkpt>
      <trkpt lat="45.92158" lon="6.48742">
        <ele>1465.19</ele>
        <time>2022-02-10T15:12:07Z</time>
      </trkpt>
      <trkpt lat="45.92157" lon="6.4874">
        <ele>1465.19</ele>
        <time>2022-02-10T15:12:08Z</time>
      </trkpt>
      <trkpt lat="45.92156" lon="6.48739">
        <ele>1465.19</ele>
        <time>2022-02-10T15:12:09Z</time>
      </trkpt>
      <trkpt lat="45.92155" lon="6.48737">
        <ele>1465.19</ele>
        <time>2022-02-10T15:12:10Z</time>
      </trkpt>
      <trkpt lat="45.92155" lon="6.48735">
        <ele>1465.67</ele>
        <time>2022-02-10T15:12:11Z</time>
      </trkpt>
      <trkpt lat="45.92154" lon="6.48733">
        <ele>1465.67</ele>
        <time>2022-02-10T15:12:12Z</time>
      </trkpt>
      <trkpt lat="45.92154" lon="6.48731">
        <ele>1465.67</ele>
        <time>2022-02-10T15:12:13Z</time>
      </trkpt>
      <trkpt lat="45.92152" lon="6.48724">
        <ele>1466.15</ele>
        <time>2022-02-10T15:12:16Z</time>
      </trkpt>
      <trkpt lat="45.92151" lon="6.48723">
        <ele>1466.15</ele>
        <time>2022-02-10T15:12:17Z</time>
      </trkpt>
      <trkpt lat="45.9215" lon="6.48722">
        <ele>1466.15</ele>
        <time>2022-02-10T15:12:18Z</time>
      </trkpt>
      <trkpt lat="45.92149" lon="6.48719">
        <ele>1466.15</ele>
        <time>2022-02-10T15:12:19Z</time>
      </trkpt>
      <trkpt lat="45.92149" lon="6.48718">
        <ele>1466.15</ele>
        <time>2022-02-10T15:12:20Z</time>
      </trkpt>
      <trkpt lat="45.92135" lon="6.48688">
        <ele>1467.11</ele>
        <time>2022-02-10T15:12:35Z</time>
      </trkpt>
      <trkpt lat="45.9213" lon="6.48675">
        <ele>1465.67</ele>
        <time>2022-02-10T15:12:37Z</time>
      </trkpt>
      <trkpt lat="45.92128" lon="6.48666">
        <ele>1465.19</ele>
        <time>2022-02-10T15:12:38Z</time>
      </trkpt>
      <trkpt lat="45.92128" lon="6.48657">
        <ele>1464.23</ele>
        <time>2022-02-10T15:12:39Z</time>
      </trkpt>
      <trkpt lat="45.92128" lon="6.48649">
        <ele>1463.26</ele>
        <time>2022-02-10T15:12:40Z</time>
      </trkpt>
      <trkpt lat="45.9213" lon="6.48641">
        <ele>1462.78</ele>
        <time>2022-02-10T15:12:41Z</time>
      </trkpt>
      <trkpt lat="45.92133" lon="6.48635">
        <ele>1462.78</ele>
        <time>2022-02-10T15:12:42Z</time>
      </trkpt>
      <trkpt lat="45.92135" lon="6.48629">
        <ele>1462.78</ele>
        <time>2022-02-10T15:12:43Z</time>
      </trkpt>
      <trkpt lat="45.92147" lon="6.486">
        <ele>1461.34</ele>
        <time>2022-02-10T15:12:49Z</time>
      </trkpt>
      <trkpt lat="45.92158" lon="6.48575">
        <ele>1461.34</ele>
        <time>2022-02-10T15:12:56Z</time>
      </trkpt>
      <trkpt lat="45.92167" lon="6.48551">
        <ele>1460.38</ele>
        <time>2022-02-10T15:13:04Z</time>
      </trkpt>
      <trkpt lat="45.92176" lon="6.48523">
        <ele>1458.46</ele>
        <time>2022-02-10T15:13:10Z</time>
      </trkpt>
      <trkpt lat="45.92186" lon="6.48501">
        <ele>1456.05</ele>
        <time>2022-02-10T15:13:13Z</time>
      </trkpt>
      <trkpt lat="45.92191" lon="6.48494">
        <ele>1455.57</ele>
        <time>2022-02-10T15:13:14Z</time>
      </trkpt>
      <trkpt lat="45.92207" lon="6.48473">
        <ele>1452.69</ele>
        <time>2022-02-10T15:13:17Z</time>
      </trkpt>
      <trkpt lat="45.92228" lon="6.48447">
        <ele>1449.81</ele>
        <time>2022-02-10T15:13:21Z</time>
      </trkpt>
      <trkpt lat="45.92233" lon="6.48442">
        <ele>1448.84</ele>
        <time>2022-02-10T15:13:22Z</time>
      </trkpt>
      <trkpt lat="45.92241" lon="6.48434">
        <ele>1448.36</ele>
        <time>2022-02-10T15:13:24Z</time>
      </trkpt>
      <trkpt lat="45.92253" lon="6.48417">
        <ele>1448.84</ele>
        <time>2022-02-10T15:13:31Z</time>
      </trkpt>
      <trkpt lat="45.92273" lon="6.4841">
        <ele>1447.4</ele>
        <time>2022-02-10T15:13:40Z</time>
      </trkpt>
      <trkpt lat="45.92292" lon="6.48402">
        <ele>1446.92</ele>
        <time>2022-02-10T15:13:47Z</time>
      </trkpt>
      <trkpt lat="45.92313" lon="6.4839">
        <ele>1446.92</ele>
        <time>2022-02-10T15:13:54Z</time>
      </trkpt>
      <trkpt lat="45.92332" lon="6.48376">
        <ele>1445.96</ele>
        <time>2022-02-10T15:14:02Z</time>
      </trkpt>
      <trkpt lat="45.9235" lon="6.48368">
        <ele>1445</ele>
        <time>2022-02-10T15:14:10Z</time>
      </trkpt>
      <trkpt lat="45.92351" lon="6.48368">
        <ele>1445</ele>
        <time>2022-02-10T15:14:11Z</time>
      </trkpt>
      <trkpt lat="45.92351" lon="6.48368">
        <ele>1445</ele>
        <time>2022-02-10T15:14:15Z</time>
      </trkpt>
      <trkpt lat="45.92353" lon="6.48367">
        <ele>1445</ele>
        <time>2022-02-10T15:14:22Z</time>
      </trkpt>
      <trkpt lat="45.92355" lon="6.48367">
        <ele>1445</ele>
        <time>2022-02-10T15:14:23Z</time>
      </trkpt>
      <trkpt lat="45.92356" lon="6.48366">
        <ele>1445</ele>
        <time>2022-02-10T15:14:24Z</time>
      </trkpt>
      <trkpt lat="45.92358" lon="6.48365">
        <ele>1445</ele>
        <time>2022-02-10T15:14:25Z</time>
      </trkpt>
      <trkpt lat="45.92359" lon="6.48364">
        <ele>1445</ele>
        <time>2022-02-10T15:14:26Z</time>
      </trkpt>
      <trkpt lat="45.92361" lon="6.48363">
        <ele>1445</ele>
        <time>2022-02-10T15:14:27Z</time>
      </trkpt>
      <trkpt lat="45.92362" lon="6.48363">
        <ele>1444.52</ele>
        <time>2022-02-10T15:14:28Z</time>
      </trkpt>
      <trkpt lat="45.92364" lon="6.48361">
        <ele>1444.52</ele>
        <time>2022-02-10T15:14:34Z</time>
      </trkpt>
    </trkseg>
  </trk>
</gpx>